Date StartTime U_cm/s V_cm/s W_cm/s Ustd_cm/s Vstd_cm/s Wstd_cm/s Uvar_(cm/s)^2 Vvar_(cm/s)^2 Wvar_(cm/s)^2 KE_(m/s)^2 TurbulentKE_(m/s)^2 HorizWindSpeed_cm/s FrictionSpeec_cm/s DragCoef SpeedOfSound_m/s SonicTemperature_C Pressure_mb 
05/20/2013  00:00:00      -38.872      208.806      -27.998       49.102       65.387       35.418     2411.012     4275.427     1254.434        2.692        0.397      212.393       25.121        0.014      340.172       14.006      866.238
05/20/2013  00:01:00      -61.952      188.030      -24.075       42.987       48.911       30.332     1847.907     2392.285      920.049        2.247        0.258      197.974       28.345        0.020      340.184       14.027      866.237
05/20/2013  00:02:00      -68.864      171.702      -31.287       50.144       46.984       24.383     2514.426     2207.539      594.512        2.026        0.266      184.997        8.110        0.002      340.190       14.039      866.239
05/20/2013  00:03:00      -55.653      126.112      -16.420       44.123       67.888       27.150     1946.817     4608.780      737.143        1.328        0.365      137.846       30.473        0.049      340.165       13.996      866.243
05/20/2013  00:04:00      -90.659       97.236      -22.697       40.896       44.240       25.148     1672.509     1957.192      632.397        1.122        0.213      132.944       25.124        0.036      340.111       13.905      866.249
05/20/2013  00:05:00      -70.000       80.082      -16.789       39.833       68.960       27.499     1586.687     4755.503      756.218        0.935        0.355      106.363       26.853        0.064      340.136       13.948      866.253
05/20/2013  00:06:00      -74.926       62.032      -11.890       38.290       29.303       27.579     1466.143      858.683      760.585        0.634        0.154       97.272       25.016        0.066      340.068       13.833      866.267
05/20/2013  00:07:00      -68.464       75.605      -17.377       31.574       49.390       22.137      996.888     2439.357      490.050        0.732        0.196      101.997       27.177        0.071      340.070       13.837      866.277
05/20/2013  00:08:00      -95.217       54.923      -17.936       25.618       29.832       17.667      656.260      889.959      312.107        0.713        0.093      109.922       11.428        0.011      340.046       13.797      866.273
05/20/2013  00:09:00     -108.072       38.144      -11.707       35.972       32.062       19.415     1293.963     1027.944      376.927        0.798        0.135      114.606       12.862        0.013      339.983       13.690      866.266
05/20/2013  00:10:00      -66.836      113.995      -30.866       38.581       61.446       24.477     1488.511     3775.558      599.115        1.214        0.293      132.143       26.997        0.042      340.058       13.816      866.268
05/20/2013  00:11:00      -70.427       81.405      -19.946       39.173       36.943       20.633     1534.523     1364.776      425.717        0.765        0.166      107.642       14.019        0.017      339.964       13.659      866.279
05/20/2013  00:12:00      -76.140       94.007      -18.041       31.504       30.743       17.435      992.476      945.106      303.981        0.860        0.112      120.974       13.999        0.013      339.879       13.516      866.285
05/20/2013  00:13:00      -44.901       69.755       -8.069       41.918       53.406       18.850     1757.157     2852.154      355.338        0.595        0.248       82.958       17.922        0.047      339.958       13.647      866.278
05/20/2013  00:14:00      -55.248       91.378      -15.404       52.710       48.540       32.192     2778.384     2356.119     1036.302        0.890        0.309      106.781       30.756        0.083      339.914       13.574      866.272
05/20/2013  00:15:00      -68.682       79.824      -17.128       24.061       39.260       24.384      578.915     1541.382      594.600        0.705        0.136      105.304       23.095        0.048      339.906       13.560      866.276
05/20/2013  00:16:00      -91.047       32.781      -20.307       22.700       40.884       21.835      515.305     1671.476      476.785        0.622        0.133       96.768       17.492        0.033      339.851       13.467      866.278
05/20/2013  00:17:00      -95.463       23.939       -8.214       29.252       41.219       23.259      855.669     1698.968      540.964        0.642        0.155       98.419       23.619        0.058      339.804       13.390      866.291
05/20/2013  00:18:00      -98.290       50.686      -20.160       31.908       35.220       19.234     1018.091     1240.465      369.928        0.763        0.131      110.590       16.964        0.024      339.778       13.345      866.295
05/20/2013  00:19:00     -113.571       49.479      -22.032       24.666       42.282       18.639      608.434     1787.771      347.418        0.929        0.137      123.881       19.946        0.026      339.792       13.370      866.298
05/20/2013  00:20:00      -99.923       90.265      -24.633       26.238       38.130       21.509      688.443     1453.927      462.619        1.067        0.130      134.657       19.427        0.021      339.762       13.318      866.293
05/20/2013  00:21:00      -72.839       98.516      -20.656       34.605       39.811       17.869     1197.507     1584.883      319.310        0.927        0.155      122.519       12.131        0.010      339.787       13.359      866.313
05/20/2013  00:22:00      -61.838       68.018      -10.410       38.400       39.015       17.293     1474.525     1522.185      299.052        0.593        0.165       91.926       19.997        0.047      339.770       13.330      866.324
05/20/2013  00:23:00      -52.259       63.909      -17.777       35.839       49.121       24.727     1284.438     2412.852      611.420        0.572        0.215       82.555       19.586        0.056      339.714       13.238      866.323
05/20/2013  00:24:00      -55.950       73.457      -13.077       34.708       46.148       20.374     1204.675     2129.674      415.114        0.622        0.187       92.338       23.698        0.066      339.764       13.322      866.329
05/20/2013  00:25:00      -56.552       92.163      -16.288       34.212       32.039       22.703     1170.472     1026.502      515.438        0.733        0.136      108.130       17.191        0.025      339.783       13.354      866.342
05/20/2013  00:26:00      -84.555      113.692      -28.419       42.185       54.646       19.777     1779.556     2986.168      391.135        1.302        0.258      141.688       15.276        0.012      339.796       13.376      866.367
05/20/2013  00:27:00      -75.458       91.901      -14.891       41.910       44.594       27.627     1756.424     1988.598      763.256        0.943        0.225      118.910       22.737        0.037      339.787       13.359      866.367
05/20/2013  00:28:00      -39.331       31.079       -8.733       22.926       34.170       16.738      525.624     1167.615      280.155        0.228        0.099       50.128       11.588        0.053      339.709       13.228      866.370
05/20/2013  00:29:00      -70.912       63.458      -18.265       29.753       33.265       20.686      885.271     1106.555      427.912        0.590        0.121       95.160       19.191        0.041      339.791       13.367      866.359
05/20/2013  00:30:00      -57.475       36.446      -10.535       20.968       32.464       17.180      439.675     1053.900      295.150        0.327        0.089       68.056       12.617        0.034      339.690       13.197      866.349
05/20/2013  00:31:00      -40.666       48.247      -11.281       31.723       24.638       12.768     1006.341      607.046      163.013        0.294        0.089       63.100       13.384        0.045      339.754       13.304      866.340
05/20/2013  00:32:00      -55.196       30.097       -6.676       20.431       25.962       21.032      417.416      674.003      442.344        0.277        0.077       62.868       14.003        0.050      339.721       13.250      866.330
05/20/2013  00:33:00      -63.180       29.579       -7.846       32.691       19.270       19.196     1068.715      371.347      368.497        0.337        0.090       69.761       13.152        0.036      339.598       13.041      866.333
05/20/2013  00:34:00      -74.591       49.582      -16.941       27.705       51.755       24.755      767.564     2678.556      612.815        0.618        0.203       89.566       21.418        0.057      339.648       13.126      866.328
05/20/2013  00:35:00      -71.795       -5.418      -13.647       13.484       22.837       13.588      181.825      521.535      184.643        0.313        0.044       71.999        9.218        0.016      339.481       12.845      866.326
05/20/2013  00:36:00      -67.934      -10.109      -14.475       28.652       27.333       16.903      820.956      747.071      285.700        0.339        0.093       68.682       15.444        0.051      339.498       12.874      866.342
05/20/2013  00:37:00      -76.960      -18.404      -11.805       15.072       18.130       14.688      227.162      328.682      215.733        0.359        0.039       79.129        9.279        0.014      339.334       12.597      866.358
05/20/2013  00:38:00      -95.155      -17.002      -14.151       28.905       16.632       15.999      835.471      276.636      255.958        0.546        0.068       96.662       14.785        0.023      339.284       12.511      866.368
05/20/2013  00:39:00      -88.518      -35.759       -7.981       26.513       19.740       11.421      702.930      389.673      130.449        0.520        0.061       95.468        9.725        0.010      339.334       12.596      866.366
05/20/2013  00:40:00      -80.863      -13.505       -7.345       20.364       19.710        9.650      414.689      388.465       93.128        0.384        0.045       81.983        8.983        0.012      339.301       12.539      866.366
05/20/2013  00:41:00      -86.719       -0.625      -13.281       19.788       17.602       11.775      391.578      309.826      138.649        0.427        0.042       86.722        9.958        0.013      339.198       12.366      866.349
05/20/2013  00:42:00      -91.678      -13.782       -7.880       28.182       19.709       16.135      794.232      388.444      260.324        0.505        0.072       92.708       12.756        0.019      339.132       12.254      866.334
05/20/2013  00:43:00      -85.099        1.962       -5.835       38.517       25.542       15.457     1483.585      652.374      238.909        0.483        0.119       85.122       13.286        0.024      339.032       12.087      866.321
05/20/2013  00:44:00     -110.666       -4.582       -6.541       36.175       28.220       20.102     1308.639      796.375      404.110        0.741        0.125      110.761       21.919        0.039      338.911       11.884      866.308
05/20/2013  00:45:00     -115.243       -2.148      -14.637       27.119       18.805       14.655      735.428      353.627      214.759        0.740        0.065      115.263       13.949        0.015      338.876       11.826      866.294
05/20/2013  00:46:00     -100.605      -10.339       -4.195       34.645       23.638       19.610     1200.304      558.752      384.560        0.619        0.107      101.135       20.176        0.040      338.860       11.799      866.279
05/20/2013  00:47:00     -141.451       -3.636      -15.108       30.170       26.067       15.380      910.251      679.473      236.547        1.104        0.091      141.498       11.732        0.007      338.789       11.680      866.260
05/20/2013  00:48:00     -129.652       -0.613       -8.364       36.582       23.429       23.758     1338.217      548.897      564.423        0.967        0.123      129.654       20.460        0.025      338.682       11.500      866.233
05/20/2013  00:49:00     -121.098        2.093      -16.886       31.518       35.470       22.883      993.377     1258.128      523.635        0.886        0.139      121.116       20.467        0.029      338.628       11.408      866.198
05/20/2013  00:50:00     -129.424        5.678      -17.383       36.222       25.915       18.712     1312.053      671.587      350.131        0.971        0.117      129.548       14.457        0.012      338.762       11.633      866.174
05/20/2013  00:51:00     -116.260       -6.867      -14.547       33.724       22.787       15.860     1137.314      519.225      251.544        0.784        0.095      116.463       11.917        0.010      338.715       11.555      866.151
05/20/2013  00:52:00      -96.085       -0.345       -2.188       48.076       29.100       20.136     2311.287      846.782      405.445        0.640        0.178       96.086       22.215        0.053      338.694       11.520      866.141
05/20/2013  00:53:00      -60.437       26.723       -0.440       45.997       28.528       25.078     2115.692      813.867      628.914        0.396        0.178       66.081       24.601        0.139      338.772       11.651      866.135
05/20/2013  00:54:00      -94.845       37.013       -8.871       55.577       32.687       23.014     3088.752     1068.431      529.641        0.756        0.234      101.811       24.747        0.059      338.965       11.975      866.141
05/20/2013  00:55:00      -85.313       49.404      -11.563       28.631       21.206       19.702      819.753      449.709      388.176        0.575        0.083       98.585       16.820        0.029      339.196       12.362      866.160
05/20/2013  00:56:00      -91.578       17.346      -12.809       22.914       25.430       13.656      525.063      646.689      186.480        0.510        0.068       93.207       10.852        0.014      339.074       12.157      866.168
05/20/2013  00:57:00     -120.133       -3.887       -9.470       39.955       27.313       18.021     1596.437      745.983      324.774        0.860        0.133      120.196       18.365        0.023      338.949       11.947      866.168
05/20/2013  00:58:00     -129.238      -14.572      -15.140       40.987       22.119       23.274     1679.942      489.240      541.660        0.993        0.136      130.056       24.836        0.036      338.794       11.686      866.167
05/20/2013  00:59:00     -141.008      -13.617      -15.000       48.403       19.946       17.669     2342.863      397.827      312.202        1.167        0.153      141.664       23.816        0.028      338.789       11.679      866.170
05/20/2013  01:00:00     -127.715       -6.479      -14.626       45.992       22.176       19.821     2115.253      491.761      392.890        0.978        0.150      127.879       24.439        0.037      338.745       11.606      866.155
05/20/2013  01:01:00     -126.721       -0.740      -16.166       35.746       27.613       17.809     1277.784      762.454      317.156        0.934        0.118      126.723       17.344        0.019      338.756       11.623      866.138
05/20/2013  01:02:00     -129.228        0.750      -12.796       35.610       26.243       15.740     1268.085      688.701      247.756        0.953        0.110      129.230       15.920        0.015      338.676       11.491      866.126
05/20/2013  01:03:00     -121.169      -10.883      -11.496       22.313       23.933       15.111      497.864      572.801      228.332        0.812        0.065      121.657        9.574        0.006      338.682       11.499      866.117
05/20/2013  01:04:00     -123.734      -10.709       -9.000       55.404       30.745       21.754     3069.608      945.239      473.223        1.000        0.224      124.196       25.510        0.042      338.635       11.421      866.103
05/20/2013  01:05:00     -119.469      -11.173       -6.432       35.931       36.793       20.489     1291.003     1353.754      419.798        0.875        0.153      119.990       17.215        0.021      338.617       11.391      866.103
05/20/2013  01:06:00     -116.992      -27.585       -3.738       63.763       39.295       27.614     4065.695     1544.063      762.539        1.042        0.319      120.200       31.268        0.068      338.570       11.312      866.100
05/20/2013  01:07:00     -184.238      -16.595      -11.544       45.823       34.736       24.242     2099.703     1206.573      587.651        1.912        0.195      184.984       24.787        0.018      338.536       11.252      866.098
05/20/2013  01:08:00     -137.636      -28.481      -17.915       34.966       37.869       25.356     1222.602     1434.059      642.936        1.169        0.165      140.551       25.378        0.033      338.575       11.320      866.100
05/20/2013  01:09:00     -153.795       -5.541      -21.440       33.731       35.010       20.012     1137.781     1225.705      400.475        1.345        0.138      153.895       12.304        0.006      338.541       11.262      866.125
05/20/2013  01:10:00     -112.966      -13.228       -2.128       57.071       39.941       32.852     3257.116     1595.320     1079.269        0.944        0.297      113.738       34.871        0.094      338.460       11.125      866.143
05/20/2013  01:11:00     -132.637        0.904      -10.904       39.010       37.259       22.051     1521.780     1388.202      486.257        1.055        0.170      132.640       17.718        0.018      338.477       11.154      866.167
05/20/2013  01:12:00     -111.603       -6.445       -5.076       44.173       34.303       19.754     1951.263     1176.671      390.217        0.802        0.176      111.789       19.523        0.031      338.446       11.102      866.190
05/20/2013  01:13:00      -70.501       -7.758        0.400       39.867       26.002       18.299     1589.356      676.096      334.853        0.381        0.130       70.926       21.317        0.090      338.437       11.088      866.200
05/20/2013  01:14:00      -89.153      -21.345      -11.851       25.023       21.258       13.263      626.175      451.896      175.904        0.490        0.063       91.672       10.755        0.014      338.524       11.234      866.210
05/20/2013  01:15:00      -73.155      -31.199       -7.842       21.411       21.797       13.320      458.411      475.121      177.432        0.375        0.056       79.530        7.224        0.008      338.631       11.414      866.219
05/20/2013  01:16:00      -70.750      -41.124       -3.136       17.548       27.780       16.363      307.922      771.707      267.751        0.403        0.067       81.834       10.709        0.017      338.640       11.429      866.205
05/20/2013  01:17:00      -60.149      -22.467       -5.299       20.369       21.569       12.717      414.895      465.208      161.714        0.260        0.052       64.208        8.630        0.018      338.583       11.334      866.205
05/20/2013  01:18:00     -107.377       -7.162       -7.164       28.087       18.792       16.579      788.888      353.129      274.870        0.652        0.071      107.616       12.815        0.014      338.543       11.265      866.195
05/20/2013  01:19:00      -63.371      -19.086        2.318       33.423       23.303       17.672     1117.115      543.011      312.296        0.318        0.099       66.183       18.518        0.078      338.496       11.188      866.189
05/20/2013  01:20:00      -82.427      -17.848       -5.214       31.773       19.370       12.962     1009.548      375.192      168.004        0.435        0.078       84.337       14.553        0.030      338.543       11.266      866.205
05/20/2013  01:21:00      -73.750      -11.366       -0.626       31.995       26.130       17.355     1023.671      682.772      301.194        0.379        0.100       74.621       18.346        0.060      338.524       11.234      866.205
05/20/2013  01:22:00      -70.100      -10.942       -0.505       23.734       20.001       14.214      563.300      400.047      202.050        0.310        0.058       70.948       12.140        0.029      338.521       11.229      866.196
05/20/2013  01:23:00      -72.454       -8.756       -2.033       22.727       18.155       13.334      516.510      329.598      177.808        0.318        0.051       72.981       12.034        0.027      338.543       11.267      866.178
05/20/2013  01:24:00      -91.388      -15.088      -11.446       26.539       14.886       13.552      704.314      221.594      183.644        0.491        0.055       92.625       13.387        0.021      338.529       11.243      866.177
05/20/2013  01:25:00      -82.644      -15.603       -9.588       20.957       17.065       14.859      439.201      291.230      220.778        0.406        0.048       84.104       13.402        0.025      338.466       11.136      866.163
05/20/2013  01:26:00      -99.501      -10.858      -14.499       25.710       12.219       12.300      661.025      149.295      151.298        0.559        0.048      100.092        5.107        0.003      338.476       11.154      866.151
05/20/2013  01:27:00      -83.353      -15.521       -6.080       24.579       14.501       13.020      604.134      210.289      169.524        0.410        0.049       84.786       11.994        0.020      338.486       11.170      866.150
05/20/2013  01:28:00      -91.070       -7.343      -11.376       31.904       14.522       10.078     1017.879      210.890      101.564        0.490        0.067       91.366        6.993        0.006      338.469       11.142      866.146
05/20/2013  01:29:00      -67.717      -11.506       -6.925       30.365       15.861       12.146      922.041      251.565      147.518        0.304        0.066       68.687       12.319        0.032      338.481       11.163      866.134
05/20/2013  01:30:00      -39.322       -3.232       -6.388       43.229       21.807       22.736     1868.761      475.549      516.928        0.223        0.143       39.454       27.864        0.499      338.418       11.057      866.128
05/20/2013  01:31:00      -54.216       -8.712       -8.810       22.743       25.929       11.525      517.256      672.299      132.830        0.221        0.066       54.911       10.287        0.035      338.396       11.021      866.128
05/20/2013  01:32:00      -30.551       -5.233      -15.142       21.720       20.707       10.900      471.756      428.780      118.818        0.110        0.051       30.996        9.946        0.103      338.417       11.053      866.123
05/20/2013  01:33:00      -34.139      -18.251      -12.536       15.315       11.663        8.612      234.535      136.028       74.175        0.105        0.022       38.712        6.181        0.025      338.429       11.074      866.117
05/20/2013  01:34:00      -50.312      -12.027      -11.165       13.690       12.729       11.470      187.408      162.023      131.568        0.164        0.024       51.729        7.351        0.020      338.422       11.063      866.124
05/20/2013  01:35:00      -72.629       -2.310      -17.548       17.870       17.482       13.688      319.355      305.612      187.371        0.320        0.041       72.666        7.930        0.012      338.365       10.966      866.122
05/20/2013  01:36:00      -59.377      -22.276       -6.242       21.835       20.961       16.317      476.788      439.347      266.249        0.262        0.059       63.418       12.495        0.039      338.304       10.864      866.118
05/20/2013  01:37:00      -62.919      -20.487       -1.856       19.752       25.583       14.307      390.158      654.476      204.693        0.282        0.062       66.170        6.985        0.011      338.332       10.911      866.107
05/20/2013  01:38:00     -106.736      -31.708      -10.935       26.770       19.091       15.570      716.624      364.466      242.415        0.692        0.066      111.347       11.161        0.010      338.297       10.853      866.109
05/20/2013  01:39:00      -77.188      -51.963       -6.536       30.733       18.720       11.820      944.533      350.444      139.721        0.507        0.072       93.049        9.851        0.011      338.308       10.871      866.125
05/20/2013  01:40:00      -72.412      -44.930       -1.690       31.682       16.325       14.111     1003.734      266.505      199.129        0.437        0.073       85.218       12.824        0.023      338.313       10.880      866.127
05/20/2013  01:41:00      -71.081      -39.119       -8.714       20.197       14.510       11.878      407.934      210.537      141.083        0.371        0.038       81.134       10.668        0.017      338.383       10.997      866.130
05/20/2013  01:42:00      -43.996      -28.183       -4.285       22.185       13.259       14.023      492.181      175.798      196.657        0.181        0.043       52.249       11.286        0.047      338.427       11.071      866.142
05/20/2013  01:43:00      -41.610      -21.000        0.490       30.817       16.060       12.857      949.659      257.910      165.294        0.177        0.069       46.609       16.056        0.119      338.393       11.015      866.155
05/20/2013  01:44:00      -53.356      -26.295       -4.970       31.849       16.074       13.532     1014.371      258.385      183.109        0.251        0.073       59.484       17.579        0.087      338.435       11.084      866.148
05/20/2013  01:45:00      -85.799      -26.833      -13.356       11.400       15.628        9.681      129.965      244.239       93.723        0.436        0.023       89.897        3.836        0.002      338.454       11.117      866.128
05/20/2013  01:46:00     -103.433      -23.384      -13.413       16.633       14.741       12.006      276.649      217.295      144.150        0.603        0.032      106.044        7.961        0.006      338.418       11.057      866.104
05/20/2013  01:47:00     -105.431      -31.644       -7.956       21.905       20.493       12.645      479.843      419.967      159.892        0.662        0.053      110.078        7.814        0.005      338.367       10.970      866.086
05/20/2013  01:48:00     -109.040      -44.237       -4.476       28.120       18.958       17.224      790.751      359.408      296.652        0.766        0.072      117.672       18.406        0.024      338.414       11.049      866.075
05/20/2013  01:49:00     -100.829      -49.139       -0.742       34.220       25.010       16.122     1170.985      625.506      259.906        0.732        0.103      112.166       18.046        0.026      338.347       10.936      866.058
05/20/2013  01:50:00      -87.263      -38.522       -5.314       30.758       20.384       17.640      946.039      415.493      311.165        0.540        0.084       95.388       15.492        0.026      338.361       10.960      866.043
05/20/2013  01:51:00      -99.141      -29.810      -10.829       15.399       13.995       13.205      237.139      195.851      174.374        0.572        0.030      103.526        8.546        0.007      338.328       10.905      866.039
05/20/2013  01:52:00      -95.496      -26.110       -8.704       21.765       19.824       13.217      473.730      393.008      174.685        0.546        0.052       99.001       10.021        0.010      338.283       10.831      866.041
05/20/2013  01:53:00      -60.936      -25.881       -6.513       22.208       25.815       10.987      493.204      666.389      120.718        0.285        0.064       66.204        4.281        0.004      338.314       10.882      866.036
05/20/2013  01:54:00      -42.718      -27.345        2.537       19.114       24.770       13.994      365.341      613.555      195.824        0.188        0.059       50.720       15.314        0.091      338.353       10.946      866.035
05/20/2013  01:55:00      -55.126      -35.577       -3.418       21.516       17.948       15.083      462.942      322.116      227.499        0.266        0.051       65.610       13.900        0.045      338.333       10.913      866.020
05/20/2013  01:56:00      -78.186      -30.817        2.133       21.737       17.031       13.430      472.480      290.050      180.364        0.400        0.047       84.040        8.482        0.010      338.350       10.943      866.002
05/20/2013  01:57:00      -69.578      -36.131       -5.734       34.542       19.234       17.525     1193.182      369.929      307.124        0.402        0.094       78.400       11.504        0.022      338.322       10.896      865.998
05/20/2013  01:58:00      -62.463      -52.246       -2.199       40.486       29.993       18.021     1639.127      899.571      324.757        0.475        0.143       81.433       20.496        0.063      338.251       10.776      866.001
05/20/2013  01:59:00      -65.349      -55.625        0.999       40.978       29.693       22.681     1679.233      881.670      514.412        0.522        0.154       85.817       23.162        0.073      338.173       10.645      866.000
05/20/2013  02:00:00      -45.435      -45.204        8.731       46.048       31.040       26.352     2120.457      963.487      694.446        0.398        0.189       64.092       29.410        0.211      338.100       10.521      866.002
05/20/2013  02:01:00      -56.855      -51.450       -0.961       37.748       28.770       21.806     1424.893      827.721      475.506        0.430        0.136       76.678       17.164        0.050      338.068       10.470      866.008
05/20/2013  02:02:00      -76.543      -75.166       -5.923       32.656       30.505       16.158     1066.384      930.570      261.065        0.690        0.113      107.280       19.457        0.033      338.095       10.512      866.016
05/20/2013  02:03:00      -57.439      -52.660        5.348       35.812       24.414       19.477     1282.480      596.037      379.367        0.418        0.113       77.925       18.036        0.054      338.051       10.440      866.031
05/20/2013  02:04:00      -65.016      -59.686        5.649       43.380       33.672       25.577     1881.806     1133.781      654.203        0.574        0.183       88.258       30.234        0.117      338.009       10.371      866.029
05/20/2013  02:05:00      -53.156      -49.838       11.845       39.328       36.456       23.835     1546.677     1329.073      568.116        0.445        0.172       72.866       22.986        0.100      337.970       10.306      866.029
05/20/2013  02:06:00      -59.465      -57.155        9.790       46.032       35.582       28.206     2118.927     1266.090      795.588        0.554        0.209       82.479       26.475        0.103      338.009       10.370      866.029
05/20/2013  02:07:00      -81.709      -65.457       -2.563       43.545       32.905       22.861     1896.210     1082.712      522.634        0.723        0.175      104.695       22.711        0.047      338.024       10.394      866.040
05/20/2013  02:08:00      -83.322      -63.487       -2.345       42.911       33.371       21.659     1841.351     1113.608      469.124        0.720        0.171      104.753       22.128        0.045      338.018       10.384      866.058
05/20/2013  02:09:00     -111.812      -57.744       -5.987       24.496       26.300       18.512      600.044      691.698      342.684        0.875        0.082      125.843        9.774        0.006      338.008       10.367      866.062
05/20/2013  02:10:00     -127.139      -53.754       -8.478       37.812       26.365       20.205     1429.720      695.089      408.258        1.083        0.127      138.036       15.046        0.012      338.009       10.369      866.054
05/20/2013  02:11:00     -139.697      -19.601       -8.786       35.194       33.980       23.161     1238.636     1154.651      536.428        1.145        0.146      141.065       20.165        0.020      337.992       10.341      866.051
05/20/2013  02:12:00     -120.307      -25.163        1.843       37.421       31.975       22.772     1400.296     1022.381      518.575        0.903        0.147      122.911       16.211        0.017      337.936       10.247      866.041
05/20/2013  02:13:00     -141.809      -40.258       -8.381       29.389       31.450       20.592      863.705      989.074      424.040        1.204        0.114      147.412       15.045        0.010      337.948       10.268      866.027
05/20/2013  02:14:00     -144.725      -30.439      -10.579       29.663       37.015       19.950      879.866     1370.141      397.983        1.232        0.132      147.891       19.519        0.017      337.960       10.287      866.013
05/20/2013  02:15:00     -107.218      -62.855      -10.154       30.182       26.223       15.616      910.956      687.636      243.850        0.870        0.092      124.284       12.047        0.009      337.924       10.226      866.004
05/20/2013  02:16:00     -105.155      -30.461       -6.966       41.526       40.234       22.257     1724.378     1618.758      495.391        0.794        0.192      109.478       20.815        0.036      337.946       10.264      866.000
05/20/2013  02:17:00     -118.468      -10.476       -8.813       44.087       32.263       26.116     1943.657     1040.880      682.039        0.894        0.183      118.930       25.981        0.048      337.807       10.032      865.974
05/20/2013  02:18:00     -104.505      -36.748       -4.721       36.104       30.314       21.738     1303.503      918.924      472.533        0.749        0.135      110.778       18.474        0.028      337.826       10.061      865.952
05/20/2013  02:19:00      -90.472      -39.543        2.784       35.530       33.381       21.732     1262.407     1114.289      472.284        0.630        0.142       98.736       10.894        0.012      337.808       10.032      865.942
05/20/2013  02:20:00      -51.138      -47.250       -4.492       46.021       25.046       19.698     2117.908      627.317      388.020        0.400        0.157       69.625       19.151        0.076      337.945       10.263      865.940
05/20/2013  02:21:00      -28.188      -12.177        4.346       49.551       26.635       20.082     2455.284      709.439      403.293        0.226        0.178       30.706       25.090        0.668      337.916       10.213      865.933
05/20/2013  02:22:00      -31.460       -7.222       -3.622       33.564       15.082       11.795     1126.553      227.466      139.128        0.127        0.075       32.279        7.116        0.049      337.783        9.990      865.943
05/20/2013  02:23:00      -71.300      -15.025      -11.811       26.273       16.106       14.579      690.264      259.389      212.546        0.331        0.058       72.866       13.867        0.036      337.967       10.299      865.948
05/20/2013  02:24:00      -84.117        9.160      -11.200       33.753       24.263       19.453     1139.269      588.691      378.438        0.470        0.105       84.614       15.919        0.035      337.968       10.299      865.949
05/20/2013  02:25:00      -67.804      -17.229       -5.120       25.143       14.054       10.815      632.172      197.512      116.973        0.293        0.047       69.959        8.527        0.015      338.020       10.388      865.946
05/20/2013  02:26:00      -87.521      -15.977       -9.710       34.238       24.479       18.285     1172.226      599.240      334.330        0.506        0.105       88.967       18.335        0.042      337.994       10.344      865.938
05/20/2013  02:27:00     -147.855       10.859      -20.308       35.750       28.156       23.380     1278.028      792.758      546.608        1.250        0.131      148.254       20.176        0.019      337.826       10.062      865.913
05/20/2013  02:28:00     -116.932      -13.763      -12.017       31.540       25.232       21.939      994.766      636.649      481.327        0.806        0.106      117.739       14.020        0.014      337.863       10.124      865.885
05/20/2013  02:29:00     -139.687      -38.201      -10.868       46.131       32.020       21.710     2128.086     1025.280      471.341        1.236        0.181      144.816       12.890        0.008      337.868       10.132      865.874
05/20/2013  02:30:00     -109.892      -39.892       -0.276       31.927       37.739       19.500     1019.327     1424.197      380.265        0.825        0.141      116.909       12.608        0.012      337.840       10.086      865.882
05/20/2013  02:31:00      -34.373       -7.355        3.244       32.973       25.811       17.627     1087.238      666.203      310.717        0.165        0.103       35.151       16.359        0.217      337.787        9.996      865.888
05/20/2013  02:32:00      -84.370      -43.090      -11.200       26.226       27.854       16.904      687.785      775.873      285.759        0.542        0.087       94.737       13.389        0.020      337.914       10.209      865.892
05/20/2013  02:33:00      -24.848      -11.769        0.888       36.566       24.688       16.288     1337.063      609.513      265.300        0.148        0.111       27.494        9.927        0.130      337.928       10.233      865.910
05/20/2013  02:34:00      -60.640      -38.950       -7.403       46.001       29.320       15.628     2116.134      859.663      244.225        0.423        0.161       72.072       18.071        0.063      337.939       10.252      865.904
05/20/2013  02:35:00      -42.463      -34.027        5.432       61.699       36.148       31.226     3806.707     1306.650      975.039        0.454        0.304       54.414       33.852        0.387      337.907       10.199      865.888
05/20/2013  02:36:00     -114.316      -39.566      -15.919       49.669       29.517       20.097     2466.975      871.256      403.899        0.931        0.187      120.970       17.452        0.021      337.880       10.152      865.889
05/20/2013  02:37:00     -104.584      -56.552      -10.178       43.316       28.821       18.045     1876.275      830.661      325.622        0.864        0.152      118.895        7.045        0.004      337.800       10.019      865.888
05/20/2013  02:38:00      -12.346      -43.662       12.982       36.616       26.421       22.656     1340.705      698.085      513.278        0.239        0.128       45.374       16.718        0.136      337.860       10.120      865.882
05/20/2013  02:39:00     -102.058      -54.456        4.479       61.133       37.897       29.073     3737.291     1436.216      845.250        0.971        0.301      115.677       27.301        0.056      337.786        9.996      865.890
05/20/2013  02:40:00      -96.084      -52.546       -7.960       22.654       32.670       20.540      513.209     1067.340      421.890        0.703        0.100      109.514       10.451        0.009      337.885       10.161      865.902
05/20/2013  02:41:00     -103.561      -10.148       -4.549       33.105       27.384       17.047     1095.941      749.877      290.588        0.649        0.107      104.057       16.808        0.026      337.877       10.148      865.895
05/20/2013  02:42:00      -93.743      -11.845       -4.484       29.470       37.233       20.681      868.507     1386.333      427.712        0.581        0.134       94.488       17.265        0.033      337.837       10.081      865.888
05/20/2013  02:43:00     -117.381        2.191      -13.019       32.729       24.312       18.724     1071.159      591.052      350.604        0.798        0.101      117.401       15.107        0.017      337.732        9.906      865.876
05/20/2013  02:44:00     -103.073      -34.758       -9.313       33.844       26.948       13.649     1145.383      726.212      186.282        0.699        0.103      108.775       12.378        0.013      337.733        9.907      865.871
05/20/2013  02:45:00     -117.798      -66.480      -12.089       43.210       22.001       19.054     1867.107      484.055      363.039        1.058        0.136      135.262       20.926        0.024      337.722        9.889      865.854
05/20/2013  02:46:00      -26.923      -23.984        5.338       44.724       30.278       22.508     2000.203      916.769      506.598        0.238        0.171       36.057       21.738        0.363      337.745        9.927      865.841
05/20/2013  02:47:00      -27.094      -35.368        1.206       46.622       30.618       18.851     2173.626      937.458      355.343        0.273        0.173       44.553       18.177        0.166      337.739        9.917      865.859
05/20/2013  02:48:00      -82.485      -41.611      -10.840       30.617       26.233       16.352      937.397      688.175      267.375        0.527        0.095       92.387        4.211        0.002      337.719        9.882      865.882
05/20/2013  02:49:00      -75.225      -28.529      -12.316       29.194       23.922       18.354      852.290      572.276      336.876        0.419        0.088       80.453       13.442        0.028      337.747        9.931      865.898
05/20/2013  02:50:00     -115.741      -19.321      -15.803       17.165       17.599       14.915      294.633      309.732      222.460        0.742        0.041      117.343        8.513        0.005      337.667        9.798      865.907
05/20/2013  02:51:00     -106.597      -19.083      -13.975       19.854       18.657       14.350      394.184      348.069      205.913        0.644        0.047      108.292       13.392        0.015      337.701        9.853      865.913
05/20/2013  02:52:00     -113.823      -24.970      -14.191       21.684       21.322       10.784      470.216      454.622      116.297        0.741        0.052      116.530        8.512        0.005      337.660        9.784      865.913
05/20/2013  02:53:00      -96.078      -50.338      -15.360       23.764       26.754       17.234      564.706      715.791      297.019        0.679        0.079      108.466       16.839        0.024      337.644        9.758      865.905
05/20/2013  02:54:00      -52.309      -27.372       -0.430       31.972       29.985       23.702     1022.210      899.108      561.797        0.298        0.124       59.038       24.121        0.167      337.676        9.811      865.913
05/20/2013  02:55:00      -60.423      -29.791      -14.719       38.916       25.394       19.928     1514.431      644.844      397.124        0.366        0.128       67.368       19.013        0.080      337.748        9.932      865.934
05/20/2013  02:56:00      -63.439      -26.637       -8.977       33.790       18.226       16.577     1141.797      332.195      274.783        0.328        0.087       68.804       15.400        0.050      337.744        9.925      865.955
05/20/2013  02:57:00      -79.908      -37.907       -8.830       21.595       30.098       21.210      466.357      905.872      449.852        0.486        0.091       88.443       16.803        0.036      337.737        9.913      865.958
05/20/2013  02:58:00      -87.200      -28.727       -6.047       41.133       34.819       18.440     1691.947     1212.337      340.018        0.585        0.162       91.810       16.756        0.033      337.706        9.860      865.968
05/20/2013  02:59:00      -99.121      -30.061       -5.237       42.494       34.345       18.137     1805.741     1179.571      328.937        0.703        0.166      103.580       19.566        0.036      337.694        9.841      865.985
05/20/2013  03:00:00      -80.557        3.173      -10.924       26.175       28.791       19.667      685.136      828.920      386.785        0.426        0.095       80.619       14.356        0.032      337.624        9.724      865.997
05/20/2013  03:01:00      -84.438      -22.420       -6.064       41.684       31.108       20.228     1737.593      967.686      409.172        0.539        0.156       87.364       14.741        0.028      337.627        9.728      865.987
05/20/2013  03:02:00     -103.463      -28.253      -11.686       59.827       25.459       16.161     3579.323      648.161      261.169        0.806        0.224      107.252        7.964        0.006      337.598        9.679      865.991
05/20/2013  03:03:00       -3.067      -11.499        4.526       38.347       18.747       19.419     1470.471      351.443      377.117        0.118        0.110       11.901       19.804        2.769      337.570        9.634      866.010
05/20/2013  03:04:00      -83.631      -60.094      -11.354       50.620       39.720       28.749     2562.336     1577.683      826.501        0.785        0.248      102.983       24.783        0.058      337.580        9.651      866.028
05/20/2013  03:05:00      -95.776      -33.815       -4.209       45.836       37.160       18.719     2100.899     1380.875      350.413        0.708        0.192      101.570       12.278        0.015      337.515        9.542      866.047
05/20/2013  03:06:00      -81.221      -19.044       -9.685       53.897       30.892       19.258     2904.936      954.301      370.870        0.564        0.212       83.423       23.867        0.082      337.510        9.533      866.068
05/20/2013  03:07:00      -76.235      -20.683      -15.800       50.129       18.715       14.852     2512.870      350.268      220.582        0.479        0.154       78.991       14.016        0.031      337.516        9.544      866.097
05/20/2013  03:08:00      -88.509       -1.841      -12.939       38.544       22.614       17.694     1485.628      511.375      313.064        0.516        0.116       88.529       17.437        0.039      337.572        9.636      866.115
05/20/2013  03:09:00      -52.830      -27.334       -7.249       38.952       19.065       25.450     1517.265      363.462      647.683        0.306        0.126       59.483       24.541        0.170      337.510        9.534      866.129
05/20/2013  03:10:00      -65.726      -17.082       -8.921       28.957       29.141       21.451      838.532      849.210      460.142        0.342        0.107       67.909       10.916        0.026      337.628        9.732      866.134
05/20/2013  03:11:00       -8.131      -34.978        5.020       39.737       22.456       25.868     1579.067      504.292      669.131        0.203        0.138       35.911       18.455        0.264      337.554        9.606      866.141
05/20/2013  03:12:00      -23.413      -31.099        9.569       42.277       28.261       22.916     1787.382      798.683      525.156        0.236        0.156       38.927       18.017        0.214      337.519        9.547      866.126
05/20/2013  03:13:00      -66.341      -24.041       -6.368       33.456       23.706       23.360     1119.321      561.977      545.692        0.362        0.111       70.562       20.811        0.087      337.541        9.584      866.115
05/20/2013  03:14:00      -76.274      -16.738       -7.891       20.795       34.948       20.504      432.431     1221.340      420.397        0.412        0.104       78.089       12.168        0.024      337.584        9.658      866.113
05/20/2013  03:15:00     -113.742      -17.338      -14.181       24.800       19.251       11.338      615.036      370.587      128.541        0.728        0.056      115.056        9.355        0.007      337.540        9.583      866.119
05/20/2013  03:16:00      -78.727      -50.197      -15.839       14.558       25.908       12.563      211.937      671.226      157.824        0.500        0.052       93.368        5.644        0.004      337.530        9.567      866.107
05/20/2013  03:17:00      -55.002      -45.528       -3.935       35.523       31.167       21.271     1261.898      971.362      452.461        0.390        0.134       71.400       18.857        0.070      337.515        9.542      866.088
05/20/2013  03:18:00      -33.898      -44.681        0.230       24.434       36.663       22.126      597.006     1344.210      489.562        0.279        0.122       56.085       16.507        0.087      337.507        9.526      866.075
05/20/2013  03:19:00      -58.626      -48.752       -9.621       26.537       28.106       26.967      704.219      789.971      727.214        0.406        0.111       76.248       14.047        0.034      337.530        9.567      866.065
05/20/2013  03:20:00      -93.446      -31.425      -12.567       20.594       30.200       17.901      424.098      912.014      320.462        0.577        0.083       98.588       12.980        0.017      337.534        9.572      866.049
05/20/2013  03:21:00      -83.734      -15.434      -16.592       28.909       25.165       20.335      835.727      633.287      413.493        0.470        0.094       85.144       14.405        0.029      337.485        9.492      866.032
05/20/2013  03:22:00      -82.462      -29.941       -8.520       19.908       22.971       14.586      396.335      527.661      212.741        0.445        0.057       87.730       12.155        0.019      337.539        9.582      866.026
05/20/2013  03:23:00      -80.353      -72.693      -16.919       21.072       34.529       17.213      444.046     1192.227      296.296        0.698        0.097      108.355       10.751        0.010      337.552        9.603      866.021
05/20/2013  03:24:00      -98.286      -63.096      -15.855       25.861       22.037       18.635      668.777      485.613      347.265        0.770        0.075      116.796        9.438        0.007      337.477        9.477      866.001
05/20/2013  03:25:00     -121.449      -50.336       -8.563       42.177       31.249       25.563     1778.903      976.522      653.449        1.038        0.170      131.467       24.229        0.034      337.449        9.431      865.988
05/20/2013  03:26:00      -62.525      -56.184       -6.013       47.467       27.588       27.920     2253.163      761.123      779.548        0.545        0.190       84.059       28.027        0.111      337.464        9.454      865.983
05/20/2013  03:27:00      -77.777      -40.626      -14.404       38.174       45.398       23.843     1457.290     2060.948      568.508        0.600        0.204       87.748       15.719        0.032      337.454        9.439      865.982
05/20/2013  03:28:00      -72.591      -20.402       -8.891       54.493       38.205       21.787     2969.486     1459.588      474.663        0.533        0.245       75.404       22.824        0.092      337.471        9.467      865.972
05/20/2013  03:29:00      -97.614      -10.110      -18.249       31.036       24.871       17.097      963.205      618.553      292.312        0.592        0.094       98.136       12.163        0.015      337.492        9.503      865.957
05/20/2013  03:30:00      -57.638      -24.963       -4.204       22.410       39.531       15.332      502.216     1562.678      235.074        0.313        0.115       62.812       16.790        0.071      337.477        9.477      865.935
05/20/2013  03:31:00      -87.017       -9.086      -12.303       20.051       24.682       12.034      402.062      609.216      144.825        0.448        0.058       87.490        7.672        0.008      337.507        9.528      865.929
05/20/2013  03:32:00      -87.195      -16.223      -11.505       21.549       16.639       13.118      464.346      276.846      172.087        0.446        0.046       88.692       10.351        0.014      337.456        9.442      865.913
05/20/2013  03:33:00      -99.369      -31.303      -17.156       19.401       19.063       14.977      376.397      363.393      224.318        0.606        0.048      104.183       11.583        0.012      337.499        9.514      865.903
05/20/2013  03:34:00      -99.895      -29.767      -11.113       36.025       24.365       21.015     1297.807      593.654      441.630        0.666        0.117      104.236       20.340        0.038      337.490        9.498      865.887
05/20/2013  03:35:00      -28.831      -28.089       -6.335       55.104       21.998       27.312     3036.443      483.893      745.959        0.296        0.213       40.252       32.085        0.635      337.424        9.389      865.896
05/20/2013  03:36:00      -25.995      -29.677        8.322       48.702       23.878       27.364     2371.915      570.173      748.781        0.266        0.185       39.452       28.780        0.532      337.369        9.297      865.905
05/20/2013  03:37:00      -85.685      -46.074      -18.036       24.373       22.231       15.770      594.040      494.228      248.696        0.556        0.067       97.287        7.467        0.006      337.388        9.327      865.913
05/20/2013  03:38:00      -87.300      -60.036      -18.198       35.354       25.926       13.912     1249.870      672.170      193.536        0.684        0.106      105.952        7.749        0.005      337.399        9.347      865.938
05/20/2013  03:39:00      -81.157      -74.960       -9.252       28.562       27.322       24.504      815.793      746.467      600.447        0.723        0.108      110.479       15.107        0.019      337.365        9.288      865.977
05/20/2013  03:40:00      -31.748      -35.323        9.779       48.126       31.776       28.772     2316.142     1009.684      827.854        0.325        0.208       47.494       26.467        0.311      337.338        9.246      865.999
05/20/2013  03:41:00     -103.121      -58.137       -8.712       26.634       29.937       20.053      709.351      896.197      402.120        0.805        0.100      118.380       13.357        0.013      337.341        9.250      866.021
05/20/2013  03:42:00     -111.823      -41.974      -14.778       28.802       24.209       11.112      829.543      586.063      123.469        0.801        0.077      119.442        6.919        0.003      337.311        9.198      866.029
05/20/2013  03:43:00     -118.396      -59.195      -13.891       33.228       24.563       14.834     1104.113      603.318      220.054        0.982        0.096      132.370        9.774        0.005      337.328        9.229      866.046
05/20/2013  03:44:00     -104.939      -79.691       -7.298       27.869       26.362       20.381      776.669      694.949      415.391        0.965        0.094      131.768       16.594        0.016      337.320        9.213      866.066
05/20/2013  03:45:00      -65.586      -32.855        8.295       46.052       37.584       23.316     2120.801     1412.588      543.645        0.476        0.204       73.356       23.826        0.105      337.322        9.216      866.073
05/20/2013  03:46:00     -114.760      -31.301       -6.717       30.807       41.394       19.279      949.059     1713.472      371.665        0.861        0.152      118.952       17.119        0.021      337.325        9.222      866.082
05/20/2013  03:47:00     -121.210      -32.088       -1.431       48.449       40.924       21.462     2347.293     1674.737      460.626        1.010        0.224      125.385       20.047        0.026      337.250        9.097      866.101
05/20/2013  03:48:00     -103.666      -34.908       -1.422       55.205       50.864       29.439     3047.552     2587.194      866.640        0.923        0.325      109.386       28.464        0.068      337.206        9.026      866.109
05/20/2013  03:49:00     -109.461      -51.278       -5.967       30.292       26.872       17.491      917.599      722.103      305.947        0.830        0.097      120.876        9.006        0.006      337.223        9.053      866.112
05/20/2013  03:50:00      -80.952      -40.545       -0.244       43.265       51.908       26.790     1871.900     2694.414      717.679        0.674        0.264       90.538       19.348        0.046      337.248        9.094      866.122
05/20/2013  03:51:00        2.819       -8.578        2.633       21.806       15.662       16.040      475.523      245.301      257.273        0.053        0.049        9.029       12.047        1.780      337.342        9.252      866.157
05/20/2013  03:52:00      -34.300       -1.191      -11.357       33.613       24.264       16.831     1129.853      588.721      283.297        0.165        0.100       34.321       13.887        0.164      337.306        9.190      866.181
05/20/2013  03:53:00      -28.677      -15.627        4.242       35.100       25.982       19.995     1232.045      675.080      399.785        0.170        0.115       32.658       14.147        0.188      337.271        9.131      866.214
05/20/2013  03:54:00      -69.692      -13.686       -3.132       32.253       30.512       19.517     1040.268      930.972      380.907        0.370        0.118       71.023       18.506        0.068      337.318        9.212      866.253
05/20/2013  03:55:00      -62.682      -20.611       -6.092       26.448       22.450       18.304      699.491      504.010      335.022        0.296        0.077       65.983       12.925        0.038      337.269        9.128      866.274
05/20/2013  03:56:00      -38.742       -3.596        8.438       27.937       17.919       19.844      780.484      321.100      393.775        0.154        0.075       38.908       17.228        0.196      337.245        9.088      866.284
05/20/2013  03:57:00      -44.698       -7.120        3.258       41.618       24.523       22.047     1732.029      601.361      486.088        0.244        0.141       45.262       14.454        0.102      337.250        9.097      866.289
05/20/2013  03:58:00      -11.154      -16.233       -9.582       35.685       24.144       16.266     1273.385      582.945      264.578        0.130        0.106       19.696       15.373        0.609      337.264        9.121      866.309
05/20/2013  03:59:00        0.591      -25.275       -1.648       25.388       24.226       17.935      644.553      586.891      321.656        0.110        0.078       25.282       12.525        0.245      337.262        9.117      866.339
05/20/2013  04:00:00      -20.605      -12.888       -2.354       43.952       27.313       20.305     1931.812      746.011      412.274        0.184        0.155       24.304       19.628        0.652      337.262        9.118      866.363
05/20/2013  04:01:00      -90.435       -0.435      -14.520       21.384       26.254       15.234      457.285      689.293      232.064        0.488        0.069       90.436       11.853        0.017      337.330        9.231      866.392
05/20/2013  04:02:00     -128.631      -22.950      -16.085       29.829       26.780       17.750      889.797      717.177      315.062        0.963        0.096      130.662       15.810        0.015      337.368        9.295      866.411
05/20/2013  04:03:00     -114.726       -2.214      -13.105       53.600       35.945       23.480     2872.962     1292.017      551.290        0.903        0.236      114.747       25.630        0.050      337.230        9.063      866.416
05/20/2013  04:04:00     -115.316       -4.723      -18.234       48.814       36.618       20.889     2382.776     1340.842      436.360        0.891        0.208      115.412       16.480        0.020      337.210        9.030      866.411
05/20/2013  04:05:00      -64.388      -12.863       -6.348       36.907       29.447       20.974     1362.128      867.108      439.903        0.351        0.133       65.660       24.993        0.145      337.275        9.139      866.416
05/20/2013  04:06:00     -102.328        9.657       -4.910       37.795       29.094       22.242     1428.476      846.448      494.714        0.668        0.138      102.782       15.798        0.024      337.261        9.117      866.419
05/20/2013  04:07:00      -74.725      -12.005       -4.455       26.174       34.699       17.703      685.067     1204.000      313.401        0.397        0.110       75.684        8.726        0.013      337.271        9.133      866.418
05/20/2013  04:08:00      -78.202      -23.301       -4.153       51.237       28.886       21.313     2625.218      834.387      454.256        0.529        0.196       81.600       23.382        0.082      337.232        9.068      866.399
05/20/2013  04:09:00     -107.466        1.046       -6.484       40.033       34.197       22.260     1602.642     1169.402      495.520        0.743        0.163      107.471       19.425        0.033      337.121        8.881      866.386
05/20/2013  04:10:00      -98.203       -0.383      -18.806       32.055       24.913       21.268     1027.539      620.637      452.333        0.605        0.105       98.204       13.990        0.020      337.122        8.883      866.372
05/20/2013  04:11:00      -70.544       -4.445      -12.754       27.815       30.686       16.925      773.667      941.607      286.446        0.358        0.100       70.684       14.432        0.042      337.132        8.899      866.364
05/20/2013  04:12:00      -62.340        5.190       -5.132       20.531       19.219       13.544      421.532      369.382      183.440        0.246        0.049       62.555       10.247        0.027      337.101        8.846      866.339
05/20/2013  04:13:00      -57.680      -10.933       -9.518       12.476       11.628        7.927      155.649      135.201       62.841        0.195        0.018       58.707        6.027        0.011      337.214        9.039      866.302
05/20/2013  04:14:00      -34.852       -5.544       -7.031       15.102        8.764       10.243      228.080       76.810      104.921        0.085        0.020       35.291        6.423        0.033      337.275        9.140      866.284
05/20/2013  04:15:00      -54.375      -10.223       -1.344       11.662       17.639       16.764      135.995      311.142      281.036        0.190        0.036       55.328        7.977        0.021      337.431        9.401      866.263
05/20/2013  04:16:00      -76.144      -23.706      -11.512       12.353       11.854        7.903      152.604      140.520       62.464        0.342        0.018       79.749        3.732        0.002      337.317        9.209      866.256
05/20/2013  04:17:00      -78.804      -21.648       -9.668       16.124       15.260       13.379      259.993      232.858      179.008        0.372        0.034       81.723        8.016        0.010      337.276        9.141      866.248
05/20/2013  04:18:00      -89.096      -14.241       -8.052       21.536       19.804       11.314      463.811      392.203      128.015        0.459        0.049       90.227        7.320        0.007      337.255        9.105      866.236
05/20/2013  04:19:00      -83.848       -4.563       -5.203       20.948       14.890       12.711      438.832      221.705      161.580        0.395        0.041       83.973       10.412        0.015      337.165        8.955      866.240
05/20/2013  04:20:00      -79.143      -17.002       -5.915       10.564       12.005        8.261      111.605      144.119       68.245        0.346        0.016       80.948        4.893        0.004      337.243        9.086      866.245
05/20/2013  04:21:00      -40.644      -27.129      -11.160       35.510       11.506        8.298     1260.961      132.388       68.854        0.199        0.073       48.866        8.030        0.027      337.268        9.127      866.238
05/20/2013  04:22:00       10.550      -26.060        2.927       11.093        9.372        9.591      123.053       87.838       91.995        0.055        0.015       28.114        6.501        0.053      337.285        9.156      866.238
05/20/2013  04:23:00      -30.309      -18.198       -0.260       14.173       12.935       15.177      200.868      167.317      230.327        0.092        0.030       35.353       10.826        0.094      337.288        9.161      866.232
05/20/2013  04:24:00      -75.711      -29.387       -6.409       20.473       18.164       11.443      419.156      329.924      130.938        0.376        0.044       81.214        6.792        0.007      337.305        9.190      866.236
05/20/2013  04:25:00      -34.081      -33.251        4.916       31.797       25.616       17.131     1011.029      656.197      293.462        0.213        0.098       47.614       10.967        0.053      337.249        9.097      866.249
05/20/2013  04:26:00      -63.485      -36.036        0.102       29.546       17.032       13.572      872.953      290.098      184.208        0.334        0.067       73.000       13.797        0.036      337.142        8.915      866.270
05/20/2013  04:27:00      -71.550      -21.585       -6.119       19.639       12.671       11.841      385.706      160.549      140.213        0.315        0.034       74.735        7.463        0.010      337.161        8.949      866.285
05/20/2013  04:28:00      -89.962      -35.135       -6.440       22.570       19.227       13.590      509.393      369.661      184.679        0.522        0.053       96.579       10.305        0.011      337.042        8.749      866.296
05/20/2013  04:29:00      -87.430      -38.058      -10.322       12.772       18.502       10.138      163.131      342.338      102.783        0.490        0.030       95.354        5.955        0.004      337.106        8.855      866.306
05/20/2013  04:30:00     -106.200      -34.061       -7.400       13.028       19.082       11.589      169.722      364.113      134.297        0.658        0.033      111.528        7.244        0.004      337.125        8.887      866.322
05/20/2013  04:31:00      -87.486      -38.090      -11.819       21.655       11.319       10.305      468.960      128.123      106.201        0.497        0.035       95.418        6.635        0.005      337.003        8.683      866.338
05/20/2013  04:32:00      -66.129      -39.392       -4.058       27.099       14.404       14.087      734.356      207.473      198.435        0.354        0.057       76.973       10.443        0.018      337.013        8.699      866.364
05/20/2013  04:33:00      -46.596      -27.055        1.971       31.099       14.249       15.241      967.123      203.043      232.284        0.215        0.070       53.881       14.096        0.068      337.018        8.708      866.372
05/20/2013  04:34:00      -77.317      -31.142       -9.574       13.299       11.973        9.095      176.859      143.361       82.720        0.372        0.020       83.353        5.217        0.004      337.116        8.872      866.370
05/20/2013  04:35:00      -95.381      -36.524       -9.527       18.584       16.096       12.607      345.360      259.077      158.934        0.564        0.038      102.135        6.306        0.004      337.158        8.943      866.359
05/20/2013  04:36:00      -91.103      -44.302       -4.922       14.612       14.479       11.847      213.524      209.650      140.343        0.542        0.028      101.303        6.639        0.004      337.001        8.679      866.351
05/20/2013  04:37:00      -84.615      -40.104       -3.027       23.570       23.218       17.339      555.558      539.070      300.627        0.509        0.070       93.637       16.597        0.031      336.962        8.611      866.359
05/20/2013  04:38:00     -122.036      -56.456       -3.726       20.668       18.288       12.831      427.182      334.468      164.640        0.951        0.046      134.462       10.873        0.007      336.934        8.567      866.368
05/20/2013  04:39:00     -123.230      -46.851       -4.971       36.001       17.649       14.705     1296.072      311.503      216.236        0.961        0.091      131.836       12.508        0.009      336.970        8.628      866.374
05/20/2013  04:40:00     -109.166      -65.102       -6.957       21.904       22.314       17.156      479.781      497.931      294.319        0.874        0.064      127.104       12.647        0.010      336.949        8.592      866.389
05/20/2013  04:41:00      -91.863      -37.700       -8.100       20.780       20.099       13.829      431.821      403.950      191.246        0.548        0.051       99.298        6.931        0.005      336.908        8.523      866.402
05/20/2013  04:42:00     -127.035      -45.804      -10.230       25.593       29.574       13.528      654.985      874.610      183.008        1.003        0.086      135.040       11.866        0.008      336.903        8.516      866.408
05/20/2013  04:43:00     -107.212      -60.411       -4.572       34.102       25.893       21.245     1162.959      670.434      451.356        0.872        0.114      123.061       16.949        0.019      336.869        8.460      866.422
05/20/2013  04:44:00      -75.567      -23.956       -8.648       33.515       29.399       12.293     1123.232      864.289      151.115        0.425        0.107       79.273        8.824        0.012      336.816        8.372      866.453
05/20/2013  04:45:00      -61.133      -24.374       -9.779       25.296       19.425       11.342      639.889      377.331      128.645        0.279        0.057       65.813       13.368        0.041      336.802        8.349      866.471
05/20/2013  04:46:00      -57.695      -17.736       -6.668       16.878       14.724        9.185      284.872      216.794       84.357        0.214        0.029       60.360        6.860        0.013      336.869        8.460      866.473
05/20/2013  04:47:00      -67.410      -12.647       -8.743       23.959       19.608       13.321      574.030      384.480      177.460        0.296        0.057       68.586        9.104        0.018      336.851        8.431      866.456
05/20/2013  04:48:00      -21.216      -11.484        0.337       18.682       15.758        9.739      349.032      248.310       94.841        0.064        0.035       24.125        9.714        0.162      336.882        8.481      866.440
05/20/2013  04:49:00      -33.491       -6.840       -4.694       18.801       20.502       11.833      353.469      420.345      140.024        0.105        0.046       34.182        8.405        0.060      336.982        8.646      866.427
05/20/2013  04:50:00      -80.523        5.220      -10.710       19.439       21.701       14.961      377.878      470.952      223.820        0.385        0.054       80.692       12.251        0.023      336.997        8.673      866.425
05/20/2013  04:51:00      -41.082      -12.684       -9.688       32.554       15.416       10.126     1059.735      237.651      102.537        0.167        0.070       42.995        8.826        0.042      336.928        8.557      866.418
05/20/2013  04:52:00      -13.672       -4.345       -4.093       14.725        8.796        5.406      216.840       77.366       29.227        0.027        0.016       14.346        4.949        0.119      336.898        8.509      866.417
05/20/2013  04:53:00      -39.801       -5.337       -3.789       13.567        8.728        6.885      184.054       76.184       47.409        0.097        0.015       40.157        5.015        0.016      337.119        8.877      866.410
05/20/2013  04:54:00      -28.449      -10.742        1.511       11.008       12.602        8.936      121.180      158.815       79.848        0.064        0.018       30.409        7.453        0.060      337.177        8.974      866.420
05/20/2013  04:55:00      -27.581       -2.674        1.671       10.107       13.759        6.772      102.145      189.308       45.855        0.055        0.017       27.710        4.116        0.022      337.204        9.023      866.416
05/20/2013  04:56:00      -33.509        3.829       -4.968        8.043        6.159        6.125       64.689       37.933       37.513        0.065        0.007       33.727        3.617        0.012      337.118        8.877      866.410
05/20/2013  04:57:00      -16.340       -5.784       -2.647        6.439        6.708        7.533       41.466       44.997       56.748        0.023        0.007       17.333        4.102        0.056      337.087        8.824      866.408
05/20/2013  04:58:00       22.210        4.562       -0.687       21.083       11.117        7.756      444.485      123.590       60.153        0.057        0.031       22.674        2.085        0.008      337.184        8.986      866.416
05/20/2013  04:59:00       38.980       37.875        7.245       14.482       12.141       10.522      209.730      147.403      110.723        0.174        0.023       54.350        6.101        0.013      337.107        8.858      866.428
05/20/2013  05:00:00        3.090       20.256        4.168       17.078       10.828       13.797      291.670      117.245      190.352        0.052        0.030       20.490        2.938        0.021      337.077        8.808      866.427
05/20/2013  05:01:00        0.246       -1.140       -2.899        9.940        7.606        7.986       98.801       57.850       63.772        0.012        0.011        1.167        6.567       31.686      337.041        8.747      866.420
05/20/2013  05:02:00       20.480       -0.943       -9.875       12.971       15.133        9.120      168.245      229.019       83.177        0.050        0.024       20.502        5.646        0.076      337.252        9.102      866.414
05/20/2013  05:03:00       22.142        7.387        7.443       10.468       12.138       10.404      109.577      147.321      108.243        0.048        0.018       23.342       10.087        0.187      337.226        9.059      866.411
05/20/2013  05:04:00       10.643        7.670        4.977        8.267        8.658        7.601       68.348       74.968       57.769        0.020        0.010       13.119        6.950        0.281      337.140        8.916      866.412
05/20/2013  05:05:00       -1.230       14.199       -2.496       11.280       10.228        8.247      127.238      104.606       68.014        0.025        0.015       14.252        4.788        0.113      337.160        8.946      866.407
05/20/2013  05:06:00      -12.313        4.350        1.945       13.907       15.269        7.068      193.413      233.129       49.953        0.033        0.024       13.059        4.997        0.146      337.183        8.986      866.402
05/20/2013  05:07:00      -40.154       -3.323       -7.775        8.616        7.278        5.165       74.231       52.975       26.676        0.092        0.008       40.291        3.651        0.008      337.181        8.981      866.395
05/20/2013  05:08:00      -37.737       -9.116       -6.865        7.605        6.505        6.609       57.844       42.317       43.683        0.085        0.007       38.823        3.559        0.008      337.146        8.922      866.395
05/20/2013  05:09:00      -23.607      -11.367       -1.670       19.097       12.069        6.364      364.698      145.671       40.495        0.062        0.028       26.201        3.623        0.019      336.997        8.673      866.409
05/20/2013  05:10:00       -5.063      -13.515       -2.155       26.491       10.897        6.797      701.794      118.736       46.202        0.054        0.043       14.432        8.820        0.374      337.012        8.697      866.408
05/20/2013  05:11:00      -80.119      -28.825       -5.452       16.633       13.909       11.808      276.665      193.456      139.437        0.394        0.030       85.146        8.908        0.011      336.999        8.676      866.395
05/20/2013  05:12:00      -80.341      -52.199       -8.985       15.287       12.169       13.314      233.682      148.095      177.267        0.491        0.028       95.809        9.751        0.010      336.907        8.523      866.379
05/20/2013  05:13:00      -91.401      -31.589       -8.381       12.975       14.889        8.777      168.338      221.680       77.034        0.494        0.023       96.706        4.988        0.003      336.849        8.428      866.360
05/20/2013  05:14:00      -88.312       -7.910      -12.867       12.953       10.625        8.396      167.780      112.894       70.489        0.419        0.018       88.665        4.792        0.003      336.825        8.386      866.353
05/20/2013  05:15:00      -96.126      -13.145       -9.840       11.729       12.562        9.754      137.562      157.812       95.141        0.495        0.020       97.021        6.832        0.005      336.819        8.378      866.350
05/20/2013  05:16:00      -89.982      -13.841      -11.982       13.770       12.421        8.938      189.606      154.275       79.889        0.443        0.021       91.040        8.162        0.008      336.794        8.336      866.342
05/20/2013  05:17:00      -65.995       -8.877      -15.783       13.808        7.583        6.095      190.667       57.498       37.146        0.248        0.014       66.590        3.655        0.003      336.779        8.312      866.334
05/20/2013  05:18:00      -33.630      -42.990      -13.237       14.193       15.649       10.100      201.447      244.896      102.012        0.185        0.027       54.581        5.728        0.011      336.895        8.504      866.329
05/20/2013  05:19:00      -39.831      -32.049       -9.417       12.340       18.176        9.989      152.269      330.361       99.782        0.164        0.029       51.123        3.686        0.005      336.803        8.352      866.323
05/20/2013  05:20:00      -37.401      -13.186       -7.128       14.359       12.174       10.962      206.182      148.198      120.171        0.105        0.024       39.657        9.274        0.055      336.767        8.292      866.326
05/20/2013  05:21:00      -60.708      -12.086      -11.983       20.394       17.284       11.266      415.911      298.722      126.917        0.241        0.042       61.900        9.356        0.023      336.790        8.329      866.339
05/20/2013  05:22:00      -48.505      -23.850      -11.021       21.280       14.023       13.913      452.859      196.631      193.585        0.194        0.042       54.052        8.705        0.026      336.760        8.278      866.343
05/20/2013  05:23:00      -33.137      -24.364      -10.162       20.297       14.285        9.339      411.967      204.069       87.212        0.125        0.035       41.130        8.974        0.048      336.768        8.293      866.329
05/20/2013  05:24:00      -60.582      -16.723      -10.674        7.720       10.056        7.131       59.603      101.130       50.844        0.214        0.011       62.848        3.980        0.004      336.780        8.313      866.315
05/20/2013  05:25:00      -46.025      -26.069      -10.900       18.805       14.239        8.963      353.621      202.749       80.332        0.178        0.032       52.895        5.911        0.012      336.790        8.329      866.309
05/20/2013  05:26:00      -30.365      -25.233       -7.384       17.731        9.756        9.072      314.377       95.174       82.304        0.105        0.025       39.481        7.244        0.034      336.770        8.296      866.327
05/20/2013  05:27:00      -53.842      -22.350       -9.527       11.226       11.256        7.558      126.020      126.704       57.118        0.190        0.015       58.297        1.895        0.001      336.804        8.353      866.341
05/20/2013  05:28:00      -68.361      -13.875      -11.375        8.906        6.233        4.909       79.310       38.853       24.097        0.257        0.007       69.755        2.809        0.002      336.760        8.279      866.349
05/20/2013  05:29:00      -49.730      -10.507      -11.624       10.757       13.977        8.026      115.712      195.366       64.411        0.155        0.019       50.828        3.831        0.006      336.793        8.335      866.356
05/20/2013  05:30:00      -35.119       -8.281       -7.396        9.499        9.698        7.263       90.226       94.059       52.754        0.080        0.012       36.083        5.387        0.022      336.824        8.386      866.362
05/20/2013  05:31:00      -25.081       -8.028        0.971        6.656        9.390        5.407       44.302       88.169       29.231        0.043        0.008       26.335        4.311        0.027      336.886        8.489      866.354
05/20/2013  05:32:00      -25.989        4.602       -3.170       11.882        8.795        7.834      141.192       77.355       61.372        0.049        0.014       26.393        7.158        0.074      336.927        8.556      866.342
05/20/2013  05:33:00      -35.936       30.549       -7.872       13.727       15.883        8.886      188.420      252.271       78.962        0.140        0.026       47.166        5.833        0.015      336.917        8.540      866.341
05/20/2013  05:34:00       -4.534       25.607       -4.086       14.573       13.731        5.530      212.364      188.551       30.579        0.056        0.022       26.005        4.642        0.032      337.034        8.737      866.344
05/20/2013  05:35:00        3.509       37.725       -2.911       13.161       14.511        6.765      173.222      210.577       45.760        0.094        0.021       37.888        5.009        0.017      337.096        8.839      866.334
05/20/2013  05:36:00        2.982       12.221       -0.653        7.225       15.714        9.303       52.205      246.927       86.553        0.027        0.019       12.580        8.253        0.430      336.988        8.659      866.320
05/20/2013  05:37:00        4.302       18.123       -2.165        7.238        7.353        5.790       52.387       54.065       33.521        0.025        0.007       18.627        3.919        0.044      336.999        8.675      866.308
05/20/2013  05:38:00        0.638        3.550        2.402        6.753       10.251        6.758       45.610      105.088       45.669        0.011        0.010        3.607        7.601        4.441      336.999        8.676      866.293
05/20/2013  05:39:00      -12.278       -7.693        3.819        5.711        5.484        4.676       32.614       30.069       21.867        0.015        0.004       14.489        4.072        0.079      336.912        8.531      866.295
05/20/2013  05:40:00      -21.372      -12.789       -0.370       14.047        9.499        8.776      197.324       90.238       77.020        0.049        0.018       24.907        7.648        0.094      336.702        8.183      866.312
05/20/2013  05:41:00      -37.744      -19.936        4.327       20.449       11.484       10.472      418.152      131.889      109.669        0.125        0.033       42.686        9.806        0.053      336.673        8.134      866.328
05/20/2013  05:42:00      -64.696      -36.977       -4.095        8.742       11.803        6.833       76.419      139.301       46.691        0.292        0.013       74.517        3.792        0.003      336.738        8.242      866.340
05/20/2013  05:43:00      -21.083      -18.794        1.094       19.058       16.907       12.607      363.194      285.839      158.940        0.080        0.040       28.244        8.529        0.091      336.668        8.126      866.351
05/20/2013  05:44:00      -24.775      -20.262        4.776       35.271       20.861       17.845     1244.030      435.189      318.454        0.152        0.100       32.006       15.679        0.240      336.585        7.987      866.351
05/20/2013  05:45:00      -74.784      -56.023       -6.474       25.413       28.602       16.718      645.802      818.100      279.483        0.526        0.087       93.441       15.006        0.026      336.699        8.178      866.353
05/20/2013  05:46:00      -63.814      -60.427       -6.879       23.772       25.327       12.277      565.088      641.445      150.737        0.456        0.068       87.884        6.730        0.006      336.781        8.313      866.356
05/20/2013  05:47:00      -40.471      -48.716       -1.093       20.665       22.751       15.132      427.039      517.600      228.963        0.259        0.059       63.334       11.633        0.034      336.778        8.308      866.367
05/20/2013  05:48:00      -35.972      -43.079      -11.155       11.280       17.517        8.814      127.231      306.861       77.688        0.189        0.026       56.123        6.814        0.015      336.793        8.332      866.362
05/20/2013  05:49:00      -73.155      -26.204       -8.742        9.403        8.845       10.778       88.425       78.243      116.175        0.320        0.014       77.706        5.275        0.005      336.777        8.309      866.359
05/20/2013  05:50:00      -37.009      -20.135        1.947       29.163       14.150       12.839      850.505      200.209      164.833        0.150        0.061       42.131        8.498        0.041      336.712        8.199      866.358
05/20/2013  05:51:00      -68.950      -38.177       -2.456       27.041       15.074       14.810      731.205      227.211      219.339        0.370        0.059       78.814       15.920        0.041      336.657        8.107      866.351
05/20/2013  05:52:00      -87.156      -31.643      -10.188       17.227       18.480        9.841      296.758      341.503       96.844        0.472        0.037       92.722        8.502        0.008      336.646        8.088      866.337
05/20/2013  05:53:00      -82.774       -6.338       -8.692       11.317       11.026        9.400      128.068      121.566       88.358        0.365        0.017       83.016        5.389        0.004      336.618        8.042      866.320
05/20/2013  05:54:00      -74.279      -10.943      -10.914       24.950       10.673       11.769      622.500      113.915      138.514        0.332        0.044       75.081       13.499        0.032      336.558        7.942      866.310
05/20/2013  05:55:00      -16.597      -15.948       -3.032       10.898       11.969        5.023      118.760      143.260       25.227        0.041        0.014       23.018        5.185        0.051      336.639        8.077      866.327
05/20/2013  05:56:00      -37.783      -13.542       -5.357       20.478        8.143        7.656      419.352       66.301       58.614        0.109        0.027       40.136        7.293        0.033      336.707        8.192      866.323
05/20/2013  05:57:00      -78.159      -24.310      -16.887       11.966       18.878        8.238      143.187      356.386       67.872        0.378        0.028       81.852        6.066        0.005      336.472        7.797      866.312
05/20/2013  05:58:00      -72.029      -31.103      -17.296       23.491       19.045       11.328      551.828      362.694      128.313        0.375        0.052       78.457        9.607        0.015      336.469        7.792      866.312
05/20/2013  05:59:00      -48.318      -20.216        1.680       19.576       25.641       12.627      383.206      657.442      159.450        0.197        0.060       52.377       13.587        0.067      336.461        7.777      866.319
05/20/2013  06:00:00      -42.550        9.855       -6.409       13.923       10.372       10.554      193.841      107.573      111.381        0.118        0.021       43.677        7.735        0.031      336.741        8.247      866.315
05/20/2013  06:01:00      -38.434       15.917       -6.478       18.948       22.159       13.172      359.020      491.016      173.489        0.140        0.051       41.599       13.071        0.099      336.832        8.399      866.283
05/20/2013  06:02:00      -22.395       25.405       -4.423       17.690       10.364        8.887      312.952      107.409       78.982        0.083        0.025       33.866        6.758        0.040      336.877        8.472      866.274
05/20/2013  06:03:00       30.954       41.267       -0.026       16.987       10.775        9.152      288.561      116.102       83.761        0.157        0.024       51.586        8.049        0.024      337.072        8.799      866.282
05/20/2013  06:04:00        7.236       54.989       -6.103       13.065        8.116        5.195      170.692       65.865       26.986        0.169        0.013       55.463        5.942        0.011      337.157        8.943      866.272
05/20/2013  06:05:00       -6.312       53.143      -10.270        5.628        5.593        6.020       31.670       31.285       36.242        0.153        0.005       53.517        1.163        0.000      337.305        9.189      866.259
05/20/2013  06:06:00        7.337       58.385       -3.530       12.607       10.707       11.620      158.943      114.645      135.019        0.194        0.020       58.844        8.328        0.020      337.410        9.363      866.267
05/20/2013  06:07:00       32.289       46.209       -0.875       23.169       16.189       13.561      536.787      262.088      183.888        0.208        0.049       56.372        9.551        0.029      337.374        9.305      866.282
05/20/2013  06:08:00        3.234       29.102       -3.509        9.834       13.089       12.366       96.703      171.320      152.924        0.065        0.021       29.281        8.427        0.083      337.345        9.255      866.299
05/20/2013  06:09:00      -23.789       19.646        3.310       24.467       16.084       13.486      598.640      258.710      181.862        0.100        0.052       30.853        8.543        0.077      337.128        8.894      866.312
05/20/2013  06:10:00       13.145       49.211        2.939       53.267       25.380       12.291     2837.417      644.155      151.057        0.312        0.182       50.937       13.565        0.071      337.254        9.105      866.317
05/20/2013  06:11:00       -8.811       27.200       -5.100       15.426       33.312        8.811      237.954     1109.681       77.641        0.113        0.071       28.591        4.185        0.021      337.376        9.306      866.334
05/20/2013  06:12:00      -32.420      -13.738       11.707       21.986       12.437       11.948      483.372      154.689      142.764        0.108        0.039       35.210        7.424        0.044      336.801        8.348      866.348
05/20/2013  06:13:00      -50.729      -16.006      -10.055       18.383       13.385       12.306      337.925      179.145      151.436        0.180        0.033       53.195        7.648        0.021      336.763        8.283      866.351
05/20/2013  06:14:00      -12.341       19.203       -2.465       20.544       17.925        9.846      422.074      321.290       96.950        0.068        0.042       22.827        7.839        0.118      337.204        9.020      866.368
05/20/2013  06:15:00       18.504       41.851       -2.962       12.909        9.230        7.354      166.636       85.200       54.082        0.120        0.015       45.759        5.671        0.015      337.493        9.502      866.379
05/20/2013  06:16:00       25.179       51.678        0.956       19.818       18.351       14.634      392.773      336.753      214.151        0.212        0.047       57.486       12.426        0.047      337.445        9.423      866.407
05/20/2013  06:17:00       46.369       30.389       17.344       17.073       14.135       13.339      291.477      199.810      177.931        0.202        0.033       55.440        7.272        0.017      337.436        9.407      866.433
05/20/2013  06:18:00       20.961       36.514       -0.162       21.442       11.842        8.172      459.763      140.238       66.784        0.122        0.033       42.103        6.299        0.022      337.440        9.415      866.429
05/20/2013  06:19:00        6.847       30.531       -0.852       10.121       18.448       10.079      102.428      340.315      101.590        0.076        0.027       31.289        9.901        0.100      337.481        9.484      866.430
05/20/2013  06:20:00       14.451       13.192        6.405       14.255       17.125       12.480      203.205      293.277      155.748        0.054        0.033       19.567       12.305        0.395      337.603        9.689      866.443
05/20/2013  06:21:00       34.106       22.125        6.795       15.537       12.370       12.157      241.390      153.019      147.804        0.112        0.027       40.654        8.626        0.045      337.387        9.326      866.449
05/20/2013  06:22:00       42.588       36.791       -2.622        8.487       10.277        9.380       72.029      105.623       87.985        0.172        0.013       56.279        6.764        0.014      337.245        9.089      866.463
05/20/2013  06:23:00       27.560       20.664        2.947       17.560       12.152       10.443      308.336      147.675      109.051        0.088        0.028       34.447        9.367        0.074      337.361        9.283      866.471
05/20/2013  06:24:00       16.926       36.046       -0.281       12.691       14.513       14.562      161.070      210.623      212.065        0.108        0.029       39.822        6.376        0.026      337.440        9.414      866.481
05/20/2013  06:25:00       29.163       41.883        0.549       15.376       29.936       13.329      236.430      896.164      177.653        0.196        0.066       51.036       15.618        0.094      337.505        9.523      866.497
05/20/2013  06:26:00       15.801       44.688        1.264       16.593       21.863       15.825      275.318      477.986      250.428        0.163        0.050       47.400       14.174        0.089      337.565        9.623      866.501
05/20/2013  06:27:00       16.350       51.049        0.908       14.858       24.351       15.147      220.772      592.985      229.445        0.196        0.052       53.603       16.136        0.091      337.605        9.692      866.512
05/20/2013  06:28:00       12.377       53.455        0.525       19.895       18.433       17.970      395.824      339.760      322.920        0.203        0.053       54.869       17.036        0.096      337.620        9.718      866.500
05/20/2013  06:29:00        4.891       45.444       -1.392       13.557       30.504       13.400      183.786      930.511      179.572        0.169        0.065       45.707       14.423        0.100      337.671        9.802      866.509
05/20/2013  06:30:00        7.902       50.515       -6.174        8.979       14.720        9.746       80.621      216.676       94.977        0.152        0.020       51.129        5.221        0.010      337.599        9.683      866.512
05/20/2013  06:31:00       -4.744       39.456        4.796       14.617       18.165       12.317      213.660      329.949      151.705        0.115        0.035       39.740        9.561        0.058      337.847       10.097      866.516
05/20/2013  06:32:00       -7.500        3.321       11.357       14.441       12.297        9.128      208.551      151.219       83.313        0.032        0.022        8.203        7.934        0.935      338.061       10.458      866.521
05/20/2013  06:33:00      -28.472       27.950       -0.562       15.587       15.488        9.720      242.958      239.878       94.484        0.108        0.029       39.898        5.219        0.017      337.660        9.783      866.525
05/20/2013  06:34:00       10.749       29.542        7.510       17.560       21.444       13.225      308.367      459.828      174.888        0.099        0.047       31.437       13.964        0.197      337.897       10.183      866.518
05/20/2013  06:35:00        1.832       23.309        5.055       11.317       15.082       13.981      128.066      227.463      195.464        0.056        0.028       23.380       11.316        0.234      337.951       10.271      866.521
05/20/2013  06:36:00        3.548       30.298       -5.693       15.209       15.932       12.794      231.311      253.821      163.689        0.081        0.032       30.505       13.612        0.199      337.826       10.062      866.520
05/20/2013  06:37:00       -3.065       22.049        5.172       12.973       12.070       14.241      168.297      145.675      202.806        0.052        0.026       22.261       10.762        0.234      338.014       10.378      866.500
05/20/2013  06:38:00        4.370       39.654        0.862       19.363       14.936       13.508      374.936      223.083      182.473        0.119        0.039       39.894       11.587        0.084      337.876       10.146      866.489
05/20/2013  06:39:00        9.190       51.583       -7.663       10.584       14.035       11.489      112.021      196.991      131.996        0.162        0.022       52.396        8.686        0.027      337.785        9.992      866.473
05/20/2013  06:40:00       19.981       38.514        1.832       22.475       17.071       11.310      505.132      291.425      127.909        0.141        0.046       43.389        9.162        0.045      337.837       10.082      866.462
05/20/2013  06:41:00       14.806       44.345        5.379       16.363       18.739       14.314      267.754      351.149      204.878        0.152        0.041       46.752       10.852        0.054      337.964       10.293      866.472
05/20/2013  06:42:00       56.652       42.691        7.279       20.384       19.790       13.356      415.497      391.656      178.382        0.304        0.049       70.936        3.321        0.002      337.843       10.091      866.496
05/20/2013  06:43:00       42.509       48.469        5.505       28.428       22.935       18.252      808.144      525.997      333.142        0.293        0.083       64.469        9.483        0.022      337.857       10.115      866.513
05/20/2013  06:44:00       29.360       27.094        3.426       17.004       13.007       14.328      289.144      169.176      205.301        0.114        0.033       39.952        8.699        0.047      337.899       10.185      866.518
05/20/2013  06:45:00       18.905       34.562        3.966       12.108       11.364       11.372      146.603      129.134      129.325        0.099        0.020       39.395        3.249        0.007      337.950       10.271      866.523
05/20/2013  06:46:00       21.353       32.014        2.131       13.809       13.904       15.239      190.678      193.316      232.241        0.105        0.031       38.482        8.806        0.052      338.014       10.378      866.541
05/20/2013  06:47:00       50.514       45.033        7.723       22.231       18.160       17.222      494.196      329.794      296.583        0.288        0.056       67.673       13.935        0.042      338.008       10.368      866.560
05/20/2013  06:48:00       43.257       35.512       22.582       42.350       28.566       25.289     1793.524      816.030      639.544        0.345        0.162       55.967       23.519        0.177      338.110       10.540      866.555
05/20/2013  06:49:00       24.139       16.102       11.050       33.499       17.202       20.000     1122.202      295.906      400.004        0.139        0.091       29.016       13.877        0.229      338.168       10.637      866.552
05/20/2013  06:50:00       64.839       41.876        0.959       21.691       15.222       14.616      470.507      231.703      213.638        0.344        0.046       77.186        2.734        0.001      337.854       10.109      866.545
05/20/2013  06:51:00       50.801       20.007       10.980       34.485       19.159       20.696     1189.192      367.063      428.308        0.254        0.099       54.599       13.703        0.063      338.038       10.417      866.529
05/20/2013  06:52:00       32.843       26.205       13.699       33.841       21.842       24.502     1145.184      477.053      600.342        0.209        0.111       42.016        9.767        0.054      338.228       10.737      866.519
05/20/2013  06:53:00       69.326       52.746       12.775       35.706       28.137       27.398     1274.889      791.710      750.642        0.528        0.141       87.111       23.318        0.072      338.025       10.397      866.519
05/20/2013  06:54:00       31.501       42.623       28.762       32.769       25.090       23.994     1073.829      629.531      575.704        0.296        0.114       53.000       19.817        0.140      338.265       10.800      866.507
05/20/2013  06:55:00      105.608       69.439        7.303       37.093       30.588       27.948     1375.889      935.597      781.095        0.956        0.155      126.392       13.853        0.012      338.046       10.430      866.516
05/20/2013  06:56:00      105.353       71.822       -0.132       33.949       22.679       24.723     1152.555      514.355      611.208        0.927        0.114      127.506        9.231        0.005      337.916       10.214      866.527
05/20/2013  06:57:00       76.323       59.698        6.047       32.813       37.619       32.391     1076.681     1415.202     1049.154        0.648        0.177       96.897       20.870        0.046      338.018       10.384      866.529
05/20/2013  06:58:00       89.088       61.268        1.982       36.879       33.321       31.146     1360.084     1110.258      970.082        0.757        0.172      108.123       22.475        0.043      337.983       10.326      866.536
05/20/2013  06:59:00       91.652       42.620       -3.098       29.159       47.078       27.336      850.276     2216.340      747.230        0.702        0.191      101.077       28.222        0.078      338.072       10.476      866.548
05/20/2013  07:00:00       40.145       44.708       23.047       47.256       37.143       36.979     2233.118     1379.596     1367.466        0.456        0.249       60.087       16.424        0.075      338.312       10.879      866.551
05/20/2013  07:01:00       63.680       60.737       29.224       46.856       27.807       37.379     2195.515      773.247     1397.179        0.648        0.218       88.001       30.170        0.118      338.039       10.420      866.557
05/20/2013  07:02:00        2.649       30.972       53.938       14.694       21.903       12.056      215.908      479.740      145.336        0.236        0.042       31.085       12.672        0.166      338.244       10.765      866.561
05/20/2013  07:03:00       28.995       24.330       12.901       24.363       19.732       24.498      593.542      389.344      600.157        0.159        0.079       37.851       17.780        0.221      338.328       10.905      866.559
05/20/2013  07:04:00       79.097       39.966        4.458       26.046       30.645       29.001      678.417      939.112      841.070        0.517        0.123       88.621        7.525        0.007      338.281       10.826      866.565
05/20/2013  07:05:00      109.212       68.234       11.049       29.879       33.701       29.418      892.780     1135.753      865.411        0.980        0.145      128.775       21.165        0.027      338.142       10.593      866.567
05/20/2013  07:06:00      102.726       56.695       17.338       32.743       30.482       31.175     1072.090      929.157      971.850        0.852        0.149      117.333       13.839        0.014      338.139       10.588      866.568
05/20/2013  07:07:00      118.742       71.570       17.910       36.010       27.413       25.369     1296.710      751.496      643.601        1.112        0.135      138.643       16.170        0.014      338.019       10.387      866.570
05/20/2013  07:08:00       45.166       44.156       16.500       34.998       30.393       26.220     1224.883      923.740      687.508        0.355        0.142       63.164       19.980        0.100      338.312       10.878      866.562
05/20/2013  07:09:00       81.698       39.315       16.864       31.139       21.640       25.856      969.641      468.306      668.514        0.531        0.105       90.666       21.108        0.054      338.199       10.689      866.560
05/20/2013  07:10:00      107.646       67.465       14.311       40.586       34.523       25.640     1647.204     1191.865      657.388        0.992        0.175      127.040       21.897        0.030      338.240       10.757      866.557
05/20/2013  07:11:00       73.914       71.697       30.644       37.439       24.015       27.731     1401.662      576.731      769.022        0.714        0.137      102.975       13.325        0.017      338.389       11.007      866.544
05/20/2013  07:12:00       27.365       70.771       53.688       55.041       33.408       38.532     3029.555     1116.117     1484.714        0.713        0.282       75.878       37.287        0.241      338.561       11.296      866.529
05/20/2013  07:13:00       80.902       57.990       12.068       31.745       26.128       28.290     1007.722      682.679      800.326        0.627        0.125       99.539       21.122        0.045      338.315       10.884      866.521
05/20/2013  07:14:00       81.602       43.407        2.530       31.738       31.643       27.462     1007.285     1001.256      754.164        0.566        0.138       92.429       21.221        0.053      338.443       11.099      866.502
05/20/2013  07:15:00       33.494        1.315        8.365       43.272       30.775       26.558     1872.459      947.106      705.346        0.236        0.176       33.520       14.983        0.200      338.712       11.549      866.497
05/20/2013  07:16:00      150.130       67.427        2.362       53.741       41.876       30.847     2888.088     1753.584      951.511        1.634        0.280      164.576       16.231        0.010      338.230       10.739      866.510
05/20/2013  07:17:00      109.098       78.250       22.649       32.496       25.998       31.090     1055.968      675.886      966.591        1.062        0.135      134.259       21.420        0.025      338.159       10.621      866.522
05/20/2013  07:18:00       63.538       67.990       42.266       47.479       25.926       36.358     2254.230      672.140     1321.918        0.735        0.212       93.058       28.413        0.093      338.436       11.086      866.549
05/20/2013  07:19:00       65.456       81.482       57.321       62.715       30.245       44.683     3933.196      914.775     1996.527        1.053        0.342      104.517       45.878        0.193      338.439       11.092      866.551
05/20/2013  07:20:00       78.256       54.575       29.958       51.971       27.105       28.555     2701.017      734.686      815.382        0.712        0.213       95.407       18.644        0.038      338.374       10.982      866.545
05/20/2013  07:21:00       27.447       45.975       43.583       28.752       24.033       28.576      826.694      577.575      816.578        0.349        0.111       53.545       18.300        0.117      338.837       11.759      866.534
05/20/2013  07:22:00       53.066       33.093       12.345       41.343       30.289       26.512     1709.264      917.400      702.883        0.370        0.166       62.539       14.908        0.057      338.705       11.537      866.526
05/20/2013  07:23:00      131.486       47.146       27.724       45.089       33.864       37.327     2033.038     1146.798     1393.299        1.243        0.229      139.683       32.604        0.054      338.455       11.119      866.527
05/20/2013  07:24:00       80.035       85.990        2.636       34.069       30.948       33.407     1160.717      957.758     1116.019        0.852        0.162      117.473       21.208        0.033      338.420       11.060      866.519
05/20/2013  07:25:00       72.604       78.518       35.622       30.465       21.957       34.985      928.144      482.126     1223.936        0.767        0.132      106.941       18.148        0.029      338.569       11.311      866.512
05/20/2013  07:26:00       51.429       41.271       15.071       40.530       28.115       27.874     1642.670      790.476      776.983        0.389        0.161       65.941       19.752        0.090      338.795       11.690      866.500
05/20/2013  07:27:00       72.862       76.774        2.561       42.382       40.731       43.287     1796.196     1659.035     1873.723        0.827        0.266      105.845       33.513        0.100      338.625       11.403      866.483
05/20/2013  07:28:00       54.302       71.844        8.782       36.262       23.617       40.416     1314.960      557.754     1633.424        0.585        0.175       90.057       20.562        0.052      338.810       11.715      866.453
05/20/2013  07:29:00       55.411       60.696        3.243       31.690       38.534       31.717     1004.250     1484.848     1005.966        0.513        0.175       82.185       22.406        0.074      338.755       11.621      866.435
05/20/2013  07:30:00       83.932       75.081       13.338       34.715       31.581       31.439     1205.147      997.332      988.411        0.802        0.160      112.613       23.680        0.044      338.677       11.490      866.418
05/20/2013  07:31:00      125.533       63.527      -12.596       40.797       33.612       33.931     1664.391     1129.782     1151.322        1.195        0.197      140.692       19.649        0.020      338.591       11.347      866.422
05/20/2013  07:32:00       92.481       51.012        0.647       63.504       36.208       29.595     4032.797     1311.017      875.850        0.869        0.311      105.617       10.174        0.009      338.830       11.748      866.412
05/20/2013  07:33:00       52.307       50.778      -12.971       36.293       34.826       25.371     1317.188     1212.871      643.679        0.433        0.159       72.900       14.325        0.039      338.899       11.864      866.409
05/20/2013  07:34:00      108.114       88.335        2.176       48.662       42.242       38.121     2368.026     1784.415     1453.186        1.255        0.280      139.613       26.507        0.036      338.760       11.631      866.415
05/20/2013  07:35:00      148.561      103.191       18.135       41.161       47.933       36.694     1694.204     2297.606     1346.444        1.919        0.267      180.883       18.934        0.011      338.657       11.457      866.424
05/20/2013  07:36:00      145.304      106.155        7.338       45.313       45.386       41.547     2053.243     2059.860     1726.169        1.914        0.292      179.950       19.296        0.011      338.650       11.446      866.440
05/20/2013  07:37:00      113.962       59.476        5.296       45.772       32.888       31.449     2095.058     1081.607      989.040        1.036        0.208      128.548       20.384        0.025      338.742       11.601      866.464
05/20/2013  07:38:00      100.970       72.691        8.575       64.636       44.283       40.205     4177.841     1960.994     1616.467        1.165        0.388      124.414       24.994        0.040      338.810       11.714      866.473
05/20/2013  07:39:00      100.122       92.087        7.729       57.715       38.004       39.184     3330.999     1444.339     1535.369        1.244        0.316      136.031       22.948        0.028      338.773       11.653      866.492
05/20/2013  07:40:00       85.808       67.475        8.125       47.951       42.361       33.234     2299.259     1794.489     1104.475        0.859        0.260      109.160       28.351        0.067      338.927       11.911      866.501
05/20/2013  07:41:00       70.837       62.045        7.998       47.321       42.585       42.979     2239.253     1813.455     1847.185        0.741        0.295       94.167       23.912        0.064      338.898       11.862      866.508
05/20/2013  07:42:00       62.950       62.100       15.153       52.413       41.642       34.977     2747.083     1734.070     1223.410        0.688        0.285       88.426       14.411        0.027      339.086       12.178      866.508
05/20/2013  07:43:00       68.906       55.752        9.220       34.273       28.162       26.298     1174.622      793.072      691.600        0.530        0.133       88.636       18.127        0.042      339.063       12.141      866.510
05/20/2013  07:44:00       68.482       18.972       34.826       62.075       41.661       35.349     3853.346     1735.674     1249.554        0.655        0.342       71.061       37.894        0.284      339.494       12.867      866.505
05/20/2013  07:45:00       62.433       39.917       22.697       71.995       38.696       37.706     5183.290     1497.355     1421.724        0.705        0.405       74.102       21.202        0.082      339.486       12.852      866.514
05/20/2013  07:46:00       51.292      114.092      107.647       40.224       36.591       20.933     1617.951     1338.906      438.205        1.531        0.170      125.091       14.817        0.014      339.120       12.236      866.516
05/20/2013  07:47:00      167.204      116.976       55.657       61.505       38.329       42.206     3782.856     1469.089     1781.307        2.588        0.352      204.060       34.917        0.029      338.874       11.818      866.511
05/20/2013  07:48:00      154.321      101.461       39.150       48.740       48.435       46.410     2375.560     2345.992     2153.877        2.126        0.344      184.687       26.084        0.020      338.948       11.944      866.509
05/20/2013  07:49:00      132.551      100.618       26.544       47.477       33.649       46.758     2254.019     1132.225     2186.310        1.698        0.279      166.414       32.285        0.038      339.052       12.122      866.511
05/20/2013  07:50:00      180.535      124.384       15.551       58.373       37.635       40.225     3407.437     1416.383     1618.047        2.737        0.322      219.235       26.477        0.015      338.949       11.946      866.517
05/20/2013  07:51:00      140.735       85.006       14.184       72.433       57.447       46.380     5246.521     3300.107     2151.118        1.896        0.535      164.415       38.723        0.055      339.176       12.330      866.527
05/20/2013  07:52:00      164.202       95.793       17.857       73.974       56.430       43.551     5472.135     3184.340     1896.696        2.350        0.528      190.101       24.605        0.017      339.107       12.212      866.538
05/20/2013  07:53:00      157.750       86.240       18.797       78.827       66.079       38.869     6213.722     4366.450     1510.782        2.238        0.605      179.785       32.932        0.034      339.203       12.373      866.551
05/20/2013  07:54:00      154.381      116.358       19.195       92.815       76.147       48.686     8614.684     5798.362     2370.338        2.726        0.839      193.320       40.937        0.045      339.334       12.594      866.567
05/20/2013  07:55:00      187.944      125.750       41.930       82.038       54.646       51.401     6730.313     2986.229     2642.079        3.262        0.618      226.133       20.774        0.008      339.340       12.604      866.563
05/20/2013  07:56:00      177.675      107.560       29.134       66.366       47.223       45.940     4404.383     2230.024     2110.511        2.636        0.437      207.696       26.939        0.017      339.256       12.463      866.569
05/20/2013  07:57:00      103.450       58.521       20.129       54.150       35.913       31.433     2932.201     1289.723      988.020        0.987        0.260      118.856       16.871        0.020      339.387       12.684      866.552
05/20/2013  07:58:00      110.093       84.063        2.055       65.996       49.816       48.594     4355.455     2481.647     2361.346        1.419        0.460      138.517       36.190        0.068      339.426       12.749      866.542
05/20/2013  07:59:00      132.375       67.603       29.758       75.866       50.653       34.744     5755.591     2565.729     1207.168        1.625        0.476      148.638       20.380        0.019      339.743       13.285      866.532
05/20/2013  08:00:00       53.915       30.815        8.923       72.028       57.780       45.097     5188.005     3338.522     2033.770        0.725        0.528       62.099       11.623        0.035      339.767       13.324      866.544
05/20/2013  08:01:00      105.154       51.674       18.376       66.807       46.000       43.596     4463.190     2115.970     1900.612        1.127        0.424      117.165       37.003        0.100      339.828       13.429      866.555
05/20/2013  08:02:00      127.675       88.723       30.006       72.475       44.161       44.573     5252.660     1950.222     1986.737        1.713        0.459      155.476       39.124        0.063      339.618       13.073      866.549
05/20/2013  08:03:00      167.436       75.397       33.673       70.498       52.650       45.918     4969.982     2772.062     2108.476        2.235        0.493      183.629       19.197        0.011      339.534       12.930      866.550
05/20/2013  08:04:00      106.079       79.981       70.261       73.294       54.205       48.901     5372.021     2938.175     2391.259        1.664        0.535      132.852       42.369        0.102      339.855       13.473      866.545
05/20/2013  08:05:00      146.212       97.147       28.222       80.617       57.438       48.663     6499.099     3299.097     2368.056        2.189        0.608      175.543       26.082        0.022      339.698       13.208      866.555
05/20/2013  08:06:00      239.090      130.444       31.580       65.641       66.337       52.967     4308.740     4400.622     2805.457        4.334        0.576      272.359       31.786        0.014      339.585       13.016      866.554
05/20/2013  08:07:00      243.194      147.557       34.516       78.577       58.616       55.498     6174.311     3435.850     3080.080        4.740        0.635      284.458       25.120        0.008      339.466       12.814      866.571
05/20/2013  08:08:00      143.634      115.559       54.415       98.353       73.706       79.777     9673.377     5432.622     6364.394        2.920        1.074      184.349       72.146        0.153      339.717       13.240      866.584
05/20/2013  08:09:00      121.751      101.232       92.942       91.911       75.620       60.895     8447.593     5718.347     3708.149        2.579        0.894      158.339       53.627        0.115      339.783       13.351      866.587
05/20/2013  08:10:00       91.011       78.153       20.433       76.689       59.702       51.711     5881.148     3564.351     2673.991        1.346        0.606      119.962       42.951        0.128      339.903       13.554      866.595
05/20/2013  08:11:00       92.726       72.279       64.924       71.104       71.103       62.245     5055.793     5055.669     3874.434        1.601        0.699      117.568       44.347        0.142      340.012       13.738      866.597
05/20/2013  08:12:00       96.776       99.433      109.718       67.990       58.506       38.271     4622.704     3422.925     1464.693        2.040        0.476      138.753       38.682        0.078      339.655       13.135      866.602
05/20/2013  08:13:00      193.311      110.895       43.909       98.546       83.204       69.412     9711.216     6922.938     4817.966        3.652        1.073      222.861       46.422        0.043      339.595       13.033      866.601
05/20/2013  08:14:00      130.037       78.552       36.178       94.464       66.510       47.234     8923.502     4423.571     2231.034        1.998        0.779      151.922       27.078        0.032      339.761       13.315      866.607
05/20/2013  08:15:00      176.756      122.081       12.414       77.796       61.257       53.274     6052.225     3752.381     2838.127        2.947        0.632      214.817       21.693        0.010      339.751       13.295      866.609
05/20/2013  08:16:00      183.544       93.325       26.723       69.660       70.703       50.822     4852.505     4998.890     2582.880        2.777        0.622      205.908       27.664        0.018      339.868       13.495      866.607
05/20/2013  08:17:00      154.677       89.937       26.986       55.370       39.512       45.492     3065.806     1561.210     2069.486        1.972        0.335      178.924       29.133        0.027      339.844       13.454      866.600
05/20/2013  08:18:00      121.977       83.508       24.037       67.837       53.723       32.623     4601.920     2886.113     1064.263        1.549        0.428      147.824       33.738        0.052      339.791       13.366      866.587
05/20/2013  08:19:00      146.948       72.505       13.431       58.607       56.969       42.392     3434.780     3245.463     1797.076        1.775        0.424      163.862       11.464        0.005      339.698       13.208      866.586
05/20/2013  08:20:00      102.959       76.026       37.118       72.483       61.054       64.048     5253.833     3727.560     4102.168        1.542        0.654      127.987       50.549        0.156      339.912       13.568      866.568
05/20/2013  08:21:00      158.085      119.947       46.797       66.023       40.821       48.275     4359.093     1666.334     2330.467        2.496        0.418      198.439       33.772        0.029      339.765       13.319      866.580
05/20/2013  08:22:00      146.183      117.736       29.074       85.538       59.562       66.486     7316.792     3547.666     4420.427        2.568        0.764      187.700       19.186        0.010      339.846       13.458      866.569
05/20/2013  08:23:00      156.146      114.294       16.544       65.989       64.940       47.407     4354.528     4217.171     2247.385        2.427        0.541      193.506       23.958        0.015      339.845       13.455      866.561
05/20/2013  08:24:00      132.199       85.428       -2.818       65.661       55.897       39.163     4311.397     3124.442     1533.721        1.687        0.448      157.399       28.625        0.033      339.759       13.310      866.534
05/20/2013  08:25:00      154.609       84.099       18.517       90.417       63.924       62.731     8175.191     4086.295     3935.208        2.375        0.810      176.001       31.974        0.033      339.907       13.559      866.507
05/20/2013  08:26:00      105.938       85.114       56.936       54.544       58.762       57.007     2975.051     3453.009     3249.783        1.569        0.484      135.895       29.379        0.047      340.275       14.183      866.501
05/20/2013  08:27:00       84.958       54.913        1.723       53.620       40.542       39.063     2875.112     1643.638     1525.930        0.814        0.302      101.160       14.860        0.022      340.229       14.105      866.484
05/20/2013  08:28:00      110.254       56.520       12.416       56.796       45.259       39.288     3225.749     2048.359     1543.533        1.116        0.341      123.896       22.773        0.034      339.918       13.582      866.487
05/20/2013  08:29:00       80.681       71.557        7.551       62.151       38.969       32.562     3862.694     1518.601     1060.306        0.906        0.322      107.841       23.064        0.046      339.946       13.628      866.466
05/20/2013  08:30:00       16.261      114.941      -14.058       32.696       35.860       32.504     1069.005     1285.958     1056.498        0.854        0.171      116.086       29.265        0.064      339.977       13.681      866.455
05/20/2013  08:31:00       33.474       83.882       10.309       41.932       43.932       34.642     1758.317     1929.994     1200.080        0.657        0.244       90.315       32.173        0.127      340.312       14.247      866.431
05/20/2013  08:32:00       25.386       52.651       69.999       35.664       54.161       39.076     1271.895     2933.386     1526.964        0.702        0.287       58.452       39.291        0.452      340.495       14.556      866.429
05/20/2013  08:33:00        3.069      -88.155        8.602       57.375      116.255       54.622     3291.877    13515.237     2983.607        1.382        0.990       88.208       66.937        0.576      340.328       14.271      866.433
05/20/2013  08:34:00      125.715     -222.264      -59.155       91.910       60.698       36.878     8447.383     3684.289     1359.978        4.110        0.675      255.354       20.920        0.007      340.139       13.949      866.419
05/20/2013  08:35:00       47.761      -17.886       36.268       50.405       78.843       49.981     2540.714     6216.140     2498.130        0.758        0.563       51.000       56.231        1.216      340.448       14.476      866.419
05/20/2013  08:36:00       26.403       40.716       58.201       48.022       53.854       38.502     2306.126     2900.289     1482.404        0.621        0.334       48.527       36.377        0.562      340.283       14.197      866.409
05/20/2013  08:37:00       76.120     -139.253       -1.356       99.094       95.557       52.946     9819.653     9131.183     2803.277        2.347        1.088      158.700       59.867        0.142      340.334       14.282      866.394
05/20/2013  08:38:00       81.481     -150.534      -15.880       80.928       83.849       44.549     6549.395     7030.656     1984.571        2.256        0.778      171.171       40.974        0.057      340.343       14.297      866.400
05/20/2013  08:39:00       33.767      -55.112       29.123       43.749       86.122       54.110     1913.951     7417.075     2927.919        0.864        0.613       64.634       45.408        0.494      340.617       14.761      866.403
05/20/2013  08:40:00       42.080        7.088       51.612       50.086       56.862       39.436     2508.627     3233.234     1555.185        0.589        0.365       42.673       32.760        0.589      340.903       15.246      866.411
05/20/2013  08:41:00       45.441       -1.300       55.029       59.922      114.432       75.946     3590.632    13094.654     5767.726        1.377        1.123       45.460       78.661        2.994      340.657       14.827      866.402
05/20/2013  08:42:00      139.834      131.017       85.709       65.458       50.417       51.857     4284.815     2541.835     2689.184        2.679        0.476      191.622       42.008        0.048      340.179       14.019      866.413
05/20/2013  08:43:00       78.370       68.272       69.870       67.184       42.564       33.867     4513.688     1811.681     1146.988        1.158        0.374      103.938       24.033        0.053      340.332       14.280      866.396
05/20/2013  08:44:00       70.645       38.895       37.847       70.864       73.777       40.368     5021.665     5443.087     1629.579        1.001        0.605       80.645       30.854        0.146      340.484       14.535      866.375
05/20/2013  08:45:00       74.108     -144.983        3.048       60.554      101.543       48.020     3666.740    10310.977     2305.936        2.140        0.814      162.826       49.805        0.094      340.354       14.315      866.366
05/20/2013  08:46:00       93.764       47.732       60.296       58.057       50.880       43.120     3370.585     2588.779     1859.328        1.126        0.391      105.214       36.987        0.124      340.221       14.090      866.367
05/20/2013  08:47:00      141.450       51.337       46.296       63.332       65.486       48.364     4010.900     4288.477     2339.124        1.771        0.532      150.478       38.621        0.066      340.222       14.092      866.337
05/20/2013  08:48:00       70.882       34.410       93.916       86.219      119.776       66.285     7433.721    14346.303     4393.646        2.060        1.309       78.793       83.494        1.123      340.580       14.696      866.336
05/20/2013  08:49:00       80.019      -28.643       52.604       65.635       88.752       72.980     4307.995     7876.879     5326.135        1.375        0.876       84.991       65.904        0.601      340.872       15.191      866.349
05/20/2013  08:50:00       71.709       52.530       10.818       94.711       63.653       29.829     8970.238     4051.658      889.791        1.096        0.696       88.891       23.082        0.067      340.143       13.961      866.357
05/20/2013  08:51:00       43.693      -78.095       25.588       61.550      114.149       60.445     3788.445    13030.031     3653.621        1.456        1.024       89.487       70.253        0.616      340.669       14.849      866.352
05/20/2013  08:52:00       60.282      -83.507       24.879       80.319      113.743       59.861     6451.220    12937.561     3583.379        1.709        1.149      102.992       68.507        0.442      340.786       15.046      866.362
05/20/2013  08:53:00      120.815     -232.256       -6.413       75.088      104.943       55.967     5638.233    11013.123     3132.325        4.418        0.989      261.800       65.124        0.062      340.391       14.375      866.342
05/20/2013  08:54:00      214.772     -207.614      -30.911       66.154       66.304       40.188     4376.382     4396.179     1615.084        5.028        0.519      298.715       21.772        0.005      340.464       14.499      866.341
05/20/2013  08:55:00      116.280      -28.471       81.992       87.466      101.143       74.592     7650.282    10229.959     5564.009        2.224        1.172      119.714       74.699        0.389      340.679       14.865      866.349
05/20/2013  08:56:00       80.703       20.583       82.654       74.798      116.449       65.536     5594.731    13560.365     4294.972        1.860        1.173       83.286       74.422        0.798      340.787       15.048      866.330
05/20/2013  08:57:00       70.512       50.414       59.217       53.796       62.772       48.384     2893.992     3940.286     2341.044        1.010        0.459       86.680       11.539        0.018      340.827       15.117      866.319
05/20/2013  08:58:00      116.305       62.368       94.467       93.852       81.189       71.808     8808.272     6591.600     5156.400        2.344        1.028      131.972       51.287        0.151      340.650       14.815      866.293
05/20/2013  08:59:00      123.048      -15.290       73.996      123.071      131.396       73.802    15146.478    17264.979     5446.791        2.935        1.893      123.994       85.960        0.481      340.821       15.105      866.267
05/20/2013  09:00:00      222.423      113.252       66.110      135.186      114.565      103.008    18275.305    13125.238    10610.720        5.433        2.101      249.596      100.552        0.162      340.534       14.618      866.253
05/20/2013  09:01:00      222.639      139.648       41.344       89.290       68.759       72.333     7972.721     4727.759     5232.028        4.435        0.897      262.811       53.965        0.042      340.617       14.759      866.244
05/20/2013  09:02:00      105.109      198.523      169.175       84.111       65.741       65.530     7074.714     4321.851     4294.126        4.738        0.785      224.632       52.793        0.055      340.768       15.012      866.242
05/20/2013  09:03:00      234.119      110.849       74.733       99.265      107.130       99.828     9853.485    11476.805     9965.654        5.198        1.565      259.035       81.790        0.100      340.451       14.475      866.226
05/20/2013  09:04:00      143.572       99.834       95.603       98.453       88.320       71.029     9692.946     7800.353     5045.147        3.112        1.127      174.870       58.482        0.112      340.793       15.058      866.203
05/20/2013  09:05:00      148.484       90.440       65.986       66.588       70.116       67.323     4433.940     4916.208     4532.335        2.423        0.694      173.859       49.506        0.081      340.898       15.234      866.211
05/20/2013  09:06:00      100.739       43.228       61.894       78.173       73.410       55.838     6110.994     5388.999     3117.901        1.523        0.731      109.622       44.185        0.162      340.904       15.246      866.209
05/20/2013  09:07:00      185.649      131.900      105.127      139.500       91.317       89.456    19460.154     8338.731     8002.393        4.935        1.790      227.734       80.208        0.124      340.818       15.099      866.191
05/20/2013  09:08:00      224.498       79.450       46.585      114.039       84.486       74.498    13004.900     7137.815     5549.957        4.228        1.285      238.143       56.651        0.057      340.780       15.034      866.195
05/20/2013  09:09:00       79.870       14.691       79.367       89.993       82.420       76.694     8098.809     6793.055     5881.931        1.683        1.039       81.210       47.861        0.347      341.099       15.578      866.195
05/20/2013  09:10:00      116.287       17.249      100.174      113.393      138.688       86.649    12857.910    19234.486     7508.121        3.172        1.980      117.559      106.090        0.814      340.732       14.953      866.187
05/20/2013  09:11:00       75.482       28.904       83.191       74.245      116.578       78.295     5512.292    13590.542     6130.031        1.934        1.262       80.827       87.599        1.175      340.768       15.016      866.188
05/20/2013  09:12:00       21.397       71.868       91.336       40.698       68.813       52.073     1656.304     4735.240     2711.615        1.153        0.455       74.986       54.038        0.519      340.943       15.313      866.180
05/20/2013  09:13:00      102.417      -16.816       88.548      122.213      138.318      104.850    14935.909    19131.914    10993.526        3.183        2.253      103.789      100.336        0.935      341.159       15.676      866.182
05/20/2013  09:14:00       58.024        7.640       61.142       73.573       98.353       60.068     5412.938     9673.236     3608.180        1.293        0.935       58.525       47.516        0.659      340.948       15.321      866.187
05/20/2013  09:15:00      144.218      -34.127       37.214       87.366      150.524       91.926     7632.747    22657.338     8450.439        3.104        1.937      148.200      105.833        0.510      340.927       15.284      866.173
05/20/2013  09:16:00      256.163      185.399       60.817      136.879       87.081       64.520    18735.750     7583.115     4162.783        6.708        1.524      316.215       28.060        0.008      340.779       15.033      866.162
05/20/2013  09:17:00      198.457      139.926       54.785      112.663       84.903       79.859    12692.943     7208.560     6377.405        4.412        1.314      242.826       67.409        0.077      341.099       15.574      866.145
05/20/2013  09:18:00      175.383       47.140       92.472      129.072      114.998      101.880    16659.617    13224.545    10379.496        4.089        2.013      181.608       79.395        0.191      341.107       15.589      866.131
05/20/2013  09:19:00      114.989       96.894       98.133      126.090       83.507       79.598    15898.760     6973.398     6335.893        3.072        1.460      150.370       39.067        0.067      341.083       15.548      866.102
05/20/2013  09:20:00      205.258     -176.662       42.898      176.285      196.224      110.257    31076.357    38503.738    12156.595        7.844        4.087      270.814      135.069        0.249      341.274       15.870      866.094
05/20/2013  09:21:00      218.350     -137.366       57.009      185.801      254.656      151.983    34521.903    64849.597    23098.732        9.611        6.124      257.965      195.456        0.574      340.998       15.404      866.102
05/20/2013  09:22:00      271.962     -271.955      -21.451      156.072      164.242       91.256    24358.452    26975.426     8327.688       10.401        2.983      384.608      114.818        0.089      340.749       14.981      866.127
05/20/2013  09:23:00      133.383     -239.314      -11.420       83.854       95.819       63.431     7031.493     9181.327     4023.451        4.771        1.012      273.975       46.080        0.028      340.807       15.079      866.119
05/20/2013  09:24:00      135.862       34.412       54.501      136.479      111.973       63.548    18626.626    12538.046     4038.406        2.890        1.760      140.152       57.708        0.170      341.094       15.566      866.124
05/20/2013  09:25:00      103.488       79.011       90.884       88.506      104.255       77.575     7833.237    10869.002     6017.885        2.496        1.236      130.202       51.885        0.159      341.194       15.737      866.129
05/20/2013  09:26:00       23.788       41.940       41.614       71.386       56.575       47.530     5096.020     3200.698     2259.085        0.730        0.528       48.216       27.289        0.320      341.184       15.720      866.107
05/20/2013  09:27:00      161.265       63.851       59.952      155.792      129.388       74.819    24271.198    16741.375     5597.812        4.013        2.331      173.446       61.119        0.124      341.497       16.250      866.079
05/20/2013  09:28:00      269.966      148.638       98.267      209.656      147.437       95.325    43955.837    21737.565     9086.868        8.969        3.739      308.180      101.793        0.109      340.955       15.329      866.034
05/20/2013  09:29:00       54.351       88.557      130.180       90.067      121.141       80.276     8111.990    14675.106     6444.178        2.848        1.462      103.906       83.987        0.653      341.488       16.233      866.029
05/20/2013  09:30:00       92.924       27.341       76.497      109.046       94.183       63.066    11891.036     8870.396     3977.267        1.998        1.237       96.863       50.572        0.273      341.397       16.081      866.026
05/20/2013  09:31:00      160.335       77.724       84.453      136.651      108.282       77.412    18673.405    11724.950     5992.563        3.763        1.820      178.180       60.848        0.117      341.308       15.929      866.016
05/20/2013  09:32:00      292.193      152.485      122.081      176.698      145.573      120.832    31222.299    21191.577    14600.454        9.526        3.351      329.589       88.572        0.072      340.957       15.332      865.988
05/20/2013  09:33:00      189.874      -85.193       45.673      176.744      201.276      106.469    31238.500    40512.110    11335.615        6.422        4.154      208.111      119.491        0.330      341.240       15.814      865.997
05/20/2013  09:34:00      302.607     -324.512      -51.204      169.642      219.685      104.646    28778.246    48261.408    10950.736       14.373        4.400      443.710      106.939        0.058      341.171       15.696      865.976
05/20/2013  09:35:00      129.784     -166.355       -2.601       93.079      170.229       90.109     8663.651    28977.773     8119.624        4.513        2.288      210.992       96.868        0.211      341.171       15.697      865.988
05/20/2013  09:36:00       76.560     -112.027       34.325      108.928      184.404       95.947    11865.273    34004.922     9205.796        3.732        2.754      135.689      120.787        0.792      341.172       15.697      865.954
05/20/2013  09:37:00       13.588     -116.906       33.281      102.689       94.622       75.600    10545.055     8953.295     5715.363        2.008        1.261      117.693       46.047        0.153      341.357       16.012      865.937
05/20/2013  09:38:00       53.698      -43.990       40.114       72.377       70.819       68.792     5238.465     5015.332     4732.404        1.070        0.749       69.416       50.390        0.527      341.323       15.955      865.912
05/20/2013  09:39:00       32.395       -3.957       92.796       66.035      129.548       81.481     4360.629    16782.632     6639.165        1.872        1.389       32.636       92.049        7.955      341.296       15.910      865.904
05/20/2013  09:40:00      112.735       27.638      107.393      116.619      180.228       89.360    13599.914    32481.960     7985.258        3.953        2.703      116.073      102.008        0.772      341.314       15.938      865.891
05/20/2013  09:41:00      104.012      -71.743       58.971      126.508      178.983      107.661    16004.339    32034.762    11590.988        3.952        2.982      126.355      119.155        0.889      341.365       16.025      865.881
05/20/2013  09:42:00      154.429      137.491       76.401      109.704       85.447       71.886    12034.970     7301.138     5167.554        3.654        1.225      206.766       53.719        0.068      341.198       15.742      865.875
05/20/2013  09:43:00      231.511      125.105       85.677      142.187      116.093      107.850    20217.096    13477.484    11631.535        6.095        2.266      263.152       64.160        0.059      341.261       15.847      865.848
05/20/2013  09:44:00      280.058      145.247      114.446      143.661      113.594      124.463    20638.419    12903.626    15491.136        8.082        2.452      315.483       89.648        0.081      340.882       15.206      865.849
05/20/2013  09:45:00      108.420      -79.710       65.844      168.960      217.032      116.598    28547.550    47102.827    13595.202        5.583        4.462      134.568      141.317        1.103      341.226       15.789      865.869
05/20/2013  09:46:00      199.365     -271.935       -2.769      165.217      206.110      123.398    27296.783    42481.446    15227.065        9.934        4.250      337.187      134.435        0.159      340.808       15.081      865.838
05/20/2013  09:47:00      229.121     -319.462      -52.582      149.585      162.862       77.448    22375.650    26524.068     5998.192       10.610        2.745      393.131       92.169        0.055      341.097       15.571      865.813
05/20/2013  09:48:00      136.990     -152.141       18.466      103.049      162.699       77.775    10619.068    26471.039     6048.962        4.269        2.157      204.727       88.089        0.185      341.505       16.263      865.810
05/20/2013  09:49:00      126.041      -81.226       29.341      139.182      146.470       82.916    19371.637    21453.450     6875.094        3.551        2.385      149.946      102.151        0.464      341.309       15.930      865.790
05/20/2013  09:50:00      118.370     -174.147      -12.280       88.024       94.081       64.408     7748.209     8851.240     4148.363        3.261        1.037      210.567       54.872        0.068      341.407       16.096      865.805
05/20/2013  09:51:00       38.707      -95.297       44.390       80.883      102.905       63.822     6542.030    10589.398     4073.298        1.687        1.060      102.858       55.166        0.288      341.726       16.638      865.812
05/20/2013  09:52:00      133.969     -248.226       -0.435       99.622      131.880       58.105     9924.603    17392.450     3376.193        5.512        1.535      282.070       54.522        0.037      341.002       15.409      865.815
05/20/2013  09:53:00        7.817      -66.422       49.245       83.086      109.126       76.645     6903.204    11908.387     5874.425        1.579        1.234       66.881       77.728        1.351      341.369       16.034      865.761
05/20/2013  09:54:00      128.813      -91.487       51.007      137.165      194.101      105.204    18814.166    37675.040    11067.962        4.755        3.378      157.996      125.688        0.633      341.333       15.972      865.766
05/20/2013  09:55:00      125.414      -29.724       86.840      110.094      155.304      110.972    12120.694    24119.350    12314.765        3.634        2.428      128.889      101.805        0.624      341.617       16.452      865.779
05/20/2013  09:56:00      142.894        5.091       76.536      120.987      121.574       79.648    14637.873    14780.120     6343.736        3.102        1.788      142.984       82.523        0.333      341.113       15.598      865.830
05/20/2013  09:57:00       78.621        7.349       97.276      119.287      141.406      100.609    14229.388    19995.700    10122.241        3.001        2.217       78.964       91.964        1.356      341.181       15.713      865.802
05/20/2013  09:58:00      125.283       58.747       80.767      140.794      124.518       91.498    19822.876    15504.826     8371.939        3.468        2.185      138.372       89.346        0.417      341.130       15.627      865.750
05/20/2013  09:59:00      227.688      128.303      126.327      166.119      119.572      103.887    27595.443    14297.376    10792.427        6.846        2.634      261.349      101.516        0.151      341.109       15.591      865.769
05/20/2013  10:00:00      165.665      116.520      127.841      159.241      127.151       97.722    25357.645    16167.387     9549.502        5.421        2.554      202.538       71.533        0.125      341.141       15.645      865.777
05/20/2013  10:01:00      147.926       78.977      101.273      138.655      117.059      105.841    19225.259    13702.874    11202.261        4.124        2.207      167.688       99.028        0.349      341.258       15.843      865.783
05/20/2013  10:02:00      194.800      138.399      155.101      148.617      114.811      110.330    22086.954    13181.519    12172.614        6.429        2.372      238.959       91.698        0.147      340.994       15.396      865.753
05/20/2013  10:03:00      267.168      146.243       71.952      137.842      113.287      110.025    19000.302    12833.980    12105.569        7.093        2.197      304.575       85.789        0.079      340.981       15.371      865.753
05/20/2013  10:04:00      140.665      110.313       67.572      109.537       65.369       52.332    11998.314     4273.147     2738.647        2.776        0.951      178.762       34.551        0.037      340.982       15.378      865.749
05/20/2013  10:05:00       54.635       52.600       52.299       51.065       56.548       49.236     2607.670     3197.660     2424.223        0.836        0.411       75.841       30.685        0.164      341.513       16.278      865.752
05/20/2013  10:06:00      112.143       85.850       73.835      116.841       90.327       71.065    13651.792     8158.959     5050.168        2.612        1.343      141.232       51.252        0.132      341.468       16.200      865.740
05/20/2013  10:07:00       89.070       56.309      100.080       97.241       98.358       68.339     9455.723     9674.349     4670.154        2.246        1.190      105.376       40.476        0.148      341.452       16.174      865.744
05/20/2013  10:08:00      133.404      -72.025       48.863      137.763      181.303      101.022    18978.750    32870.895    10205.516        4.370        3.103      151.606      117.592        0.602      341.548       16.336      865.729
05/20/2013  10:09:00      154.035      -80.578       53.200      146.238      188.241      121.070    21385.647    35434.537    14658.037        5.225        3.574      173.838      149.526        0.740      341.656       16.518      865.705
05/20/2013  10:10:00       51.349      -85.231       48.927       93.301      125.063       77.015     8705.162    15640.777     5931.322        2.128        1.514       99.504       63.860        0.412      341.727       16.639      865.712
05/20/2013  10:11:00      108.370     -213.351        6.397      109.842      123.884       79.913    12065.365    15347.337     6386.116        4.554        1.690      239.297       89.498        0.140      341.419       16.117      865.694
05/20/2013  10:12:00      156.116     -255.271      -47.682       91.110      110.719       64.556     8300.985    12258.603     4167.438        5.826        1.236      299.225       61.883        0.043      341.190       15.728      865.686
05/20/2013  10:13:00      186.163      -80.717       73.512      158.602      309.688      198.456    25154.654    95906.802    39384.694       10.348        8.022      202.909      227.858        1.261      341.334       15.971      865.653
05/20/2013  10:14:00      106.818      -34.596      100.936      107.909      161.190      103.936    11644.322    25982.142    10802.786        3.560        2.421      112.281      113.392        1.020      341.380       16.051      865.696
05/20/2013  10:15:00       30.119       12.913       39.403       64.017       80.127       63.961     4098.231     6420.318     4091.042        0.862        0.730       32.770       49.505        2.282      341.579       16.392      865.703
05/20/2013  10:16:00       48.548       25.546       51.202       77.389       58.953       43.943     5988.999     3475.478     1931.016        0.851        0.570       54.859       31.557        0.331      341.738       16.659      865.700
05/20/2013  10:17:00      223.886      -60.705       62.772      153.178      149.345       76.602    23463.420    22303.983     5867.817        5.468        2.582      231.970       85.468        0.136      341.411       16.103      865.674
05/20/2013  10:18:00      265.358      201.389       80.569      204.058       97.735       99.363    41639.827     9552.045     9873.046        8.925        3.053      333.126       86.466        0.067      341.496       16.247      865.687
05/20/2013  10:19:00      192.212       69.591       40.450      137.745      133.149       70.126    18973.653    17728.618     4917.661        4.251        2.081      204.422       28.242        0.019      341.493       16.241      865.703
05/20/2013  10:20:00      171.931       91.221       54.661      120.302       93.688       60.757    14472.500     8777.406     3691.469        3.390        1.347      194.632       38.174        0.038      341.680       16.558      865.706
05/20/2013  10:21:00      155.198      114.451       51.335       85.924       69.077       46.928     7382.876     4771.640     2202.238        2.709        0.718      192.835       42.775        0.049      341.272       15.869      865.690
05/20/2013  10:22:00      106.672      -41.212       42.529       86.740       81.320       65.968     7523.842     6612.907     4351.782        1.668        0.924      114.356       57.803        0.255      341.724       16.634      865.708
05/20/2013  10:23:00      134.129     -107.915       -0.062      121.402      105.861       73.303    14738.417    11206.515     5373.294        3.047        1.566      172.152       78.262        0.207      341.950       17.018      865.695
05/20/2013  10:24:00      110.647       39.569       90.632       87.579      133.108       90.778     7670.015    17717.798     8240.617        2.782        1.681      117.510       94.046        0.641      341.987       17.080      865.705
05/20/2013  10:25:00      264.943      142.765       51.729      154.057       99.699       88.047    23733.658     9939.888     7752.276        6.733        2.071      300.960       64.582        0.046      341.357       16.008      865.694
05/20/2013  10:26:00      208.902      121.347       43.064      148.688       94.457       63.813    22108.112     8922.187     4072.083        4.765        1.755      241.589       19.618        0.007      341.370       16.034      865.667
05/20/2013  10:27:00      340.939      183.367       48.307      112.302      105.782       91.872    12611.822    11189.825     8440.468        9.221        1.612      387.121       39.041        0.010      341.388       16.061      865.629
05/20/2013  10:28:00      298.164      112.987      105.464      179.959      157.211      126.918    32385.335    24715.343    16108.063        9.298        3.660      318.854      102.784        0.104      341.413       16.106      865.621
05/20/2013  10:29:00      145.085      138.440      166.516      139.821      127.787       97.037    19549.813    16329.455     9416.143        5.661        2.265      200.538       93.978        0.220      341.495       16.244      865.597
05/20/2013  10:30:00      193.540      160.417      122.291      174.789      116.372       98.130    30551.291    13542.532     9629.494        6.592        2.686      251.379       74.404        0.088      341.853       16.851      865.634
05/20/2013  10:31:00      213.074       69.152       95.399      191.508      122.561       93.415    36675.339    15021.231     8726.420        5.984        3.021      224.015       99.799        0.198      341.426       16.129      865.673
05/20/2013  10:32:00      160.427      135.306       75.671      113.003      110.465      100.291    12769.649    12202.516    10058.323        4.239        1.752      209.868       79.323        0.143      341.599       16.420      865.663
05/20/2013  10:33:00      168.868       90.699       77.113      105.738      120.665       81.439    11180.450    14560.117     6632.310        3.752        1.619      191.684       77.520        0.164      341.537       16.317      865.673
05/20/2013  10:34:00       68.679       27.797       37.416       90.645       77.119       48.717     8216.513     5947.290     2373.373        1.171        0.827       74.091       35.730        0.233      341.819       16.797      865.656
05/20/2013  10:35:00      -13.917       21.078       34.231       50.649       54.082       51.390     2565.272     2924.849     2640.940        0.497        0.407       25.257       30.436        1.452      342.345       17.690      865.664
05/20/2013  10:36:00      328.907      181.737       76.649      141.302      140.314       93.267    19966.313    19688.127     8698.659        9.771        2.418      375.777       75.251        0.040      341.753       16.681      865.640
05/20/2013  10:37:00      238.015      179.597      126.896      150.780      124.405       98.019    22734.743    15476.655     9607.686        7.640        2.391      298.171       75.585        0.064      341.765       16.702      865.615
05/20/2013  10:38:00      138.839       32.384       91.243      160.366      147.080      103.017    25717.390    21632.509    10612.493        4.329        2.898      142.566       93.482        0.430      341.767       16.705      865.630
05/20/2013  10:39:00      213.486     -211.031       14.215      144.197      169.370      114.018    20792.722    28686.355    13000.120        7.638        3.124      300.184      112.837        0.141      341.719       16.623      865.593
05/20/2013  10:40:00      120.557      117.857      155.804      123.661      164.004      105.725    15292.089    26897.347    11177.691        5.302        2.668      168.595       96.165        0.325      341.743       16.664      865.593
05/20/2013  10:41:00      294.130      161.995       22.330      112.666       88.952       75.307    12693.557     7912.532     5671.214        6.976        1.314      335.790       50.040        0.022      341.726       16.635      865.600
05/20/2013  10:42:00      244.294      154.433       36.007      115.530       89.545       71.340    13347.093     8018.306     5089.382        5.563        1.323      289.014       57.975        0.040      341.928       16.979      865.617
05/20/2013  10:43:00      119.882       87.290       31.193      118.874       75.620       65.394    14130.926     5718.373     4276.310        2.354        1.206      148.294       28.259        0.036      341.695       16.584      865.621
05/20/2013  10:44:00      290.180      162.000       51.022      160.038      140.890       87.600    25612.296    19850.093     7673.838        8.308        2.657      332.338       73.573        0.049      341.728       16.639      865.603
05/20/2013  10:45:00      223.866      152.496       59.724      122.230      116.870       85.586    14940.069    13658.488     7324.881        5.642        1.796      270.871       56.438        0.043      341.810       16.778      865.618
05/20/2013  10:46:00      171.663      150.548      100.300      137.877      100.819      100.228    19009.948    10164.380    10045.667        5.070        1.961      228.327       68.978        0.091      341.679       16.556      865.634
05/20/2013  10:47:00      208.670      118.040       64.471       71.337       55.594       51.289     5089.003     3090.724     2630.552        3.622        0.541      239.743       29.329        0.015      341.310       15.929      865.629
05/20/2013  10:48:00      169.583       79.717      107.619      162.882      129.201      105.820    26530.657    16692.993    11197.909        5.055        2.721      187.385       90.113        0.231      341.728       16.639      865.594
05/20/2013  10:49:00      140.772      109.755      166.504      189.816      132.197      102.728    36029.988    17475.966    10553.006        6.181        3.203      178.502      109.265        0.375      341.742       16.661      865.628
05/20/2013  10:50:00      108.247       79.038      123.552       97.666      113.860       92.629     9538.648    12964.148     8580.209        3.215        1.554      134.031       86.984        0.421      341.978       17.064      865.612
05/20/2013  10:51:00      222.188      163.123      119.771      115.448      118.062      105.623    13328.311    13938.745    11156.134        6.436        1.921      275.639       82.133        0.089      341.860       16.862      865.623
05/20/2013  10:52:00       94.475       52.589       47.698      148.127      115.729       79.351    21941.623    13393.300     6296.533        2.779        2.082      108.125       56.460        0.273      342.124       17.314      865.629
05/20/2013  10:53:00      293.211      167.415       36.801      128.436       85.737       90.509    16495.699     7350.800     8191.839        7.369        1.602      337.640       40.460        0.014      341.480       16.217      865.633
05/20/2013  10:54:00      107.162       85.708       51.341       81.098       82.444       74.958     6576.867     6797.061     5618.715        2.023        0.950      137.221       69.944        0.260      341.981       17.071      865.624
05/20/2013  10:55:00      146.638       70.377      102.242       84.240      138.232       87.760     7096.330    19107.959     7701.876        3.540        1.695      162.652       71.631        0.194      341.811       16.781      865.610
05/20/2013  10:56:00      192.862       68.585       94.044      211.193      157.468      107.479    44602.545    24796.121    11551.661        6.583        4.048      204.694       91.128        0.198      342.098       17.267      865.575
05/20/2013  10:57:00       95.334     -150.637        4.425      119.408      140.565       92.203    14258.361    19758.580     8501.320        3.715        2.126      178.270       88.450        0.246      342.131       17.323      865.624
05/20/2013  10:58:00      228.856      -47.348       90.407      193.833      176.463      106.568    37571.241    31139.306    11356.832        7.141        4.003      233.702      124.931        0.286      342.180       17.407      865.623
05/20/2013  10:59:00      125.196      -10.178       82.944      115.923      113.404       57.030    13438.137    12860.387     3252.438        2.610        1.478      125.609       55.128        0.193      342.040       17.169      865.600
05/20/2013  11:00:00       77.762       75.488       78.969       99.151       98.318       80.284     9830.946     9666.409     6445.589        2.196        1.297      108.376       66.473        0.376      342.240       17.510      865.613
05/20/2013  11:01:00       57.028       -5.086       89.098       84.991      154.305       84.421     7223.399    23809.955     7126.867        2.468        1.908       57.254      103.561        3.272      342.451       17.868      865.596
05/20/2013  11:02:00       86.197       57.949       80.793       75.822       85.298       59.136     5749.019     7275.828     3497.059        1.692        0.826      103.865       46.024        0.196      342.343       17.684      865.601
05/20/2013  11:03:00      160.194      103.775       62.581      126.190       80.447       78.967    15923.790     6471.678     6235.822        3.448        1.432      190.870       60.170        0.099      342.116       17.299      865.588
05/20/2013  11:04:00       90.601       67.092       44.727       58.609       51.499       54.846     3435.052     2652.107     3008.094        1.190        0.455      112.738       25.712        0.052      342.127       17.319      865.576
05/20/2013  11:05:00       94.652       28.409       21.857       98.655      108.832       48.096     9732.864    11844.386     2313.210        1.706        1.195       98.823       33.971        0.118      342.258       17.541      865.580
05/20/2013  11:06:00       35.558       -8.248       73.419       57.801       90.454       61.153     3340.988     8181.999     3739.711        1.099        0.763       36.502       44.517        1.487      342.869       18.580      865.582
05/20/2013  11:07:00       66.230       60.041       82.911       73.151       65.426       40.165     5351.090     4280.615     1613.203        1.305        0.562       89.394       30.686        0.118      342.412       17.803      865.595
05/20/2013  11:08:00      152.219     -150.574       -1.168      100.120      155.166       65.204    10024.004    24076.540     4251.536        4.209        1.918      214.110       69.708        0.106      341.946       17.009      865.587
05/20/2013  11:09:00      118.839      -73.962       21.502       75.808      123.394       55.676     5746.896    15225.989     3099.871        2.206        1.204      139.975       74.235        0.281      342.109       17.287      865.591
05/20/2013  11:10:00      113.895      -66.444       39.212      124.168      123.612       82.075    15417.699    15279.900     6736.280        2.817        1.872      131.860       87.213        0.437      342.006       17.114      865.576
05/20/2013  11:11:00      120.974     -176.313        2.997      100.106      170.032       68.755    10021.283    28911.047     4727.290        4.469        2.183      213.824       85.624        0.160      342.151       17.358      865.568
05/20/2013  11:12:00      107.785     -173.403        8.014       96.797      128.683       90.220     9369.565    16559.205     8139.647        3.790        1.703      204.172       75.375        0.136      342.119       17.302      865.584
05/20/2013  11:13:00      133.550      -51.602       46.864      115.153      154.488      108.891    13260.109    23866.631    11857.229        3.583        2.449      143.172      107.420        0.563      342.138       17.335      865.563
05/20/2013  11:14:00      182.907     -179.030      -32.936      105.468      137.809       80.456    11123.508    18991.186     6473.172        5.158        1.829      255.943       85.735        0.112      341.787       16.738      865.548
05/20/2013  11:15:00       73.828      -97.730       11.207       87.310       99.611       77.436     7623.032     9922.353     5996.378        1.933        1.177      122.482       81.421        0.442      342.165       17.382      865.538
05/20/2013  11:16:00       28.889      -56.899       40.088       81.542      129.408       80.194     6649.080    16746.558     6431.100        1.775        1.491       63.813       81.965        1.650      342.234       17.501      865.511
05/20/2013  11:17:00       49.950     -104.713       35.556       80.633      118.311       81.307     6501.751    13997.488     6610.834        2.091        1.356      116.016       69.585        0.360      342.595       18.113      865.509
05/20/2013  11:18:00      103.202     -240.522        5.667       90.031      143.166       71.567     8105.638    20496.513     5121.807        5.112        1.686      261.728       70.485        0.073      342.174       17.395      865.524
05/20/2013  11:19:00       95.661     -149.379        5.057       70.889      110.136       70.124     5025.306    12129.952     4917.402        2.678        1.104      177.384       69.267        0.152      342.094       17.261      865.513
05/20/2013  11:20:00      137.520     -163.173      -27.396      117.743      148.240       66.308    13863.379    21974.953     4396.693        4.325        2.012      213.394       74.756        0.123      341.973       17.057      865.489
05/20/2013  11:21:00       87.111     -113.764       21.411      111.729      154.652       80.197    12483.337    23917.091     6431.629        3.190        2.142      143.285       84.678        0.349      342.223       17.481      865.446
05/20/2013  11:22:00       81.818       62.679      182.827      114.808      181.972      106.882    13180.771    33113.687    11423.856        5.087        2.886      103.068      118.999        1.333      342.251       17.527      865.426
05/20/2013  11:23:00      112.423      -80.529       33.209      124.784      169.786      116.288    15570.996    28827.171    13522.925        3.906        2.896      138.289      133.256        0.929      342.277       17.572      865.463
05/20/2013  11:24:00       31.823        1.516      101.590       87.768       83.748       57.153     7703.198     7013.785     3266.483        1.466        0.899       31.859       48.778        2.344      342.565       18.062      865.476
05/20/2013  11:25:00      128.346      112.228       48.499      165.991      128.625       69.598    27553.165    16544.273     4843.858        4.017        2.447      170.493       47.348        0.077      342.437       17.843      865.476
05/20/2013  11:26:00      167.078       71.431       62.119      145.605      104.574       72.832    21200.935    10935.752     5304.429        3.715        1.872      181.707       38.010        0.044      342.284       17.584      865.450
05/20/2013  11:27:00      179.648        7.597      112.020      121.972      168.559      103.725    14877.286    28412.264    10758.837        4.945        2.702      179.808      116.748        0.422      342.230       17.492      865.454
05/20/2013  11:28:00       62.759       -6.589       69.133       75.146      109.970       66.993     5646.996    12093.366     4488.080        1.549        1.111       63.104       61.910        0.963      342.286       17.590      865.462
05/20/2013  11:29:00      132.474       92.954       95.619      102.336       89.787       84.320    10472.663     8061.789     7109.873        3.048        1.282      161.833       50.135        0.096      341.960       17.033      865.456
05/20/2013  11:30:00      105.167       56.673       84.407      109.186       97.137       78.116    11921.576     9435.601     6102.101        2.442        1.373      119.465       75.333        0.398      341.864       16.870      865.440
05/20/2013  11:31:00      290.765      151.810       89.583      144.253       91.802      127.710    20808.957     8427.549    16309.867        8.057        2.277      328.010       94.478        0.083      342.078       17.234      865.439
05/20/2013  11:32:00      241.227      127.988       24.337       95.381       94.976       83.534     9097.605     9020.517     6977.947        5.012        1.255      273.077       54.123        0.039      341.889       16.912      865.471
05/20/2013  11:33:00      171.072      136.089       34.336      118.579      100.189       83.037    14061.055    10037.860     6895.134        3.997        1.550      218.600       37.737        0.030      342.128       17.318      865.441
05/20/2013  11:34:00      106.259      -29.306        1.093      107.510      128.888       63.597    11558.443    16612.166     4044.589        2.218        1.611      110.226       55.826        0.257      342.297       17.606      865.445
05/20/2013  11:35:00       79.368       32.982      107.814      113.921      157.697      114.931    12978.080    24868.242    13209.052        3.502        2.553       85.949      124.564        2.100      342.549       18.032      865.472
05/20/2013  11:36:00      154.220     -141.672       51.971      136.676      213.951      101.566    18680.303    45774.889    10315.579        6.065        3.739      209.416      122.050        0.340      342.311       17.630      865.458
05/20/2013  11:37:00      107.786     -161.889       54.785      110.963      180.709      112.312    12312.846    32655.775    12614.050        4.919        2.879      194.488      117.103        0.363      342.461       17.885      865.449
05/20/2013  11:38:00      162.077     -117.125       27.007      144.953      182.204      102.740    21011.398    33198.198    10555.579        5.273        3.238      199.968       99.129        0.246      342.419       17.813      865.474
05/20/2013  11:39:00      104.942     -117.567       49.041       92.487      197.313       95.220     8553.912    38932.388     9066.838        4.188        2.828      157.591      106.620        0.458      342.384       17.753      865.482
05/20/2013  11:40:00       41.054       38.807       50.943       84.820       67.252       58.408     7194.464     4522.835     3411.535        1.045        0.756       56.493       48.728        0.744      342.665       18.234      865.483
05/20/2013  11:41:00       58.974     -137.782        7.120       56.961       96.183       52.194     3244.567     9251.238     2724.230        1.886        0.761      149.873       46.642        0.097      342.414       17.807      865.491
05/20/2013  11:42:00      200.176     -129.691       32.903      151.397      244.465      104.345    22921.190    59763.181    10887.945        7.575        4.679      238.517      148.242        0.386      342.390       17.763      865.481
05/20/2013  11:43:00      219.440     -237.239      -51.181      117.618      113.643       54.479    13834.078    12914.696     2967.983        6.838        1.486      323.166       62.486        0.037      342.138       17.336      865.485
05/20/2013  11:44:00       72.296      -50.638       38.741       84.818      122.032       87.982     7194.134    14891.875     7740.907        1.955        1.491       88.266       93.971        1.133      342.678       18.254      865.477
05/20/2013  11:45:00      240.101     -275.383      -29.248      159.321      159.872      108.712    25383.201    25559.082    11818.253        9.854        3.138      365.355      102.446        0.079      342.206       17.450      865.429
05/20/2013  11:46:00      107.108      -16.034       98.912      124.719      229.809      136.710    15554.801    52812.401    18689.698        5.427        4.353      108.302      172.119        2.526      342.069       17.217      865.453
05/20/2013  11:47:00       72.118     -262.914       -3.665      141.066      125.867       50.318    19899.630    15842.600     2531.949        5.630        1.914      272.625       55.423        0.041      342.109       17.286      865.433
05/20/2013  11:48:00       56.324      -83.347       45.252       76.642      105.466       71.431     5873.980    11123.164     5102.407        1.713        1.105      100.593       50.908        0.256      342.685       18.267      865.378
05/20/2013  11:49:00        9.227     -115.619       29.169       94.570      114.105       72.142     8943.546    13020.017     5204.490        2.073        1.358      115.987       47.473        0.168      342.474       17.907      865.351
05/20/2013  11:50:00      127.482     -289.722      -21.064       78.363       71.026       56.315     6140.812     5044.680     3171.391        5.749        0.718      316.529       49.164        0.024      342.059       17.200      865.356
05/20/2013  11:51:00       43.416       53.875       76.295       66.619      115.536       84.601     4438.064    13348.525     7157.247        1.777        1.247       69.192       81.853        1.399      342.432       17.836      865.340
05/20/2013  11:52:00       41.984       24.269       72.121       61.061       75.902       39.662     3728.429     5761.049     1573.054        0.931        0.553       48.494       29.352        0.366      342.880       18.600      865.338
05/20/2013  11:53:00      211.248      132.270       43.479       95.430       57.141       59.756     9106.841     3265.083     3570.766        3.997        0.797      249.241       30.247        0.015      342.251       17.528      865.332
05/20/2013  11:54:00       73.735       70.816        9.401       84.191       54.782       42.967     7088.081     3001.060     1846.200        1.124        0.597      102.233       16.179        0.025      342.620       18.157      865.322
05/20/2013  11:55:00       80.687       78.181       70.150       93.622       74.139       64.053     8765.109     5496.631     4102.844        1.795        0.918      112.351       49.923        0.197      342.848       18.544      865.303
05/20/2013  11:56:00      176.598       84.236       38.410       97.712       79.748       75.378     9547.663     6359.779     5681.839        3.067        1.079      195.660       39.831        0.041      342.936       18.692      865.281
05/20/2013  11:57:00      202.041      110.842       37.203      135.335      104.271       76.865    18315.650    10872.504     5908.304        4.479        1.755      230.448       57.264        0.062      342.776       18.420      865.254
05/20/2013  11:58:00      316.647      143.836       77.796      205.564      166.588      112.179    42256.694    27751.587    12584.150       10.478        4.130      347.785       75.413        0.047      342.625       18.162      865.235
05/20/2013  11:59:00      110.431       95.757       96.477      116.163       97.065       76.388    13493.872     9421.565     5835.168        2.971        1.438      146.166       53.066        0.132      343.059       18.901      865.258
05/20/2013  12:00:00      111.907       77.860      103.380      114.244      109.484       70.170    13051.681    11986.781     4923.863        2.961        1.498      136.328       56.223        0.170      343.101       18.974      865.263
05/20/2013  12:01:00      207.020     -290.599       17.384      141.204      169.494      108.567    19938.501    28728.118    11786.708        9.402        3.023      356.798      123.692        0.120      342.568       18.066      865.287
05/20/2013  12:02:00      166.037     -247.853      -13.814      104.415      110.020       78.553    10902.427    12104.386     6170.498        5.918        1.459      298.328       63.542        0.045      342.526       17.994      865.302
05/20/2013  12:03:00       37.436     -154.693       21.263       80.354      189.828       70.481     6456.762    36034.803     4967.571        3.661        2.373      159.159       89.723        0.318      342.798       18.458      865.282
05/20/2013  12:04:00       20.429       15.131      102.142       69.040      120.289       83.145     4766.472    14469.481     6913.084        1.861        1.307       25.422       84.161       10.960      342.992       18.789      865.278
05/20/2013  12:05:00       68.997     -159.478       22.172       70.329       95.967       48.846     4946.191     9209.606     2385.944        2.361        0.827      173.764       58.077        0.112      342.771       18.411      865.269
05/20/2013  12:06:00      108.793      -64.710       -0.387       85.067       88.777       49.642     7236.378     7881.398     2464.373        1.680        0.879      126.583       55.119        0.190      342.671       18.244      865.252
05/20/2013  12:07:00       71.224       -6.774       49.973       80.567      102.897       70.368     6491.121    10587.809     4951.654        1.482        1.102       71.546       71.440        0.997      342.697       18.288      865.234
05/20/2013  12:08:00       77.559      -90.856       67.842       82.632      143.408       83.947     6828.054    20565.892     7047.119        2.665        1.722      119.458       93.568        0.614      342.931       18.684      865.223
05/20/2013  12:09:00      261.347     -384.986      -40.023      131.195      152.371       80.830    17212.247    23216.998     6533.410       13.253        2.348      465.314      100.466        0.047      342.292       17.597      865.208
05/20/2013  12:10:00      114.963      -20.411      121.378      153.004      202.881      124.884    23410.156    41160.593    15595.928        5.425        4.008      116.761      154.829        1.758      342.735       18.351      865.226
05/20/2013  12:11:00      129.096        2.098      115.222      119.952      123.254       78.141    14388.584    15191.651     6105.953        3.281        1.784      129.113       86.692        0.451      342.901       18.634      865.250
05/20/2013  12:12:00       68.566      -55.438       42.572      109.446       99.743       60.156    11978.527     9948.741     3618.778        1.756        1.277       88.174       48.699        0.305      342.754       18.384      865.215
05/20/2013  12:13:00       -2.846      -32.771       33.321       35.097       89.986       43.918     1231.806     8097.559     1928.750        0.672        0.563       32.895       45.387        1.904      342.743       18.368      865.202
05/20/2013  12:14:00       21.688      -31.410       26.164       45.207       89.312       57.283     2043.695     7976.603     3281.318        0.772        0.665       38.170       61.550        2.600      342.812       18.483      865.191
05/20/2013  12:15:00       65.550      -87.280       16.324       76.034       85.609       58.530     5781.112     7328.964     3425.787        1.436        0.827      109.154       48.206        0.195      342.964       18.741      865.164
05/20/2013  12:16:00      223.592     -186.973      -27.970      101.677      123.551       85.133    10338.126    15264.875     7247.592        5.929        1.643      291.466       80.883        0.077      342.580       18.085      865.132
05/20/2013  12:17:00      171.852     -221.740       -1.853       81.619      169.088       89.184     6661.614    28590.908     7953.725        6.095        2.160      280.538      105.746        0.142      342.546       18.028      865.122
05/20/2013  12:18:00       33.475       -7.470       60.556       60.699      101.920       67.419     3684.344    10387.651     4545.302        1.173        0.931       34.298       68.566        3.996      342.761       18.396      865.110
05/20/2013  12:19:00       54.462       12.551       14.781       59.352       75.591       39.091     3522.614     5713.944     1528.093        0.705        0.538       55.889        9.520        0.029      342.792       18.450      865.076
05/20/2013  12:20:00      152.126      105.704       52.936       68.871       60.639       55.620     4743.155     3677.092     3093.577        2.431        0.576      185.245       27.067        0.021      342.890       18.613      865.056
05/20/2013  12:21:00      103.325       68.780       18.540       94.906       83.151       57.082     9007.131     6914.023     3258.394        1.746        0.959      124.124       35.156        0.080      342.561       18.056      865.039
05/20/2013  12:22:00      199.508      105.577       40.903      163.169      110.274       71.104    26624.139    12160.398     5055.840        4.822        2.192      225.721       44.492        0.039      343.163       19.078      865.014
05/20/2013  12:23:00      109.965       67.755       46.672       99.049      109.206       58.025     9810.761    11925.887     3366.874        2.198        1.255      129.163       37.719        0.085      342.812       18.483      865.020
05/20/2013  12:24:00      161.839       95.406       88.109      123.450       84.108       75.793    15239.987     7074.081     5744.583        3.555        1.403      187.868       58.171        0.096      343.043       18.875      864.996
05/20/2013  12:25:00       82.332       67.870      113.324       94.377      130.824       81.684     8906.984    17114.865     6672.287        2.845        1.635      106.700       67.230        0.397      343.344       19.386      864.998
05/20/2013  12:26:00      129.444      119.238       94.302      111.157       82.485       63.499    12355.839     6803.821     4032.063        3.152        1.160      175.992       34.101        0.038      343.176       19.101      864.996
05/20/2013  12:27:00      118.795        0.636       37.491       92.239      126.878       59.436     8508.009    16098.043     3532.636        2.182        1.407      118.796       49.086        0.171      343.025       18.844      864.974
05/20/2013  12:28:00       66.517       35.606       33.326       68.745      122.346       66.169     4725.882    14968.512     4378.369        1.543        1.204       75.448       49.404        0.429      343.111       18.991      864.948
05/20/2013  12:29:00       47.879       72.978       57.562       51.589       55.159       47.442     2661.382     3042.481     2250.781        0.944        0.398       87.282       26.352        0.091      342.807       18.476      864.933
05/20/2013  12:30:00        8.881       54.798        4.353       49.425       62.504       36.242     2442.817     3906.739     1313.514        0.538        0.383       55.513       38.028        0.469      343.020       18.839      864.920
05/20/2013  12:31:00       36.501       41.717       16.075       55.998       45.142       33.009     3135.808     2037.822     1089.610        0.480        0.313       55.431       21.994        0.157      343.119       19.006      864.894
05/20/2013  12:32:00      160.367      106.312       80.092      120.036       92.541       88.404    14408.729     8563.792     7815.329        3.710        1.539      192.405       76.339        0.157      343.029       18.851      864.888
05/20/2013  12:33:00      258.140      151.256      164.991      156.921      118.562      121.546    24624.320    14056.909    14773.378        8.508        2.673      299.190       87.594        0.086      342.674       18.245      864.865
05/20/2013  12:34:00      244.320      136.049      117.051      138.804      127.753      103.109    19266.588    16320.952    10631.386        6.905        2.311      279.646       90.590        0.105      342.680       18.257      864.863
05/20/2013  12:35:00       66.951       70.427       86.752       87.808       91.833       61.542     7710.164     8433.258     3787.401        1.845        0.997       97.172       54.672        0.317      342.910       18.650      864.840
05/20/2013  12:36:00      220.037      160.524      104.798      138.815      127.249      111.337    19269.602    16192.307    12395.890        6.650        2.393      272.368      107.951        0.157      343.080       18.938      864.832
05/20/2013  12:37:00      330.797      154.604       39.908      130.064      113.124       71.858    16916.702    12796.978     5163.535        8.489        1.744      365.142       43.279        0.014      342.631       18.173      864.818
05/20/2013  12:38:00      251.913      109.117       46.509      145.065      101.864       77.864    21043.795    10376.322     6062.874        5.750        1.874      274.530       58.707        0.046      342.955       18.724      864.778
05/20/2013  12:39:00      167.882       81.100       53.809      120.393      100.956       75.844    14494.441    10192.026     5752.381        3.404        1.522      186.444       36.071        0.037      343.406       19.493      864.755
05/20/2013  12:40:00      317.631      168.340       55.677      185.185      147.788      105.045    34293.526    21841.291    11034.437        9.973        3.358      359.483       82.008        0.052      342.941       18.702      864.736
05/20/2013  12:41:00      210.132      153.238       36.919      113.728       84.861       86.070    12934.129     7201.381     7408.085        4.827        1.377      260.072       59.467        0.052      342.834       18.519      864.747
05/20/2013  12:42:00      108.818       15.081       67.370      117.415      140.015       77.166    13786.222    19604.213     5954.617        2.797        1.967      109.858       70.465        0.411      343.228       19.189      864.731
05/20/2013  12:43:00       69.680       12.836       57.000       99.284      126.098       75.048     9857.323    15900.793     5632.162        1.982        1.570       70.853       68.349        0.931      343.439       19.549      864.734
05/20/2013  12:44:00       88.904       58.148       68.000       92.711       80.813       57.943     8595.350     6530.758     3357.370        1.719        0.924      106.232       51.376        0.234      342.951       18.720      864.717
05/20/2013  12:45:00       20.245       49.878       90.266       63.361       47.559       43.750     4014.648     2261.861     1914.041        0.962        0.410       53.830       29.229        0.295      343.419       19.518      864.701
05/20/2013  12:46:00      122.423       96.977       25.618       73.836       46.988       51.955     5451.720     2207.894     2699.345        1.770        0.518      156.180       36.789        0.055      343.238       19.210      864.714
05/20/2013  12:47:00       53.090       96.467        9.376       74.616       69.183       57.430     5567.486     4786.350     3298.169        1.293        0.683      110.111       48.414        0.193      343.080       18.939      864.701
05/20/2013  12:48:00       66.388      -74.518       -8.400       66.551      100.274       36.415     4429.017    10054.918     1326.059        1.292        0.790       99.801       28.154        0.080      343.363       19.421      864.675
05/20/2013  12:49:00      100.831       44.777       53.525       63.738      109.616       65.177     4062.490    12015.644     4248.007        1.768        1.016      110.326       49.099        0.198      343.362       19.421      864.665
05/20/2013  12:50:00      160.109      118.615       71.088      148.389      129.595       72.154    22019.348    16794.758     5206.187        4.438        2.201      199.260       79.967        0.161      342.955       18.724      864.656
05/20/2013  12:51:00      194.998      125.078       27.248       89.242       99.391       57.111     7964.065     9878.604     3261.652        3.775        1.055      231.665       33.473        0.021      342.614       18.143      864.647
05/20/2013  12:52:00      196.000       98.174       56.093      145.391      103.987       93.730    21138.489    10813.237     8785.263        4.596        2.037      219.213       57.478        0.069      342.985       18.775      864.620
05/20/2013  12:53:00      236.853      169.193       22.336      165.541      110.355       72.068    27403.788    12178.142     5193.742        6.499        2.239      291.076       56.877        0.038      342.672       18.243      864.617
05/20/2013  12:54:00      205.245      115.960       43.980      139.560       89.454       77.017    19477.096     8002.088     5931.643        4.545        1.671      235.738       18.338        0.006      343.316       19.339      864.598
05/20/2013  12:55:00      135.285      103.375       24.550       99.600       73.197       71.994     9920.136     5357.811     5183.194        2.502        1.023      170.260       46.447        0.074      343.135       19.031      864.597
05/20/2013  12:56:00      213.022      158.744       20.903      148.846      108.877      103.166    22155.029    11854.222    10643.144        5.782        2.233      265.665       60.338        0.052      343.102       18.974      864.581
05/20/2013  12:57:00      174.125      168.454       11.960      151.253      121.872       79.432    22877.605    14852.809     6309.446        5.143        2.202      242.274       62.201        0.066      342.857       18.557      864.582
05/20/2013  12:58:00        2.175      165.672       -8.799       68.323      112.001       52.577     4668.087    12544.276     2764.312        2.375        0.999      165.686       59.485        0.129      343.043       18.875      864.560
05/20/2013  12:59:00       37.632      112.411        4.577       82.781       75.353       41.425     6852.755     5678.035     1716.009        1.416        0.712      118.543       46.293        0.153      343.166       19.086      864.515
05/20/2013  13:00:00      277.814      192.997       27.991      143.277       93.344       78.848    20528.177     8713.108     6216.995        7.533        1.773      338.273       37.036        0.012      343.341       19.382      864.511
05/20/2013  13:01:00      194.600      144.974       14.819      145.065      108.594       79.105    21043.884    11792.556     6257.640        4.909        1.955      242.666       61.112        0.063      343.469       19.600      864.515
05/20/2013  13:02:00      427.561      246.253       53.130      205.094      156.484      105.185    42063.352    24487.135    11063.893       16.193        3.881      493.406       57.616        0.014      343.144       19.046      864.457
05/20/2013  13:03:00      190.722      104.436       73.432      194.223      124.331      108.245    37722.494    15458.280    11716.921        5.877        3.245      217.444      107.381        0.244      343.579       19.788      864.459
05/20/2013  13:04:00      234.785      207.049      161.278      158.503      128.096      117.520    25123.156    16408.601    13811.024        8.966        2.767      313.039       97.576        0.097      343.666       19.935      864.462
05/20/2013  13:05:00      171.078       32.772       64.924      100.244      113.628       86.380    10048.817    12911.411     7461.474        3.248        1.521      174.188       55.577        0.102      343.829       20.214      864.462
05/20/2013  13:06:00      124.946       82.466      109.397      100.141      102.032       70.994    10028.167    10410.440     5040.137        2.992        1.274      149.707       43.774        0.085      344.041       20.576      864.455
05/20/2013  13:07:00      153.572      153.398       85.632      167.840      114.279       93.135    28170.361    13059.671     8674.043        5.217        2.495      217.061       88.035        0.164      343.827       20.210      864.462
05/20/2013  13:08:00      310.257      196.559       36.642      205.755      139.456       81.049    42335.191    19448.106     6568.907       10.228        3.418      367.280       57.294        0.024      343.088       18.951      864.432
05/20/2013  13:09:00       75.626       76.237       42.653      103.176       84.524       65.259    10645.204     7144.266     4258.697        1.769        1.102      107.385       42.401        0.156      343.601       19.826      864.406
05/20/2013  13:10:00       98.765       60.636       90.124       81.060       77.241       68.147     6570.646     5966.242     4644.054        1.936        0.859      115.893       47.727        0.170      343.124       19.015      864.411
05/20/2013  13:11:00      160.329      175.919      169.496      127.772       94.785       79.146    16325.674     8984.182     6264.134        5.847        1.579      238.019       72.297        0.092      343.344       19.386      864.364
05/20/2013  13:12:00       95.461      -53.697       35.088      124.775       96.445       73.624    15568.914     9301.616     5420.561        2.175        1.515      109.527       68.115        0.387      343.405       19.492      864.373
05/20/2013  13:13:00      186.495     -255.721       -9.912      144.931      128.167       81.315    21004.941    16426.724     6612.146        7.215        2.202      316.502       66.866        0.045      343.310       19.328      864.317
05/20/2013  13:14:00      116.913     -196.272      -33.584       74.625       78.953       48.117     5568.964     6233.576     2315.290        3.372        0.706      228.454       44.160        0.037      343.163       19.077      864.296
05/20/2013  13:15:00      105.089     -104.951       13.943      102.505      108.321       71.794    10507.213    11733.528     5154.348        2.482        1.370      148.521       68.902        0.215      343.393       19.472      864.287
05/20/2013  13:16:00      121.191     -151.100        1.543       86.055      132.297       65.713     7405.466    17502.439     4318.176        3.337        1.461      193.697       76.357        0.155      343.344       19.387      864.260
05/20/2013  13:17:00      129.417      -92.398       49.172      155.185      188.982       92.042    24082.243    35714.324     8471.815        4.797        3.413      159.016      125.898        0.627      343.674       19.952      864.269
05/20/2013  13:18:00       95.018       -6.078       71.570       94.466      148.497       81.331     8923.769    22051.236     6614.802        2.588        1.879       95.212       80.288        0.711      343.666       19.936      864.263
05/20/2013  13:19:00       51.231       16.778       87.723       69.883      146.408       88.274     4883.569    21435.414     7792.280        2.235        1.706       53.909       96.876        3.229      343.648       19.905      864.269
05/20/2013  13:20:00       54.290      -95.079       40.459      111.594      183.584       93.758    12453.238    33703.232     8790.572        3.427        2.747      109.487       99.721        0.830      343.610       19.840      864.287
05/20/2013  13:21:00       99.957     -165.123       -7.630       72.652       61.126       33.985     5278.328     3736.332     1154.986        2.374        0.508      193.020       27.548        0.020      343.217       19.173      864.307
05/20/2013  13:22:00       25.086       45.252       10.182       55.658       65.317       36.664     3097.802     4266.284     1344.265        0.574        0.435       51.740       33.429        0.417      343.597       19.820      864.299
05/20/2013  13:23:00      -43.592      142.401       -3.599       69.077       85.280       44.846     4771.636     7272.626     2011.167        1.812        0.703      148.924       32.868        0.049      343.758       20.096      864.290
05/20/2013  13:24:00      -56.300       81.165        7.084       87.090       67.158       44.738     7584.725     4510.223     2001.488        1.195        0.705       98.780       56.956        0.332      343.798       20.162      864.269
05/20/2013  13:25:00      -13.857       43.760       17.843       35.659       49.395       32.025     1271.557     2439.845     1025.607        0.358        0.237       45.901       23.560        0.263      343.913       20.361      864.261
05/20/2013  13:26:00       28.492      -46.765        8.443       53.558       70.255       39.590     2868.491     4935.733     1567.342        0.622        0.469       54.761       43.651        0.635      343.707       20.009      864.241
05/20/2013  13:27:00       98.622      -58.587       71.157      125.968      221.255       65.475    15868.038    48953.942     4287.030        4.365        3.455      114.711       71.771        0.391      343.688       19.975      864.246
05/20/2013  13:28:00      324.327      240.981       46.316      123.706      105.704       88.848    15303.152    11173.398     7893.966        9.988        1.719      404.054       49.117        0.015      343.555       19.746      864.174
05/20/2013  13:29:00      291.044      188.702       52.978      133.333       96.812       81.361    17777.757     9372.600     6619.550        7.844        1.688      346.864       64.685        0.035      343.471       19.602      864.230
05/20/2013  13:30:00      221.755      192.856      113.089      165.728       95.990      120.294    27465.780     9213.994    14470.539        7.514        2.558      293.886      116.735        0.158      343.354       19.404      864.247
05/20/2013  13:31:00       68.447       57.379       33.524       72.083       58.089       66.084     5196.025     3374.298     4367.151        1.102        0.647       89.316       45.802        0.263      343.161       19.076      864.274
05/20/2013  13:32:00       71.651       64.015       26.328      106.311       51.050       50.152    11302.071     2606.141     2515.257        1.317        0.821       96.083       37.337        0.151      343.305       19.323      864.242
05/20/2013  13:33:00      121.758       73.035        7.854       77.486       42.052       45.110     6004.023     1768.397     2034.894        1.501        0.490      141.983       26.568        0.035      343.481       19.622      864.212
05/20/2013  13:34:00        4.044       19.951        9.183       18.912       30.545       30.387      357.670      932.998      923.400        0.136        0.111       20.357       15.399        0.572      344.002       20.513      864.194
05/20/2013  13:35:00       -0.025       82.938       -5.238       43.016       65.809       31.824     1850.391     4330.875     1012.788        0.705        0.360       82.938       29.410        0.126      343.730       20.049      864.173
05/20/2013  13:36:00      109.051       73.016       13.185       81.556       51.446       37.082     6651.311     2646.712     1375.087        1.403        0.534      131.238       24.482        0.035      343.649       19.908      864.148
05/20/2013  13:37:00       27.448      241.422      -22.945       66.375      159.420       71.349     4405.635    25414.610     5090.630        4.723        1.746      242.977       92.229        0.144      343.581       19.793      864.132
05/20/2013  13:38:00       11.936      190.155      -12.029       64.165       90.464       46.694     4117.133     8183.760     2180.371        2.546        0.724      190.529       39.414        0.043      343.701       19.997      864.130
05/20/2013  13:39:00       53.301      110.388       29.978       59.319       59.548       57.131     3518.753     3545.907     3263.934        1.312        0.516      122.582       44.651        0.133      343.799       20.164      864.112
05/20/2013  13:40:00      169.010      100.168        7.856      132.164       81.752       47.103    17467.378     6683.369     2218.726        3.251        1.318      196.464       32.284        0.027      343.867       20.279      864.114
05/20/2013  13:41:00      197.943      132.195       73.688      156.699      132.756      125.741    24554.666    17624.239    15810.831        6.003        2.899      238.027       80.373        0.114      343.740       20.062      864.074
05/20/2013  13:42:00      149.038      100.706       32.884      116.779       83.040       65.997    13637.242     6895.683     4355.659        2.916        1.244      179.873       42.707        0.056      343.889       20.315      864.052
05/20/2013  13:43:00      155.299       99.903       23.830       89.667       77.652       72.223     8040.122     6029.817     5216.094        2.697        0.964      184.658       47.360        0.066      344.065       20.618      864.035
05/20/2013  13:44:00      157.134      106.217       34.791      146.345       96.089       82.945    21416.979     9233.177     6879.835        3.735        1.876      189.666       57.040        0.090      344.350       21.104      864.029
05/20/2013  13:45:00      334.390      142.591       64.564      205.159      148.775      142.680    42090.075    22134.019    20357.689       11.043        4.229      363.523      106.954        0.087      343.613       19.845      863.986
05/20/2013  13:46:00      206.032      121.812       79.492      173.029      112.754      101.394    29939.066    12713.562    10280.785        5.826        2.647      239.348      102.313        0.183      343.626       19.868      863.991
05/20/2013  13:47:00       59.224       97.247      101.622       77.215       72.973       58.105     5962.085     5325.102     3376.190        1.897        0.733      113.862       43.784        0.148      344.044       20.583      864.000
05/20/2013  13:48:00      147.571      131.202      113.162      138.695       89.959       79.027    19236.248     8092.636     6245.233        4.268        1.679      197.462       59.535        0.091      344.019       20.539      863.961
05/20/2013  13:49:00      117.689      137.663      136.941      117.614      110.879       89.334    13832.994    12294.048     7980.522        4.282        1.705      181.113       86.172        0.226      343.834       20.223      863.965
05/20/2013  13:50:00       56.155       70.182      115.054       69.514       69.976       64.687     4832.218     4896.673     4184.353        1.761        0.696       89.883       60.282        0.450      343.439       19.549      863.975
05/20/2013  13:51:00       25.648       -5.693       59.246       55.019       83.445       43.210     3027.110     6963.092     1867.141        0.803        0.593       26.272       48.865        3.459      343.550       19.741      863.951
05/20/2013  13:52:00       82.897       18.183       69.187      105.923      123.065       64.540    11219.784    15145.074     4165.373        2.125        1.527       84.868       52.226        0.379      344.188       20.829      863.942
05/20/2013  13:53:00      122.450     -155.882       -1.138       81.374      150.551       65.028     6621.792    22665.671     4228.700        3.640        1.676      198.226       72.465        0.134      344.164       20.784      863.941
05/20/2013  13:54:00      152.599     -228.892      -33.473       89.488      108.289       46.429     8008.154    11726.595     2155.631        4.934        1.095      275.096       44.191        0.026      343.980       20.470      863.930
05/20/2013  13:55:00      134.683       25.844       70.317      107.726       78.537       63.490    11604.809     6168.014     4030.925        2.277        1.090      137.140       61.503        0.201      343.960       20.438      863.931
05/20/2013  13:56:00      208.929      120.890       55.787      113.792       95.521       78.863    12948.585     9124.212     6219.374        4.483        1.415      241.383       58.965        0.060      343.960       20.438      863.945
05/20/2013  13:57:00      132.722       98.952       45.095      106.240       71.168       66.181    11287.005     5064.815     4379.933        2.508        1.037      165.549       65.003        0.154      344.229       20.898      863.940
05/20/2013  13:58:00       79.398       77.540       93.758      102.572      105.565       64.988    10521.082    11144.050     4223.441        2.349        1.294      110.980       67.121        0.366      343.906       20.347      863.949
05/20/2013  13:59:00       70.933      -39.163       18.244       73.791       56.364       45.189     5445.069     3176.864     2042.025        0.878        0.533       81.026       38.677        0.228      343.740       20.066      863.944
05/20/2013  14:00:00       39.768       51.612       63.824       58.036       68.237       53.535     3368.172     4656.225     2865.995        0.960        0.545       65.156       33.134        0.259      344.094       20.670      863.940
05/20/2013  14:01:00       80.663       81.498       20.476       85.717       82.462       54.928     7347.478     6799.966     3017.033        1.536        0.858      114.666       31.836        0.077      344.237       20.912      863.912
05/20/2013  14:02:00      167.247      121.872       32.748       86.411       68.642       68.261     7466.875     4711.670     4659.585        3.036        0.842      206.940       37.225        0.032      343.868       20.279      863.908
05/20/2013  14:03:00      -12.467       11.438       -6.885       20.567       36.011       27.933      422.987     1296.818      780.246        0.142        0.125       16.919       18.786        1.233      344.123       20.718      863.897
05/20/2013  14:04:00      -16.533       19.368       17.691       35.676       49.133       29.850     1272.766     2414.054      891.034        0.277        0.229       25.465       22.077        0.752      344.577       21.494      863.845
05/20/2013  14:05:00      -32.613       23.396       11.106       56.593       38.216       34.532     3202.733     1460.487     1192.457        0.379        0.293       40.137       34.938        0.758      344.541       21.434      863.808
05/20/2013  14:06:00      -79.720       60.402      -10.225       47.138       81.385       31.417     2222.014     6623.463      987.041        0.997        0.492      100.019       21.825        0.048      344.439       21.258      863.780
05/20/2013  14:07:00      -17.280       54.521       27.849       44.575       49.555       53.776     1986.892     2455.685     2891.909        0.569        0.367       57.194       41.329        0.522      344.667       21.650      863.782
05/20/2013  14:08:00       71.903       70.821       41.304       66.709       45.747       52.113     4450.088     2092.775     2715.794        1.057        0.463      100.924       37.572        0.139      344.158       20.779      863.770
05/20/2013  14:09:00      137.243       58.772       27.278       68.635       63.281       41.779     4710.781     4004.531     1745.521        1.675        0.523      149.298       25.766        0.030      344.346       21.099      863.763
05/20/2013  14:10:00       44.421      -11.636       12.379       80.407       96.981       40.681     6465.308     9405.410     1654.934        0.989        0.876       45.920       25.142        0.300      344.639       21.599      863.752
05/20/2013  14:11:00      128.132       76.265      127.747      106.295      149.552       87.089    11298.573    22365.660     7584.457        3.989        2.062      149.111       98.543        0.437      344.195       20.838      863.736
05/20/2013  14:12:00       48.878       91.283       20.520       77.340       54.514       33.014     5981.441     2971.764     1089.909        1.059        0.502      103.545       16.836        0.026      344.520       21.397      863.731
05/20/2013  14:13:00      179.152      102.831       23.149       65.716       61.510       50.946     4318.550     3783.451     2595.485        2.695        0.535      206.567       24.313        0.014      343.959       20.435      863.719
05/20/2013  14:14:00      255.261      171.170       18.842       95.964       73.694       55.857     9209.027     5430.814     3119.975        5.628        0.888      307.339       27.111        0.008      343.902       20.337      863.707
05/20/2013  14:15:00      115.064      120.845        6.237       88.378       79.499       77.194     7810.681     6320.039     5958.911        2.398        1.004      166.863       57.411        0.118      344.116       20.704      863.697
05/20/2013  14:16:00       90.586      129.148        0.891      111.787       66.923       51.891    12496.399     4478.731     2692.726        2.227        0.983      157.750       35.154        0.050      344.075       20.634      863.684
05/20/2013  14:17:00       52.889      217.472      -37.066       59.936       60.570       45.128     3592.291     3668.763     2036.567        3.038        0.465      223.810       34.748        0.024      343.853       20.255      863.663
05/20/2013  14:18:00      130.754       85.509        1.156       56.449       41.669       41.223     3186.504     1736.308     1699.322        1.551        0.331      156.232       26.683        0.029      343.978       20.470      863.645
05/20/2013  14:19:00      139.703       62.095       28.616       90.288       69.317       59.542     8151.883     4804.876     3545.228        2.034        0.825      152.882       48.425        0.100      344.452       21.280      863.632
05/20/2013  14:20:00      133.852       72.771       10.414      104.415       70.562       50.133    10902.539     4978.961     2513.325        2.085        0.920      152.355       20.070        0.017      344.873       22.000      863.631
05/20/2013  14:21:00      146.226      115.826       92.922      133.515      109.621       83.063    17826.338    12016.859     6899.432        4.008        1.837      186.541       84.391        0.205      344.515       21.385      863.616
05/20/2013  14:22:00      185.791      166.242      146.481      155.214      125.292       98.452    24091.508    15697.981     9692.813        6.654        2.474      249.308       96.378        0.149      344.327       21.064      863.593
05/20/2013  14:23:00      180.957      119.026      128.143      115.160      143.654      101.698    13261.788    20636.497    10342.469        5.378        2.212      216.593       99.350        0.210      343.878       20.296      863.624
05/20/2013  14:24:00       75.948       46.479       89.494      122.654       96.412       61.358    15044.062     9295.352     3764.776        2.202        1.405       89.042       62.485        0.492      344.400       21.190      863.640
05/20/2013  14:25:00       18.011       27.716       59.893       58.620       85.387       64.493     3436.333     7291.024     4159.365        0.978        0.744       33.054       59.512        3.242      344.286       20.997      863.634
05/20/2013  14:26:00       33.429       35.591       89.213       82.179      133.499       78.358     6753.378    17821.963     6140.027        2.052        1.536       48.828       92.051        3.554      344.167       20.793      863.605
05/20/2013  14:27:00       44.722      -63.991       10.835       68.802       67.688       50.394     4733.765     4581.670     2539.599        0.903        0.593       78.070       46.000        0.347      344.344       21.096      863.591
05/20/2013  14:28:00       34.163       39.599       22.853       44.243       30.961       33.806     1957.442      958.600     1142.869        0.366        0.203       52.299       27.247        0.271      344.166       20.791      863.576
05/20/2013  14:29:00       53.240       57.172       -3.311       37.961       35.202       32.118     1441.056     1239.147     1031.569        0.491        0.186       78.123       14.775        0.036      343.646       19.904      863.541
05/20/2013  14:30:00     -111.348       39.942       -5.267       77.927       61.907       35.783     6072.551     3832.434     1280.402        1.260        0.559      118.295       24.856        0.044      344.393       21.181      863.499
05/20/2013  14:31:00      -43.686      143.285       -3.857      132.476       90.604       52.463    17549.758     8209.009     2752.374        2.548        1.426      149.796       40.449        0.073      344.579       21.497      863.425
05/20/2013  14:32:00      228.666      125.823       23.014      103.706       66.825       77.476    10755.009     4465.585     6002.548        4.493        1.061      260.997       26.460        0.010      344.396       21.182      863.412
05/20/2013  14:33:00       42.405       80.430        7.025       68.506       55.090       34.994     4693.075     3034.941     1224.607        0.863        0.448       90.923       26.678        0.086      344.550       21.448      863.434
05/20/2013  14:34:00        2.983       57.104       -9.235       48.193       71.149       38.001     2322.576     5062.145     1444.069        0.609        0.441       57.182       33.789        0.349      344.884       22.020      863.416
05/20/2013  14:35:00       -6.493        5.589       11.049       50.470       32.404       28.990     2547.247     1050.037      840.422        0.232        0.222        8.567       10.003        1.363      345.164       22.498      863.406
05/20/2013  14:36:00      -98.663      -13.723       14.109       97.089      102.167       42.383     9426.270    10438.129     1796.327        1.589        1.083       99.613       31.174        0.098      344.685       21.677      863.392
05/20/2013  14:37:00       15.860       47.935       13.656       32.346       43.010       30.804     1046.288     1849.902      948.886        0.329        0.192       50.490       20.076        0.158      344.758       21.805      863.391
05/20/2013  14:38:00      -92.154       17.018       24.104      129.553       55.392       47.374    16783.912     3068.220     2244.289        1.573        1.105       93.712       59.355        0.401      344.530       21.413      863.392
05/20/2013  14:39:00       11.536      -10.213       26.474       47.036       54.429       41.251     2212.346     2962.556     1701.657        0.391        0.344       15.408       32.008        4.316      344.778       21.838      863.323
05/20/2013  14:40:00        2.119      -37.036       17.572       78.523       68.781       52.596     6165.875     4730.855     2766.359        0.767        0.683       37.097       34.351        0.857      344.582       21.502      863.293
05/20/2013  14:41:00      -19.942      -81.235        0.187       51.417       39.453       35.243     2643.726     1556.510     1242.078        0.622        0.272       83.647       25.478        0.093      344.503       21.367      863.272
05/20/2013  14:42:00        1.060        1.141       11.736       14.714       23.311       33.234      216.497      543.383     1104.467        0.100        0.093        1.557       21.697      194.172      344.880       22.013      863.261
05/20/2013  14:43:00       12.153       23.248       -0.559       47.140       57.179       26.421     2222.208     3269.488      698.043        0.344        0.309       26.233        7.073        0.073      344.615       21.560      863.243
05/20/2013  14:44:00       44.091       37.226       68.907       63.488       64.971       49.378     4030.727     4221.258     2438.199        0.938        0.535       57.704       28.261        0.240      344.869       21.994      863.215
05/20/2013  14:45:00      113.510      -13.255       62.916       94.857      119.574       76.163     8997.769    14297.946     5800.734        2.305        1.455      114.282       87.367        0.584      344.413       21.212      863.184
05/20/2013  14:46:00      191.373      -55.008       45.145      146.192      159.004      110.317    21372.024    25282.351    12169.742        5.024        2.941      199.122      118.185        0.352      344.833       21.929      863.132
05/20/2013  14:47:00      195.085     -132.977       34.008      146.911      218.462      116.044    21582.885    47725.565    13466.124        6.982        4.139      236.095      152.548        0.417      344.581       21.499      863.135
05/20/2013  14:48:00      137.054     -134.666        6.977      102.383      148.230       72.949    10482.213    21972.198     5321.532        3.736        1.889      192.142       97.307        0.256      344.314       21.043      863.192
05/20/2013  14:49:00      142.663     -165.937       30.255      122.007      188.026      112.732    14885.736    35353.771    12708.458        5.586        3.147      218.833      134.043        0.375      344.525       21.404      863.144
05/20/2013  14:50:00      128.179     -109.155       11.967       99.156      168.313       87.726     9832.008    28329.237     7695.890        3.716        2.293      168.359      112.609        0.447      344.551       21.449      863.167
05/20/2013  14:51:00       20.996       10.659        8.963       34.611       37.355       33.924     1197.900     1395.377     1150.810        0.219        0.187       23.547       15.373        0.426      344.558       21.462      863.173
05/20/2013  14:52:00       55.077       16.932        5.602       46.451       86.770       37.087     2157.709     7528.954     1375.409        0.720        0.553       57.621       30.698        0.284      344.071       20.629      863.141
05/20/2013  14:53:00       45.202       61.902      -14.509       40.534       45.993       26.621     1642.983     2115.387      708.654        0.528        0.223       76.649       23.686        0.095      344.239       20.916      863.111
05/20/2013  14:54:00       44.277       34.764       24.999       25.938       21.702       25.588      672.763      470.981      654.738        0.280        0.090       56.294       16.242        0.083      344.498       21.360      863.091
05/20/2013  14:55:00       89.966      -13.426       32.234       64.262       86.836       58.085     4129.552     7540.413     3373.909        1.218        0.752       90.963       65.768        0.523      344.269       20.968      863.072
05/20/2013  14:56:00       68.753       42.660       53.536       74.491       64.983       52.040     5548.919     4222.732     2708.175        1.094        0.624       80.912       45.194        0.312      344.456       21.287      863.045
05/20/2013  14:57:00       88.944      -40.292       26.913      101.672       95.513       54.694    10337.175     9122.680     2991.476        1.635        1.123       97.645       55.662        0.325      344.396       21.184      863.042
05/20/2013  14:58:00       91.603      -59.629       21.725       59.356       59.578       48.013     3523.176     3549.586     2305.257        1.090        0.469      109.301       41.648        0.145      344.355       21.116      863.035
05/20/2013  14:59:00       67.217      -27.292        7.049       58.616       71.385       48.694     3435.812     5095.880     2371.139        0.811        0.545       72.546       29.380        0.164      344.465       21.303      863.035
05/20/2013  15:00:00       60.356     -109.365       -7.496       59.172       61.167       51.430     3501.313     3741.455     2645.053        1.277        0.494      124.914       37.345        0.089      344.806       21.885      863.023
05/20/2013  15:01:00       50.985       -8.724       20.939       45.303       66.154       50.071     2052.373     4376.345     2507.124        0.602        0.447       51.726       49.004        0.898      344.802       21.880      863.006
05/20/2013  15:02:00      -26.099       -2.502       13.542       37.294       27.832       29.680     1390.820      774.623      880.923        0.196        0.152       26.218       21.856        0.695      345.358       22.833      862.966
05/20/2013  15:03:00      -19.745      -24.150       18.400       51.853       40.472       24.107     2688.714     1637.948      581.150        0.311        0.245       31.194       22.240        0.508      344.924       22.088      862.947
05/20/2013  15:04:00       68.368      -86.713        6.818       74.306       57.858       40.674     5521.385     3347.572     1654.369        1.138        0.526      110.423       27.184        0.061      344.354       21.114      862.944
05/20/2013  15:05:00       55.888       -6.880       23.209       34.520       26.534       34.140     1191.618      704.042     1165.535        0.338        0.153       56.310       14.726        0.068      344.446       21.270      862.910
05/20/2013  15:06:00       61.128       20.895       21.081       51.748       31.636       32.163     2677.839     1000.823     1034.449        0.466        0.236       64.600       29.712        0.212      344.445       21.269      862.875
05/20/2013  15:07:00       28.757       24.979       10.716       47.720       34.996       32.717     2277.196     1224.732     1070.416        0.307        0.229       38.090       18.984        0.248      344.992       22.205      862.859
05/20/2013  15:08:00       -8.300       27.931        3.644       31.564       25.307       28.361      996.316      640.430      804.332        0.165        0.122       29.138       10.257        0.124      345.135       22.450      862.857
05/20/2013  15:09:00      -27.438       30.370       -1.823       53.549       29.071       21.699     2867.520      845.095      470.858        0.293        0.209       40.929       16.906        0.171      345.124       22.431      862.843
05/20/2013  15:10:00     -165.011      -29.502      -14.316       49.210       50.777       23.429     2421.615     2578.284      548.897        1.693        0.277      167.627       21.022        0.016      344.986       22.195      862.832
05/20/2013  15:11:00     -205.054       14.374      -17.898       44.989       47.410       29.007     2024.037     2247.729      841.427        2.384        0.256      205.557       22.270        0.012      344.688       21.682      862.818
05/20/2013  15:12:00     -176.304       30.328      -23.468       43.995       46.961       33.543     1935.536     2205.337     1125.157        1.891        0.263      178.894       27.622        0.024      344.911       22.065      862.781
05/20/2013  15:13:00     -120.862      -10.068       -2.788       68.970       64.559       43.599     4756.906     4167.870     1900.869        1.277        0.541      121.280       43.486        0.129      345.206       22.571      862.760
05/20/2013  15:14:00     -174.256      -54.062        7.542      113.108       80.655       42.917    12793.520     6505.286     1841.871        2.724        1.057      182.450       41.788        0.052      345.481       23.040      862.716
05/20/2013  15:15:00     -153.189       70.498       -0.835       88.415       56.352       34.607     7817.253     3175.504     1197.621        2.031        0.610      168.632       38.210        0.051      345.204       22.565      862.712
05/20/2013  15:16:00      -70.064      119.226      -10.144       67.477       65.785       39.853     4553.130     4327.614     1588.267        1.485        0.523      138.289       45.521        0.108      345.286       22.706      862.707
05/20/2013  15:17:00       -2.994      -22.656       -1.295       38.569       75.174       31.841     1487.590     5651.172     1013.881        0.434        0.408       22.853       22.097        0.935      345.361       22.836      862.720
05/20/2013  15:18:00       63.102     -116.696        2.035       57.302       82.843       42.412     3283.493     6862.899     1798.738        1.477        0.597      132.664       39.114        0.087      345.003       22.223      862.687
05/20/2013  15:19:00       52.017      -15.872       19.180       46.581       75.927       42.527     2169.745     5764.939     1808.568        0.653        0.487       54.385       24.505        0.203      344.908       22.060      862.682
05/20/2013  15:20:00       31.991      -59.411      -16.559       27.743       69.656       37.420      769.671     4851.970     1400.225        0.592        0.351       67.477       28.301        0.176      344.854       21.968      862.674
05/20/2013  15:21:00       42.219       -2.964        5.938       79.526       71.047       42.124     6324.318     5047.610     1774.456        0.748        0.657       42.323       32.699        0.597      345.187       22.540      862.655
05/20/2013  15:22:00      173.181      129.667       56.573       94.152       70.126       68.952     8864.690     4917.703     4754.338        3.427        0.927      216.345       34.927        0.026      345.013       22.237      862.651
05/20/2013  15:23:00       84.717       61.422        7.986       81.244       81.504       54.165     6600.541     6642.892     2933.814        1.359        0.809      104.640       40.717        0.151      345.076       22.347      862.641
05/20/2013  15:24:00       50.779       36.177        1.530       75.343       38.558       29.978     5676.516     1486.737      898.665        0.597        0.403       62.348       17.112        0.075      344.843       21.950      862.624
05/20/2013  15:25:00      113.450       98.182       13.647       61.410       51.990       45.784     3771.183     2702.996     2096.191        1.563        0.429      150.035       29.120        0.038      345.014       22.242      862.613
05/20/2013  15:26:00      -33.974       74.786      -36.123       52.260       42.795       19.117     2731.155     1831.384      365.470        0.649        0.246       82.141       18.342        0.050      344.578       21.497      862.611
05/20/2013  15:27:00       55.295      127.683       -6.243      126.003       96.662       64.765    15876.836     9343.477     4194.470        2.440        1.471      139.142       76.596        0.303      344.807       21.886      862.574
05/20/2013  15:28:00      -51.354       42.422      -18.810       46.641       85.840       46.482     2175.356     7368.435     2160.573        0.825        0.585       66.609       29.257        0.193      344.960       22.151      862.560
05/20/2013  15:29:00      -21.329      210.716      -38.129       52.330       89.413       45.578     2738.393     7994.742     2077.369        2.956        0.641      211.792       56.574        0.071      344.615       21.555      862.541
05/20/2013  15:30:00        9.879       95.597      -18.210       30.382       41.712       25.177      923.067     1739.867      633.894        0.643        0.165       96.106       10.317        0.012      344.636       21.594      862.534
05/20/2013  15:31:00      -44.194      114.180      -24.045       32.962       63.165       18.785     1086.491     3989.801      352.889        1.050        0.271      122.434       17.113        0.020      344.666       21.646      862.514
05/20/2013  15:32:00      -78.131      123.387      -23.710       39.323       62.031       32.728     1546.312     3847.850     1071.141        1.418        0.323      146.044       16.397        0.013      344.756       21.798      862.490
05/20/2013  15:33:00      -46.387       24.861       -6.707       27.086       33.545       19.005      733.647     1125.241      361.208        0.252        0.111       52.629       18.900        0.129      344.928       22.096      862.475
05/20/2013  15:34:00      -15.773       45.356       -0.077       25.144       38.783       23.199      632.217     1504.136      538.216        0.249        0.134       48.021       11.736        0.060      345.235       22.621      862.459
05/20/2013  15:35:00       23.938       12.378        7.694       29.825       27.923       23.252      889.551      779.717      540.672        0.150        0.110       26.949       10.824        0.161      345.139       22.457      862.454
05/20/2013  15:36:00       -5.443      -77.828        6.529       65.335       86.858       53.833     4268.710     7544.278     2897.945        1.042        0.736       78.018       46.731        0.359      345.283       22.702      862.425
05/20/2013  15:37:00      -18.931       27.535       69.047       54.302       61.626       58.119     2948.697     3797.767     3377.807        0.800        0.506       33.415       45.046        1.817      345.435       22.962      862.400
05/20/2013  15:38:00        6.086        2.674       58.006       33.822       71.764       48.439     1143.958     5150.124     2346.293        0.602        0.432        6.647       51.428       59.857      345.437       22.967      862.386
05/20/2013  15:39:00       51.861     -136.782      -24.124       47.901       48.117       30.844     2294.547     2315.231      951.374        1.377        0.278      146.283       24.876        0.029      345.228       22.609      862.383
05/20/2013  15:40:00       48.531     -137.165      -10.988       44.841       47.405       37.663     2010.705     2247.265     1418.507        1.348        0.284      145.498       28.640        0.039      345.039       22.284      862.364
05/20/2013  15:41:00      -19.740      -20.970        2.956       62.766       40.360       28.095     3939.629     1628.943      789.324        0.360        0.318       28.800       23.155        0.646      345.388       22.884      862.347
05/20/2013  15:42:00       31.180      -81.790       -5.551       67.934       52.971       43.305     4615.010     2805.881     1875.316        0.849        0.465       87.532       36.355        0.173      345.457       23.000      862.337
05/20/2013  15:43:00      -20.943      -12.000       14.303       71.832       60.786       47.686     5159.847     3694.894     2273.929        0.596        0.556       24.137       41.661        2.979      345.676       23.377      862.320
05/20/2013  15:44:00       -0.905       22.269       61.206       27.349       38.651       40.768      747.989     1493.933     1662.003        0.407        0.195       22.287       31.226        1.963      345.752       23.508      862.316
05/20/2013  15:45:00       18.790       62.050       33.864       40.026       26.914       49.348     1602.110      724.342     2435.193        0.505        0.238       64.833       17.037        0.069      344.884       22.019      862.312
05/20/2013  15:46:00        5.772       65.651       -4.046       26.653       28.032       30.439      710.376      785.771      926.526        0.339        0.121       65.904       18.984        0.083      344.952       22.136      862.286
05/20/2013  15:47:00       -4.275       56.573       -8.007       28.592       40.687       22.218      817.523     1655.414      493.662        0.312        0.148       56.734       19.492        0.118      345.078       22.352      862.274
05/20/2013  15:48:00       -8.274       42.604       15.182       34.951       37.786       27.549     1221.541     1427.815      758.926        0.276        0.170       43.400       32.267        0.553      345.377       22.863      862.262
05/20/2013  15:49:00      -17.564      -59.451       17.221       63.632       62.542       33.187     4049.081     3911.546     1101.383        0.660        0.453       61.992       31.973        0.266      345.436       22.965      862.256
05/20/2013  15:50:00     -122.389      -63.285        2.917       61.325       58.861       28.893     3760.804     3464.626      834.781        1.352        0.403      137.782       24.744        0.032      345.163       22.497      862.225
05/20/2013  15:51:00      -69.335      -66.560        4.455       85.230       54.578       35.210     7264.221     2978.725     1239.725        1.037        0.574       96.112       39.770        0.171      345.433       22.961      862.227
05/20/2013  15:52:00      -57.163      -23.979       -0.724       51.003       38.085       32.275     2601.341     1450.495     1041.705        0.447        0.255       61.989       21.676        0.122      345.555       23.170      862.211
05/20/2013  15:53:00        2.530     -176.559      -16.832       55.588       90.770       39.783     3090.061     8239.193     1582.658        2.218        0.646      176.577       21.907        0.015      345.185       22.534      862.200
05/20/2013  15:54:00       91.971      -20.534       48.245       57.803      108.934       64.256     3341.229    11866.603     4128.856        1.527        0.967       94.235       69.701        0.547      345.098       22.386      862.202
05/20/2013  15:55:00        7.483       21.328       79.931       52.615       70.884       46.530     2768.309     5024.549     2165.013        0.843        0.498       22.603       53.791        5.664      345.197       22.556      862.155
05/20/2013  15:56:00      -45.074      -63.580       12.088       58.243       53.544       34.911     3392.214     2866.968     1218.774        0.685        0.374       77.936       29.874        0.147      345.476       23.033      862.132
05/20/2013  15:57:00      -31.798     -117.352        6.588       95.065       62.474       48.858     9037.310     3902.983     2387.102        1.507        0.766      121.584       37.423        0.095      345.476       23.033      862.119
05/20/2013  15:58:00      -42.321     -100.124        8.872       85.073       57.329       34.175     7237.365     3286.664     1167.939        1.179        0.585      108.701       36.689        0.114      345.331       22.785      862.084
05/20/2013  15:59:00      -75.165      -71.571        7.093       66.471       56.494       37.023     4418.331     3191.548     1370.695        0.990        0.449      103.790       22.283        0.046      345.431       22.956      862.071
05/20/2013  16:00:00       33.463     -121.356        1.131       82.239       71.625       38.754     6763.332     5130.134     1501.861        1.462        0.670      125.885       42.361        0.113      345.440       22.971      862.076
05/20/2013  16:01:00       80.753     -149.969      -26.122       69.395       83.221       45.877     4815.693     6925.686     2104.725        2.177        0.692      170.328       45.806        0.072      345.415       22.927      862.047
05/20/2013  16:02:00      137.608     -167.067       -4.373       90.585      118.444       53.154     8205.641    14028.996     2825.366        3.596        1.253      216.442       54.143        0.063      345.408       22.916      862.008
05/20/2013  16:03:00       20.377      -53.891       43.925       73.461       70.622       62.338     5396.534     4987.424     3886.051        0.976        0.714       57.615       38.474        0.446      345.638       23.312      861.983
05/20/2013  16:04:00       39.048      -22.152       47.951       41.540       85.033       59.924     1725.534     7230.641     3590.891        0.843        0.627       44.894       65.961        2.159      345.308       22.746      861.975
05/20/2013  16:05:00       61.489      -88.523       10.472       78.662       97.792       36.814     6187.646     9563.367     1355.240        1.441        0.855      107.783       55.581        0.266      345.367       22.846      861.950
05/20/2013  16:06:00      128.800     -174.303      -11.108       70.083       95.745       57.704     4911.630     9167.094     3329.794        3.225        0.870      216.727       61.599        0.081      345.191       22.542      861.919
05/20/2013  16:07:00       60.515     -134.087      -15.615       36.275       51.407       33.389     1315.883     2642.726     1114.841        1.348        0.254      147.110       17.152        0.014      345.140       22.459      861.898
05/20/2013  16:08:00       79.501     -100.717        3.616       54.065       63.477       31.744     2923.022     4029.369     1007.680        1.222        0.398      128.313       36.483        0.081      345.426       22.948      861.857
05/20/2013  16:09:00       14.885        8.194       73.898       51.430       81.368       67.697     2645.068     6620.831     4582.881        0.980        0.692       16.991       65.782       14.989      345.842       23.662      861.800
05/20/2013  16:10:00       87.910     -137.868      -14.072      107.689      118.930       79.274    11596.931    14144.460     6284.438        2.947        1.601      163.511       76.429        0.218      345.512       23.094      861.773
05/20/2013  16:11:00       38.476     -103.464        6.692       76.070       89.872       63.180     5786.617     8076.905     3991.671        1.504        0.893      110.387       49.116        0.198      345.549       23.157      861.766
05/20/2013  16:12:00       44.189      -92.746       28.867       55.101      117.479       47.268     3036.082    13801.316     2234.221        1.523        0.954      102.735       64.510        0.394      345.398       22.898      861.752
05/20/2013  16:13:00      112.015     -114.253        6.007       75.817       93.740       65.999     5748.172     8787.267     4355.853        2.226        0.945      160.003       77.203        0.233      345.399       22.900      861.715
05/20/2013  16:14:00       99.761     -181.461      -23.312       63.205       62.540       47.121     3994.871     3911.295     2220.358        2.677        0.506      207.076       31.779        0.024      345.317       22.756      861.702
05/20/2013  16:15:00       80.846     -111.188       -6.271       62.656       80.413       54.989     3925.717     6466.209     3023.793        1.617        0.671      137.473       56.403        0.168      345.319       22.762      861.683
05/20/2013  16:16:00        6.342      -40.939       24.344       72.998       66.302       45.022     5328.755     4395.930     2027.020        0.703        0.588       41.428       33.923        0.671      345.829       23.640      861.669
05/20/2013  16:17:00      -22.169      -99.690       -2.323       54.847       73.239       36.199     3008.181     5363.883     1310.350        1.006        0.484      102.125       34.561        0.115      345.851       23.679      861.664
05/20/2013  16:18:00       -4.575      -23.260       24.660       47.329       57.462       32.808     2240.015     3301.890     1076.358        0.389        0.331       23.705       19.726        0.692      345.993       23.921      861.650
05/20/2013  16:19:00      -27.477      -74.234        7.509       55.356       53.967       29.797     3064.293     2912.433      887.853        0.659        0.343       79.156       20.529        0.067      345.911       23.780      861.636
05/20/2013  16:20:00      -46.083      -36.495       20.358       41.473       64.884       22.083     1720.037     4209.998      487.655        0.514        0.321       58.783       26.415        0.202      345.834       23.647      861.610
05/20/2013  16:21:00       -3.699      -21.119       26.874       47.687       45.853       35.758     2274.092     2102.471     1278.627        0.342        0.283       21.440       35.419        2.729      345.974       23.887      861.587
05/20/2013  16:22:00      -81.976      -22.203      -29.755       56.681       73.917       31.292     3212.777     5463.686      979.207        0.888        0.483       84.930        9.567        0.013      345.482       23.043      861.561
05/20/2013  16:23:00      -12.982       45.664       -2.787       26.183       27.991       27.154      685.552      783.490      737.345        0.223        0.110       47.474       14.421        0.092      345.380       22.867      861.548
05/20/2013  16:24:00      -12.007       28.513       -5.388       23.622       49.061       22.102      557.990     2406.984      488.492        0.222        0.173       30.938       19.032        0.378      345.540       23.143      861.545
05/20/2013  16:25:00      -67.418      -87.808      -11.326       68.814       32.830       21.078     4735.417     1077.810      444.290        0.932        0.313      110.704       23.932        0.047      345.439       22.971      861.541
05/20/2013  16:26:00       12.501     -120.550        3.219       51.778       44.388       30.996     2680.986     1970.257      960.729        1.015        0.281      121.197       29.466        0.059      345.741       23.488      861.525
05/20/2013  16:27:00      -56.190     -129.076       -5.186       51.938       72.984       29.564     2697.583     5326.647      874.054        1.437        0.445      140.776       16.549        0.014      345.483       23.045      861.518
05/20/2013  16:28:00      -46.749      -39.901       10.585       87.350       63.613       45.756     7629.943     4046.598     2093.611        0.883        0.689       61.461       47.426        0.595      345.910       23.778      861.487
05/20/2013  16:29:00     -121.495      -89.673       24.335      120.790       77.263       53.347    14590.215     5969.522     2845.907        2.340        1.170      151.005       52.229        0.120      345.621       23.281      861.459
05/20/2013  16:30:00     -181.785     -102.716        2.738      129.085       81.740       52.717    16662.957     6681.506     2779.051        3.486        1.306      208.797       64.253        0.095      345.633       23.300      861.418
05/20/2013  16:31:00     -124.426     -120.398        0.101       78.381       49.584       42.428     6143.608     2458.613     1800.173        2.019        0.520      173.140       38.294        0.049      345.492       23.058      861.397
05/20/2013  16:32:00      -93.099     -100.494        1.920       82.829       68.438       44.355     6860.641     4683.735     1967.391        1.614        0.676      136.991       37.331        0.074      345.530       23.126      861.385
05/20/2013  16:33:00      -14.485      -92.418       14.625       73.300       45.607       48.238     5372.823     2080.010     2326.900        0.937        0.489       93.547       17.933        0.037      345.923       23.800      861.368
05/20/2013  16:34:00      -48.687      -84.967        8.427       80.056       52.122       42.931     6409.020     2716.671     1843.066        1.031        0.548       97.928       28.845        0.087      345.685       23.392      861.364
05/20/2013  16:35:00      -37.442      -68.547       -3.465       52.222       47.123       25.020     2727.180     2220.578      625.988        0.584        0.279       78.107       14.194        0.033      345.864       23.699      861.337
05/20/2013  16:36:00      -29.334      -82.574        7.248       61.226       43.899       27.232     3748.675     1927.151      741.575        0.707        0.321       87.629       20.974        0.057      345.845       23.666      861.323
05/20/2013  16:37:00      -68.189      -62.572        7.650       96.920       61.577       45.431     9393.514     3791.735     2063.971        1.193        0.762       92.547       28.164        0.093      345.940       23.830      861.287
05/20/2013  16:38:00      -51.643      -52.079       19.592       74.903       52.789       43.648     5610.436     2786.646     1905.157        0.803        0.515       73.343       48.604        0.439      345.731       23.470      861.275
05/20/2013  16:39:00       22.634      -66.809       19.773       59.331       90.593       45.401     3520.217     8207.172     2061.227        0.957        0.689       70.539       46.907        0.442      345.835       23.650      861.268
05/20/2013  16:40:00       67.372     -140.485       13.079       48.886       52.362       34.495     2389.792     2741.764     1189.897        1.538        0.316      155.804       24.380        0.024      345.534       23.134      861.268
05/20/2013  16:41:00       33.854      -53.877       15.593       52.585       69.974       40.384     2765.144     4896.417     1630.861        0.679        0.465       63.631       45.965        0.522      345.929       23.810      861.264
05/20/2013  16:42:00       73.291     -146.290       -2.649       63.253       60.468       38.868     4000.931     3656.343     1510.691        1.797        0.458      163.622       30.799        0.035      345.773       23.542      861.240
05/20/2013  16:43:00       36.620      -71.869       12.374       91.856       61.025       46.972     8437.545     3724.030     2206.405        1.051        0.718       80.661       45.023        0.312      346.064       24.043      861.222
05/20/2013  16:44:00      -13.666      -53.286        3.373       46.712       44.387       31.145     2182.039     1970.200      970.005        0.408        0.256       55.010       29.084        0.280      346.205       24.286      861.224
05/20/2013  16:45:00       -7.191      -57.295       13.557       34.526       43.264       37.030     1192.070     1871.745     1371.245        0.398        0.222       57.745       29.158        0.255      346.217       24.304      861.214
05/20/2013  16:46:00      -87.920      -70.980       -1.170       71.466       50.348       28.802     5107.338     2534.966      829.574        1.062        0.424      112.996       26.418        0.055      345.834       23.648      861.197
05/20/2013  16:47:00       28.482     -119.381       -2.566       72.756       62.898       44.800     5293.473     3956.124     2007.031        1.316        0.563      122.731       34.098        0.077      345.859       23.690      861.177
05/20/2013  16:48:00       43.551      -10.813       59.411       48.806       87.524       44.270     2381.991     7660.524     1959.873        0.877        0.600       44.873       49.339        1.209      345.959       23.863      861.162
05/20/2013  16:49:00       86.382       70.432       47.978       71.283       56.307       69.903     5081.315     3170.493     4886.453        1.393        0.657      111.456       49.558        0.198      345.479       23.038      861.163
05/20/2013  16:50:00       26.823      -34.600       -4.481       33.511       90.305       23.822     1122.986     8154.967      567.474        0.589        0.492       43.779       23.669        0.292      345.699       23.417      861.154
05/20/2013  16:51:00       28.795      -51.853        7.079       28.346       35.807       19.197      803.505     1282.171      368.515        0.301        0.123       59.311       21.646        0.133      345.862       23.697      861.148
05/20/2013  16:52:00       20.046       -0.227       27.535       33.620       29.626       21.780     1130.305      877.723      474.350        0.182        0.124       20.047       20.086        1.004      345.924       23.802      861.126
05/20/2013  16:53:00       76.174     -181.918      -16.785       42.415       74.550       32.076     1799.067     5557.710     1028.892        2.378        0.419      197.223       11.466        0.003      345.627       23.290      861.106
05/20/2013  16:54:00       69.793     -121.335      -17.092       24.587       36.496       21.073      604.544     1331.950      444.086        1.113        0.119      139.976       16.945        0.015      345.477       23.034      861.096
05/20/2013  16:55:00       58.559       30.571       10.577       23.882       65.103       26.671      570.371     4238.425      711.348        0.500        0.276       66.058       16.917        0.066      345.588       23.226      861.079
05/20/2013  16:56:00      139.700       32.876       19.430       91.406       66.326       45.215     8355.072     4399.165     2044.381        1.788        0.740      143.517       29.570        0.042      345.811       23.607      861.074
05/20/2013  16:57:00      157.911      106.446      109.487       84.275       79.492       56.417     7102.355     6318.995     3182.898        3.243        0.830      190.438       50.043        0.069      345.708       23.429      861.044
05/20/2013  16:58:00      106.208      108.080      140.398      128.491      107.045       82.800    16510.041    11458.613     6855.857        3.874        1.741      151.530       76.666        0.256      345.964       23.868      861.012
05/20/2013  16:59:00      137.907       16.086       88.380      112.033      137.251       86.571    12551.505    18837.876     7494.513        3.298        1.944      138.842       87.471        0.397      345.995       23.922      861.019
05/20/2013  17:00:00      215.527     -216.441      -57.732      105.911      110.989       56.204    11217.035    12318.563     3158.912        6.166        1.335      305.448       52.083        0.029      345.577       23.204      861.025
05/20/2013  17:01:00       40.293       67.302      111.602       78.565      138.627       84.008     6172.492    19217.539     7057.374        2.552        1.622       78.442       98.939        1.591      345.833       23.645      861.016
05/20/2013  17:02:00       74.986       76.189       96.943       74.802       68.567       46.295     5595.384     4701.471     2143.182        1.663        0.622      106.901       31.988        0.090      345.888       23.741      861.021
05/20/2013  17:03:00       -7.502      -53.046       12.129       27.377       65.905       35.061      749.505     4343.407     1229.290        0.467        0.316       53.574       27.642        0.266      346.045       24.011      861.022
05/20/2013  17:04:00        2.738       14.022       21.813       43.528       54.651       20.396     1894.644     2986.718      416.011        0.299        0.265       14.287       21.251        2.213      345.724       23.459      861.019
05/20/2013  17:05:00       34.134      -47.221       16.709       56.092       78.080       40.569     3146.286     6096.523     1645.852        0.728        0.544       58.266       52.059        0.798      345.899       23.760      861.012
05/20/2013  17:06:00      127.557     -158.139       -1.541       55.582       45.948       43.344     3089.326     2111.230     1878.705        2.418        0.354      203.171       26.829        0.017      345.565       23.183      861.009
05/20/2013  17:07:00       77.285      -94.061       26.190       46.500      109.507       51.586     2162.285    11991.844     2661.105        1.616        0.841      121.739       60.149        0.244      345.598       23.243      861.002
05/20/2013  17:08:00       35.501      -17.840       33.496       42.622       59.825       43.780     1816.623     3579.014     1916.702        0.500        0.366       39.732       40.305        1.029      345.697       23.414      860.981
05/20/2013  17:09:00       53.602      -80.227        8.081       55.541       49.764       28.470     3084.819     2476.493      810.560        0.787        0.319       96.486       33.402        0.120      345.745       23.495      860.979
05/20/2013  17:10:00       44.160     -101.486       11.561       50.631       82.289       46.858     2563.519     6771.412     2195.646        1.195        0.577      110.678       51.656        0.218      345.882       23.729      860.964
05/20/2013  17:11:00       52.454     -138.135       -4.675       65.704       73.732       47.522     4317.079     5436.389     2258.387        1.693        0.601      147.759       45.414        0.094      345.768       23.532      860.952
05/20/2013  17:12:00       70.932     -132.429        1.016       61.040       67.148       54.397     3725.837     4508.798     2959.025        1.688        0.560      150.229       37.543        0.062      345.734       23.475      860.953
05/20/2013  17:13:00       15.921       57.379      101.953       51.182       87.125       66.538     2619.648     7590.764     4427.288        1.429        0.732       59.547       68.961        1.341      345.910       23.777      860.931
05/20/2013  17:14:00       10.856     -108.074        9.123       70.939      100.124       65.704     5032.383    10024.767     4316.989        1.562        0.969      108.618       71.587        0.434      346.094       24.095      860.923
05/20/2013  17:15:00      -22.275      -89.797       -1.478       52.171       50.042       43.853     2721.834     2504.191     1923.116        0.785        0.357       92.518       32.228        0.121      346.218       24.307      860.920
05/20/2013  17:16:00       12.782      -95.397       -9.655       70.189       68.102       34.926     4926.521     4637.892     1219.814        1.007        0.539       96.250       29.142        0.092      346.229       24.326      860.924
05/20/2013  17:17:00       34.327      -88.361        3.033       49.136       40.339       33.425     2414.329     1627.247     1117.254        0.708        0.258       94.795       27.240        0.083      345.785       23.565      860.918
05/20/2013  17:18:00       15.219      -23.281       32.445       27.216       38.704       32.516      740.696     1498.028     1057.284        0.256        0.165       27.814       29.523        1.127      345.948       23.844      860.899
05/20/2013  17:19:00        8.958      -36.576       43.871       31.016       75.968       43.787      961.987     5771.167     1917.294        0.599        0.433       37.657       51.161        1.846      346.185       24.250      860.893
05/20/2013  17:20:00       65.021     -124.343       -2.745       74.105       59.907       45.911     5491.511     3588.829     2107.836        1.544        0.559      140.317       39.461        0.079      346.174       24.231      860.892
05/20/2013  17:21:00       74.480      -82.748      -20.344       53.973       45.958       33.022     2913.044     2112.104     1090.475        0.946        0.306      111.331       30.423        0.075      345.873       23.714      860.887
05/20/2013  17:22:00       97.733     -124.276        3.303       63.238       84.517       47.164     3999.032     7143.207     2224.406        1.918        0.668      158.102       45.444        0.083      345.823       23.627      860.887
05/20/2013  17:23:00      -22.308      -95.956        2.138       88.939       85.468       41.420     7910.158     7304.704     1715.594        1.332        0.847       98.515       44.078        0.200      346.184       24.248      860.879
05/20/2013  17:24:00       12.064      -97.216       -5.132       71.372       59.005       35.384     5093.913     3481.613     1252.009        0.972        0.491       97.962       29.163        0.089      346.053       24.023      860.872
05/20/2013  17:25:00       94.236      -43.378       19.750       79.935       71.913       28.282     6389.543     5171.432      799.883        1.175        0.618      103.740       24.679        0.057      345.799       23.586      860.857
05/20/2013  17:26:00       54.203       46.459       85.398       56.760      109.165       67.694     3221.681    11916.947     4582.539        1.605        0.986       71.389       82.135        1.324      345.800       23.590      860.830
05/20/2013  17:27:00       35.111       -6.949       60.020       61.120       76.858       50.142     3735.711     5907.099     2514.234        0.852        0.608       35.792       52.164        2.124      345.992       23.918      860.816
05/20/2013  17:28:00       95.776     -110.627       -1.388       69.402      100.814       50.334     4816.574    10163.427     2533.477        1.946        0.876      146.327       72.155        0.243      345.777       23.549      860.803
05/20/2013  17:29:00       56.972      -37.288       14.014       45.340       85.618       38.887     2055.748     7330.409     1512.181        0.786        0.545       68.090       48.654        0.511      345.717       23.447      860.800
05/20/2013  17:30:00      117.480       79.661       31.391       49.923       37.100       33.353     2492.289     1376.437     1112.445        1.306        0.249      141.941       28.229        0.040      345.619       23.279      860.792
05/20/2013  17:31:00       69.739       83.291       13.624       28.959       38.466       32.054      838.616     1479.625     1027.486        0.767        0.167      108.632       27.505        0.064      345.655       23.342      860.772
05/20/2013  17:32:00       30.306       20.242       33.229       31.545       25.835       26.884      995.082      667.443      722.726        0.241        0.119       36.445       12.151        0.111      345.913       23.784      860.775
05/20/2013  17:33:00       77.415       15.731       18.372       84.809       78.741       39.592     7192.569     6200.158     1567.523        1.077        0.748       78.997       27.233        0.119      345.887       23.738      860.774
05/20/2013  17:34:00      150.112       77.514       28.656       72.334       55.345       38.975     5232.156     3063.060     1519.036        1.959        0.491      168.944       31.678        0.035      345.906       23.770      860.758
05/20/2013  17:35:00      120.443       46.450       28.109       66.476       64.225       38.559     4419.096     4124.802     1486.830        1.374        0.502      129.090       33.506        0.067      345.806       23.599      860.751
05/20/2013  17:36:00       46.998        6.620       32.398       42.819       94.223       45.547     1833.425     8877.932     2074.488        0.804        0.639       47.461       42.254        0.793      345.927       23.806      860.737
05/20/2013  17:37:00       40.882      -95.532        9.061       45.006       83.195       38.259     2025.547     6921.407     1463.769        1.064        0.521      103.912       28.091        0.073      346.002       23.937      860.714
05/20/2013  17:38:00       24.799       37.247       62.457       38.792       72.150       43.746     1504.822     5205.615     1913.723        0.726        0.431       44.747       41.476        0.859      346.025       23.977      860.701
05/20/2013  17:39:00      110.415       98.076        4.714       77.166       74.162       64.157     5954.648     5500.051     4116.125        1.870        0.779      147.683       52.452        0.126      345.878       23.721      860.693
05/20/2013  17:40:00      112.958       83.686       17.321       57.906       59.112       47.140     3353.119     3494.268     2222.201        1.456        0.453      140.581       35.766        0.065      345.927       23.808      860.680
05/20/2013  17:41:00       60.821       20.516       13.449       78.459       43.980       41.295     6155.825     1934.276     1705.258        0.705        0.490       64.188       37.772        0.346      346.167       24.219      860.673
05/20/2013  17:42:00      186.890      136.382       25.832       97.444       59.691       61.346     9495.428     3563.062     3763.298        3.550        0.841      231.361       34.284        0.022      345.817       23.616      860.679
05/20/2013  17:43:00      200.722      137.842       11.263       75.142       62.357       49.695     5646.365     3888.445     2469.556        3.571        0.600      243.495       35.955        0.022      345.735       23.475      860.678
05/20/2013  17:44:00      151.124      119.313       -1.887       71.232       63.560       48.494     5073.981     4039.864     2351.633        2.427        0.573      192.546       30.872        0.026      345.720       23.450      860.678
05/20/2013  17:45:00       33.486       98.751      -15.432       34.502       43.614       30.000     1190.380     1902.203      899.978        0.755        0.200      104.274       21.794        0.044      345.779       23.555      860.681
05/20/2013  17:46:00       41.970       59.312        7.313       49.169       43.779       41.233     2417.624     1916.567     1700.179        0.568        0.302       72.660       25.270        0.121      345.877       23.722      860.675
05/20/2013  17:47:00        8.957       86.512       -7.727       60.306       49.399       35.730     3636.819     2440.276     1276.615        0.749        0.368       86.974       36.521        0.176      345.955       23.855      860.664
05/20/2013  17:48:00      127.135       82.044       22.839       99.948       61.768       57.462     9989.606     3815.294     3301.893        2.026        0.855      151.309       50.176        0.110      345.916       23.786      860.652
05/20/2013  17:49:00       51.688      185.291      -13.019       75.991      103.883       60.959     5774.620    10791.586     3716.012        2.872        1.014      192.365       50.703        0.069      345.812       23.609      860.650
05/20/2013  17:50:00       82.959      116.589        1.406       70.565       54.674       58.966     4979.486     2989.279     3477.032        1.596        0.572      143.091       46.152        0.104      345.867       23.705      860.641
05/20/2013  17:51:00       41.802      169.047      -14.623       55.557       74.194       52.027     3086.573     5504.716     2706.780        2.092        0.565      174.138       50.279        0.083      345.809       23.603      860.638
05/20/2013  17:52:00       15.543      138.202      -18.983       49.421       51.689       27.620     2442.470     2671.736      762.845        1.279        0.294      139.073       24.000        0.030      345.890       23.743      860.635
05/20/2013  17:53:00      -11.200      138.374       -4.146       42.555       58.109       32.834     1810.924     3376.624     1078.070        1.278        0.313      138.827       31.214        0.051      345.891       23.746      860.631
05/20/2013  17:54:00      -43.595      170.710      -32.885       36.476       45.473       22.890     1330.465     2067.776      523.939        1.802        0.196      176.188        7.960        0.002      345.718       23.448      860.620
05/20/2013  17:55:00      -21.887      188.569      -34.765       29.189       34.475       16.565      851.970     1188.511      274.393        1.978        0.116      189.835       11.708        0.004      345.685       23.392      860.607
05/20/2013  17:56:00      -36.937       42.176      -25.338       43.450       48.741       22.040     1887.879     2375.716      485.774        0.427        0.237       56.064       24.483        0.191      345.797       23.585      860.595
05/20/2013  17:57:00       39.586       25.549        8.107       21.108       23.425       14.743      445.556      548.721      217.361        0.175        0.061       47.115       13.126        0.078      345.782       23.561      860.589
05/20/2013  17:58:00      118.069       66.851       20.789       51.451       48.368       32.150     2647.158     2339.437     1033.608        1.243        0.301      135.681       25.230        0.035      345.846       23.669      860.578
05/20/2013  17:59:00      113.226       74.185       16.963       71.338       55.846       40.896     5089.059     3118.785     1672.462        1.424        0.494      135.364       31.866        0.055      345.881       23.727      860.558
05/20/2013  18:00:00       39.434       25.546       10.795       49.758       33.390       30.771     2475.819     1114.911      946.830        0.343        0.227       46.985       25.538        0.295      345.979       23.897      860.536
05/20/2013  18:01:00       57.700       33.072       24.661       72.158       51.153       42.495     5206.797     2616.671     1805.851        0.733        0.481       66.505       38.526        0.336      346.076       24.063      860.519
05/20/2013  18:02:00      148.350       90.559       20.582       41.181       45.790       29.668     1695.915     2096.713      880.217        1.765        0.234      173.806       20.013        0.013      345.921       23.797      860.498
05/20/2013  18:03:00       36.228       74.065       -9.239       50.733       55.700       23.581     2573.829     3102.529      556.054        0.656        0.312       82.450       31.697        0.148      346.060       24.036      860.484
05/20/2013  18:04:00       23.199       81.018        2.417       59.337       66.871       45.463     3520.830     4471.786     2066.879        0.858        0.503       84.275       36.771        0.190      346.026       23.978      860.459
05/20/2013  18:05:00       87.355       82.981        6.935      107.093       67.001       60.225    11468.892     4489.119     3627.073        1.707        0.979      120.486       45.364        0.142      345.869       23.708      860.436
05/20/2013  18:06:00       38.881       43.216       -8.007       57.872       84.822       44.410     3349.147     7194.792     1972.219        0.798        0.626       58.132       39.255        0.456      345.942       23.834      860.414
05/20/2013  18:07:00       99.429       77.549        2.540       48.533       59.609       41.382     2355.460     3553.243     1712.484        1.176        0.381      126.096       30.927        0.060      345.855       23.683      860.404
05/20/2013  18:08:00       80.035      103.961       -7.714       72.885       59.165       44.656     5312.277     3500.450     1994.181        1.404        0.540      131.200       37.467        0.082      345.937       23.824      860.384
05/20/2013  18:09:00       67.861       52.374        7.295       68.625       52.872       39.045     4709.447     2795.437     1524.475        0.821        0.451       85.722       27.413        0.102      345.916       23.789      860.390
05/20/2013  18:10:00      128.547       80.550       33.381       71.916       55.246       46.059     5171.851     3052.150     2121.435        1.723        0.517      151.699       18.728        0.015      345.920       23.795      860.391
05/20/2013  18:11:00      140.498       85.970       11.260       87.733       52.747       50.000     7697.091     2782.278     2500.047        2.012        0.649      164.713       38.001        0.053      345.807       23.599      860.397
05/20/2013  18:12:00       65.296       87.929        2.655       53.264       52.366       48.407     2837.093     2742.208     2343.219        0.996        0.396      109.522       42.346        0.149      345.828       23.637      860.402
05/20/2013  18:13:00      108.637       66.372       13.595       73.829       54.306       32.211     5450.674     2949.167     1037.538        1.291        0.472      127.308       14.429        0.013      345.888       23.740      860.404
05/20/2013  18:14:00       34.844       99.149       -8.137       39.705       69.888       34.043     1576.515     4884.337     1158.924        0.936        0.381      105.093       37.056        0.124      345.953       23.851      860.414
05/20/2013  18:15:00       36.719      149.165      -10.742       55.721       68.468       50.824     3104.786     4687.862     2583.120        1.704        0.519      153.618       50.052        0.106      345.855       23.682      860.412
05/20/2013  18:16:00       55.794       68.114       -2.551       58.229       59.204       35.342     3390.635     3505.147     1249.055        0.795        0.407       88.049       35.551        0.163      345.864       23.699      860.417
05/20/2013  18:17:00       45.225       64.379      -11.207       32.046       65.346       18.890     1026.968     4270.082      356.831        0.598        0.283       78.676       24.386        0.096      345.778       23.553      860.406
05/20/2013  18:18:00      -25.644       44.181      -18.994       32.603       54.720       22.414     1062.930     2994.254      502.378        0.376        0.228       51.084       28.827        0.318      345.929       23.812      860.391
05/20/2013  18:19:00      -34.391       19.065       -8.572       26.620       42.044       19.493      708.631     1767.664      379.977        0.224        0.143       39.322       11.290        0.082      346.158       24.203      860.361
05/20/2013  18:20:00      -42.152       67.475      -11.146       29.935       42.767       22.029      896.082     1828.991      485.277        0.483        0.161       79.560       22.813        0.082      345.992       23.920      860.351
05/20/2013  18:21:00       14.902      118.742      -16.018       38.708       51.135       22.742     1498.281     2614.791      517.187        0.960        0.232      119.673       22.866        0.037      345.990       23.917      860.342
05/20/2013  18:22:00       59.037       61.290       -6.913       57.334       63.721       41.575     3287.157     4060.380     1728.469        0.818        0.454       85.099       29.821        0.123      346.043       24.006      860.334
05/20/2013  18:23:00       63.812       22.106       24.178       52.484       38.628       35.287     2754.585     1492.129     1245.192        0.532        0.275       67.532       33.811        0.251      346.037       23.995      860.332
05/20/2013  18:24:00      118.464       81.971       21.800       51.702       40.190       31.706     2673.139     1615.226     1005.252        1.326        0.265      144.059       13.097        0.008      345.890       23.743      860.326
05/20/2013  18:25:00       41.542       92.090       -2.077       62.898       32.445       25.001     3956.169     1052.689      625.063        0.792        0.282      101.026       24.816        0.060      345.947       23.842      860.325
05/20/2013  18:26:00       -6.752      102.295      -19.802       40.372       46.941       20.333     1629.869     2203.476      413.429        0.757        0.212      102.518       14.133        0.019      345.950       23.846      860.321
05/20/2013  18:27:00       57.824       47.333        9.561       76.751       36.159       29.907     5890.744     1307.489      894.423        0.688        0.405       74.726       14.489        0.038      345.978       23.895      860.315
05/20/2013  18:28:00       55.871       26.474       10.510       63.319       39.863       33.275     4009.317     1589.038     1107.232        0.532        0.335       61.826       20.062        0.105      346.080       24.070      860.300
05/20/2013  18:29:00       20.187       90.015       -5.592       39.564       50.987       28.050     1565.297     2599.674      786.797        0.675        0.248       92.251       25.726        0.078      345.961       23.868      860.295
05/20/2013  18:30:00       31.991       16.853       13.207       41.597       32.459       22.161     1730.288     1053.613      491.104        0.238        0.164       36.158       15.803        0.191      346.012       23.953      860.299
05/20/2013  18:31:00       63.711       20.854       17.836       56.668       26.946       26.639     3211.230      726.081      709.629        0.473        0.232       67.037       21.975        0.107      345.912       23.782      860.296
05/20/2013  18:32:00      130.059       68.496       33.602       45.809       47.172       41.343     2098.419     2225.191     1709.284        1.438        0.302      146.993       21.600        0.022      345.937       23.824      860.295
05/20/2013  18:33:00       53.204       34.705       20.515       45.721       33.877       29.906     2090.400     1147.672      894.376        0.429        0.207       63.523       19.582        0.095      346.017       23.963      860.285
05/20/2013  18:34:00       71.417       33.336       23.661       51.447       42.876       32.982     2646.812     1838.370     1087.838        0.617        0.279       78.814       22.252        0.080      345.828       23.637      860.274
05/20/2013  18:35:00       74.577       32.258       22.282       61.620       65.985       29.811     3797.012     4354.036      888.708        0.807        0.452       81.255       28.974        0.127      345.890       23.745      860.266
05/20/2013  18:36:00       20.793      -37.134        4.759       31.287       30.573       25.406      978.890      934.694      645.441        0.220        0.128       42.560       22.158        0.271      345.927       23.807      860.257
05/20/2013  18:37:00       33.990       19.448        9.622       32.552       25.711       26.438     1059.624      661.076      698.960        0.202        0.121       39.160       17.761        0.206      345.908       23.775      860.248
05/20/2013  18:38:00       56.653       74.913       49.959       61.008       48.529       42.747     3722.027     2355.075     1827.297        0.961        0.395       93.923       43.414        0.214      345.910       23.778      860.246
05/20/2013  18:39:00       64.940       37.651       29.352       46.570       34.812       30.653     2168.781     1211.895      939.596        0.541        0.216       75.066       30.415        0.164      345.944       23.837      860.248
05/20/2013  18:40:00       41.520       38.058       52.648       46.178       33.614       27.617     2132.405     1129.887      762.725        0.498        0.201       56.323       19.805        0.124      345.912       23.783      860.246
05/20/2013  18:41:00       43.399       10.229       39.419       37.335       22.729       25.376     1393.937      516.619      643.938        0.305        0.128       44.588       11.644        0.068      345.964       23.871      860.241
05/20/2013  18:42:00       36.833       14.374       32.808       36.111       37.282       20.815     1304.026     1389.981      433.246        0.288        0.156       39.538       10.023        0.064      345.916       23.789      860.236
05/20/2013  18:43:00       76.876       -4.917       -1.228       57.423       39.233       32.329     3297.356     1539.225     1045.140        0.591        0.294       77.034       32.479        0.178      345.899       23.760      860.234
05/20/2013  18:44:00       42.630       42.031       43.735       38.705       46.615       36.278     1498.060     2172.913     1316.122        0.524        0.249       59.866       20.815        0.121      345.984       23.906      860.227
05/20/2013  18:45:00       33.764       16.275        3.603       23.901       21.062       16.600      571.278      443.627      275.554        0.135        0.065       37.482       13.615        0.132      345.945       23.839      860.218
05/20/2013  18:46:00       45.083       17.881        7.682       31.943       24.243       17.465     1020.348      587.747      305.041        0.216        0.096       48.500        9.472        0.038      345.842       23.662      860.210
05/20/2013  18:47:00       23.960        3.278       -4.720       24.073       15.697       13.977      579.504      246.404      195.351        0.081        0.051       24.183       14.000        0.335      345.904       23.766      860.207
05/20/2013  18:48:00      121.419       41.157        3.840       41.553       38.592       33.162     1726.636     1489.342     1099.746        1.038        0.216      128.205       19.110        0.022      345.964       23.872      860.203
05/20/2013  18:49:00       53.141       21.386        5.164       54.405       30.600       26.029     2959.883      936.370      677.484        0.394        0.229       57.283       17.422        0.092      345.949       23.845      860.202
05/20/2013  18:50:00       36.813       19.775       24.629       28.337       33.511       24.592      802.972     1122.979      604.759        0.244        0.127       41.788       25.282        0.366      345.677       23.378      860.200
05/20/2013  18:51:00       35.222       -6.443       14.548       13.900       28.129       20.706      193.200      791.244      428.745        0.145        0.071       35.807       18.825        0.276      345.764       23.527      860.188
05/20/2013  18:52:00       90.399       37.248       15.925       34.272       25.015       19.471     1174.556      625.747      379.132        0.600        0.109       97.772       10.478        0.011      345.635       23.306      860.189
05/20/2013  18:53:00       59.120        9.217       23.234       55.307       43.375       31.635     3058.814     1881.420     1000.742        0.503        0.297       59.834       30.456        0.259      345.920       23.796      860.196
05/20/2013  18:54:00       40.013       -4.343       24.033       33.737       40.432       22.375     1138.208     1634.758      500.658        0.273        0.164       40.248       13.864        0.119      345.950       23.848      860.200
05/20/2013  18:55:00       32.602       41.758       12.445       25.167       25.310       20.039      633.366      640.600      401.552        0.232        0.084       52.978       15.534        0.086      345.856       23.687      860.201
05/20/2013  18:56:00       41.779       29.300        7.455       29.571       26.061       22.595      874.419      679.166      510.554        0.236        0.103       51.029       13.737        0.072      345.838       23.655      860.204
05/20/2013  18:57:00       56.494       92.586      -10.996       40.896       38.265       27.417     1672.481     1464.173      751.688        0.789        0.194      108.461       24.512        0.051      345.766       23.531      860.209
05/20/2013  18:58:00        9.750       52.533       -6.936       18.966       26.935       14.993      359.720      725.513      224.800        0.211        0.066       53.430       12.899        0.058      345.801       23.593      860.212
05/20/2013  18:59:00       26.344       65.734       -7.712       21.071       33.781       19.457      443.970     1141.149      378.589        0.352        0.098       70.816       19.996        0.080      345.780       23.556      860.210
05/20/2013  19:00:00       25.660       67.088        1.226       17.195       25.720       23.686      295.671      661.504      561.030        0.334        0.076       71.828       21.056        0.086      345.789       23.572      860.202
05/20/2013  19:01:00       -2.053       57.408       -4.931       36.722       18.349       16.790     1348.494      336.686      281.892        0.265        0.098       57.444       19.414        0.114      345.812       23.612      860.195
05/20/2013  19:02:00       32.921        4.853        6.508       18.426       14.096       10.636      339.521      198.691      113.122        0.090        0.033       33.277       10.000        0.090      345.657       23.344      860.195
05/20/2013  19:03:00       19.982        7.059        2.187       17.269       19.340       21.128      298.222      374.050      446.392        0.079        0.056       21.192       12.665        0.357      345.292       22.718      860.190
05/20/2013  19:04:00       31.092        3.591       23.999       19.732       15.841       16.515      389.354      250.951      272.746        0.123        0.046       31.298        5.307        0.029      345.074       22.345      860.192
05/20/2013  19:05:00       19.393       -0.579       21.070       23.269       18.137       19.200      541.464      328.961      368.643        0.103        0.062       19.401       13.396        0.477      345.127       22.435      860.191
05/20/2013  19:06:00       42.353      -21.343        0.240       21.592       16.992       15.499      466.234      288.712      240.226        0.162        0.050       47.426       11.183        0.056      345.893       23.749      860.194
05/20/2013  19:07:00       34.714      -46.181       11.358       23.304       19.108       22.109      543.068      365.113      488.786        0.243        0.070       57.773       15.169        0.069      345.807       23.605      860.186
05/20/2013  19:08:00      102.379      -24.839        1.262       34.912       34.430       39.834     1218.848     1185.401     1586.747        0.754        0.200      105.349       24.304        0.053      345.577       23.206      860.187
05/20/2013  19:09:00       26.038      -30.151        8.886       19.790       30.572       22.419      391.642      934.669      502.607        0.175        0.091       39.837       22.888        0.330      345.831       23.644      860.188
05/20/2013  19:10:00       35.794        5.966       18.456       37.430       18.845       23.236     1400.987      355.147      539.908        0.198        0.115       36.288       12.684        0.122      345.171       22.512      860.184
05/20/2013  19:11:00       31.888       -0.815       28.918       24.306       29.819       23.973      590.774      889.163      574.710        0.195        0.103       31.898       22.467        0.496      344.989       22.201      860.184
05/20/2013  19:12:00        7.040       10.192       28.083       19.850       18.084       14.128      394.019      327.034      199.609        0.093        0.046       12.387       11.570        0.873      345.103       22.394      860.185
05/20/2013  19:13:00       15.868       10.920       22.303       24.983       26.967       21.797      624.137      727.219      475.096        0.135        0.091       19.262       23.062        1.433      345.270       22.680      860.191
05/20/2013  19:14:00       20.893       25.361       17.183       13.733       15.206       17.671      188.602      231.211      312.280        0.105        0.037       32.859       10.262        0.098      345.152       22.478      860.193
05/20/2013  19:15:00       52.180      -18.621        2.175       15.085       20.147       16.868      227.559      405.903      284.541        0.200        0.046       55.403        8.439        0.023      345.308       22.747      860.193
05/20/2013  19:16:00       40.004       -9.570       25.720       25.688       20.726       14.266      659.884      429.584      203.530        0.182        0.065       41.133       10.426        0.064      345.231       22.615      860.189
05/20/2013  19:17:00       50.142      -17.577        5.332       28.543       22.770       22.035      814.711      518.483      485.545        0.233        0.091       53.133       17.076        0.103      344.700       21.704      860.194
05/20/2013  19:18:00       71.444       66.489       18.601       48.360       41.229       31.074     2338.658     1699.860      965.616        0.744        0.250       97.596       26.685        0.075      345.393       22.893      860.182
05/20/2013  19:19:00      104.836       27.459        8.003       44.086       25.063       28.170     1943.603      628.150      793.553        0.759        0.168      108.372       21.356        0.039      345.133       22.446      860.189
05/20/2013  19:20:00       12.137       14.795        8.788       21.018       36.054       26.067      441.761     1299.894      679.474        0.143        0.121       19.137       13.874        0.526      344.384       21.164      860.188
05/20/2013  19:21:00       20.485        0.173        6.471       30.423       42.212       32.416      925.547     1781.882     1050.771        0.211        0.188       20.486       24.443        1.424      344.623       21.574      860.184
05/20/2013  19:22:00      114.357       73.071       25.740       36.322       42.789       27.779     1319.309     1830.914      771.663        1.150        0.196      135.709       13.728        0.010      345.495       23.066      860.186
05/20/2013  19:23:00       52.405       31.926       14.613       37.412       21.433       24.571     1399.689      459.359      603.720        0.322        0.123       61.364       17.129        0.078      345.315       22.756      860.196
05/20/2013  19:24:00       15.292       38.942        0.187       29.768       33.304       22.175      886.154     1109.129      491.713        0.212        0.124       41.837       17.981        0.185      345.440       22.971      860.200
05/20/2013  19:25:00       28.443       77.421        0.767       25.651       41.071       21.555      657.955     1686.833      464.621        0.481        0.140       82.481       23.571        0.082      345.692       23.404      860.201
05/20/2013  19:26:00       24.214       95.513      -10.259       24.024       28.584       20.119      577.142      817.065      404.759        0.581        0.090       98.534       18.645        0.036      345.709       23.431      860.202
05/20/2013  19:27:00       11.458       54.902        0.961       21.611       26.272       15.427      467.025      690.202      237.997        0.227        0.070       56.085       14.711        0.069      345.673       23.371      860.201
05/20/2013  19:28:00       12.400       32.120       -6.524       19.465       15.969       15.847      378.901      255.008      251.131        0.106        0.044       34.431       15.062        0.191      345.746       23.498      860.198
05/20/2013  19:29:00       27.658       28.631       12.494       36.348       11.624       16.148     1321.164      135.122      260.756        0.173        0.086       39.809        6.121        0.024      345.506       23.085      860.199
05/20/2013  19:30:00       35.664       32.942       12.808       24.491       19.534       20.340      599.813      381.593      413.711        0.196        0.070       48.550       14.531        0.090      345.363       22.839      860.202
05/20/2013  19:31:00       57.724       38.938       15.194       39.061       20.987       21.536     1525.746      440.444      463.779        0.375        0.121       69.629       14.654        0.044      345.067       22.334      860.215
05/20/2013  19:32:00       55.614       35.876       -2.100       21.206       22.715       25.302      449.702      515.969      640.194        0.299        0.080       66.182       11.494        0.030      344.551       21.451      860.224
05/20/2013  19:33:00       40.071       19.160      -12.269       24.984       30.631       28.449      624.217      938.284      809.335        0.225        0.119       44.416        8.771        0.039      344.329       21.070      860.229
05/20/2013  19:34:00       21.669       10.501       17.484       15.718       16.458       12.828      247.068      270.865      164.556        0.078        0.034       24.079        8.527        0.125      344.254       20.942      860.236
05/20/2013  19:35:00       43.586        9.855        2.248       29.726       18.895       17.936      883.609      357.027      321.686        0.178        0.078       44.687        7.505        0.028      344.257       20.949      860.241
05/20/2013  19:36:00       53.216       10.933       -5.239       24.475       22.359       18.683      599.012      499.939      349.066        0.221        0.072       54.328       12.042        0.049      344.712       21.727      860.245
05/20/2013  19:37:00        5.216        7.318        4.855       11.159        5.881        8.322      124.528       34.589       69.257        0.017        0.011        8.986        4.336        0.233      344.720       21.740      860.250
05/20/2013  19:38:00       25.936        6.740       -7.286       15.922       24.777       13.512      253.512      613.900      182.567        0.091        0.052       26.797       10.562        0.155      344.762       21.811      860.267
05/20/2013  19:39:00       49.102       -0.811        1.200       41.617       20.103       25.705     1731.970      404.113      660.723        0.260        0.140       49.109       23.766        0.234      345.501       23.077      860.269
05/20/2013  19:40:00       43.411        7.027       19.071       37.731       21.026       17.272     1423.641      442.109      298.331        0.223        0.108       43.976       18.570        0.178      345.485       23.049      860.263
05/20/2013  19:41:00       45.194       13.716       12.440       31.074       21.689       20.775      965.624      470.400      431.610        0.213        0.093       47.229       16.856        0.127      345.454       22.996      860.259
05/20/2013  19:42:00       44.538       27.031       14.239       30.874       23.012       19.458      953.232      529.562      378.616        0.239        0.093       52.099       18.022        0.120      345.430       22.955      860.249
05/20/2013  19:43:00       19.744       19.456       32.603       21.879       21.478       18.834      478.705      461.285      354.714        0.156        0.065       27.719       12.682        0.209      345.373       22.858      860.243
05/20/2013  19:44:00       29.746       40.923       28.096       18.924       18.845       18.450      358.100      355.135      340.398        0.220        0.053       50.592       12.924        0.065      345.505       23.082      860.247
05/20/2013  19:45:00       57.352       38.199       25.316       30.078       17.959       19.120      904.678      322.509      365.558        0.349        0.080       68.909       14.564        0.045      345.507       23.087      860.242
05/20/2013  19:46:00       43.232       39.681       18.876       19.010       11.479       11.094      361.380      131.768      123.074        0.221        0.031       58.682        8.598        0.021      345.540       23.141      860.233
05/20/2013  19:47:00        8.783       -6.494       18.748       17.471       36.769       12.272      305.248     1351.930      150.595        0.114        0.090       10.923        6.243        0.327      345.527       23.121      860.230
05/20/2013  19:48:00       -6.697        5.610       25.031        8.894       13.723       14.420       79.110      188.333      207.950        0.059        0.024        8.736        1.623        0.035      345.406       22.914      860.233
05/20/2013  19:49:00        5.827       22.720       25.509       16.780       15.838       11.092      281.555      250.853      123.026        0.093        0.033       23.456        6.223        0.070      345.460       23.005      860.234
05/20/2013  19:50:00        5.817        7.115        4.527        9.880       15.425        8.237       97.617      237.937       67.847        0.025        0.020        9.190        3.368        0.134      345.504       23.080      860.221
05/20/2013  19:51:00       30.850       28.430       11.836       24.402       21.248       10.498      595.452      451.475      110.198        0.153        0.058       41.952        6.454        0.024      345.461       23.007      860.222
05/20/2013  19:52:00       39.509       39.225        8.093       21.274       17.357       19.201      452.594      301.276      368.688        0.214        0.056       55.673       10.900        0.038      345.480       23.039      860.215
05/20/2013  19:53:00       54.906       39.564       16.987        9.734       10.056        8.978       94.755      101.130       80.599        0.257        0.014       67.676        4.822        0.005      345.564       23.184      860.206
05/20/2013  19:54:00       27.018       42.838       15.301       32.034       19.514       17.946     1026.168      380.778      322.072        0.226        0.086       50.647        8.767        0.030      345.419       22.935      860.198
05/20/2013  19:55:00       23.612       18.767        5.570       14.673       17.417       16.837      215.287      303.363      283.482        0.087        0.040       30.161        6.290        0.043      345.390       22.884      860.205
05/20/2013  19:56:00       25.635        2.646       11.894       10.579       12.651       12.893      111.919      160.039      166.221        0.062        0.022       25.771        6.342        0.061      345.338       22.796      860.207
05/20/2013  19:57:00       27.527       -2.490       -9.825       20.166       13.063       10.929      406.665      170.629      119.449        0.078        0.035       27.639        5.789        0.044      345.227       22.606      860.208
05/20/2013  19:58:00       -7.461       -7.349       -8.142       11.534       13.255       10.449      133.025      175.699      109.178        0.030        0.021       10.473        7.748        0.547      345.409       22.918      860.220
05/20/2013  19:59:00        0.891       -1.905       -6.603        6.697        5.031        5.413       44.856       25.311       29.303        0.007        0.005        2.103        4.128        3.853      345.374       22.858      860.219
05/20/2013  20:00:00       -0.934       -0.718        0.589        2.787        5.210        2.945        7.765       27.141        8.673        0.002        0.002        1.178        2.491        4.472      345.306       22.743      860.215
05/20/2013  20:01:00       -2.986      -19.882        0.815        7.678       19.959        8.316       58.953      398.351       69.148        0.047        0.026       20.105        7.551        0.141      345.328       22.779      860.223
05/20/2013  20:02:00       -2.124      -18.769       -1.545       11.051        9.535        7.543      122.119       90.920       56.903        0.031        0.013       18.888        4.488        0.056      345.331       22.785      860.223
05/20/2013  20:03:00      -33.578      -15.764       -7.266       11.526       11.869        7.020      132.857      140.884       49.281        0.088        0.016       37.094        3.373        0.008      345.357       22.828      860.218
05/20/2013  20:04:00      -38.842      -28.244       -6.357       10.945        8.260        6.994      119.788       68.234       48.923        0.129        0.012       48.025        3.460        0.005      345.291       22.716      860.225
05/20/2013  20:05:00      -44.252      -18.574       -2.100       12.362        9.232        9.627      152.829       85.226       92.676        0.132        0.017       47.992        6.077        0.016      345.196       22.554      860.222
05/20/2013  20:06:00      -45.320      -18.811       -3.653       15.126       10.401        8.350      228.787      108.186       69.731        0.141        0.020       49.069        7.241        0.022      345.282       22.702      860.227
05/20/2013  20:07:00      -14.132      -27.779       -0.972       17.236       16.013        8.516      297.082      256.401       72.523        0.080        0.031       31.167        4.358        0.020      345.234       22.619      860.240
05/20/2013  20:08:00      -39.771       -9.362       -2.863       10.009        8.334        8.179      100.190       69.454       66.902        0.096        0.012       40.858        4.879        0.014      345.217       22.588      860.240
05/20/2013  20:09:00      -15.082      -12.582        5.361       15.996       13.417        6.504      255.879      180.015       42.306        0.045        0.024       19.641        1.977        0.010      345.128       22.438      860.247
05/20/2013  20:10:00      -29.554      -11.243      -10.512        7.290        7.668        5.612       53.138       58.804       31.497        0.063        0.007       31.620        4.004        0.016      345.143       22.462      860.260
05/20/2013  20:11:00       -5.631       -2.873       -0.276       11.242       10.144        9.204      126.375      102.894       84.722        0.018        0.016        6.322        9.058        2.053      345.072       22.342      860.257
05/20/2013  20:12:00      -28.338      -10.956       -7.947       20.516       14.166        7.330      420.908      200.677       53.729        0.083        0.034       30.383        8.814        0.084      344.901       22.048      860.258
05/20/2013  20:13:00      -96.346      -35.244      -12.581       25.612       16.994       11.087      655.993      288.795      122.916        0.588        0.053      102.590        6.025        0.003      344.821       21.913      860.269
05/20/2013  20:14:00     -101.758      -31.433        3.018       59.024       38.365       25.786     3483.885     1471.884      664.920        0.849        0.281      106.502       26.538        0.062      344.482       21.332      860.293
05/20/2013  20:15:00     -215.927      -19.777       -9.480       80.367       78.412       41.754     6458.830     6148.416     1743.363        3.073        0.718      216.831       39.241        0.033      344.299       21.015      860.341
05/20/2013  20:16:00     -154.849      -55.150        7.237       70.357       58.612       39.797     4950.088     3435.323     1583.819        1.852        0.498      164.377       44.911        0.075      344.409       21.206      860.365
05/20/2013  20:17:00     -198.549      -29.796       -4.598       89.620       68.904       47.686     8031.701     4747.759     2273.998        2.769        0.753      200.772       45.161        0.051      344.505       21.369      860.372
05/20/2013  20:18:00     -158.591      -26.616       -0.294       94.845       59.173       42.010     8995.534     3501.403     1764.878        2.006        0.713      160.809       49.216        0.094      344.528       21.408      860.378
05/20/2013  20:19:00     -192.181       -5.768       -9.789       57.319       51.464       28.072     3285.422     2648.556      788.041        2.189        0.336      192.267       28.982        0.023      344.699       21.701      860.388
05/20/2013  20:20:00     -223.079       33.761      -16.513       83.964       60.374       35.657     7049.997     3645.051     1271.408        3.157        0.598      225.619       37.308        0.027      344.890       22.026      860.373
05/20/2013  20:21:00     -184.548     -100.204        6.323       82.013       84.165       40.034     6726.085     7083.693     1602.708        2.977        0.771      209.997       44.679        0.045      344.841       21.943      860.358
05/20/2013  20:22:00     -114.996      -17.971       11.749       69.203       55.928       37.348     4789.029     3127.972     1394.867        1.150        0.466      116.392       39.905        0.118      344.747       21.785      860.372
05/20/2013  20:23:00     -110.579      -33.267        8.948       75.185       54.810       33.304     5652.744     3004.140     1109.170        1.159        0.488      115.475       32.918        0.081      344.753       21.796      860.376
05/20/2013  20:24:00     -104.258      -33.604        8.180       58.977       50.440       31.570     3478.319     2544.208      996.676        0.954        0.351      109.540       32.523        0.088      344.704       21.711      860.378
05/20/2013  20:25:00     -153.888      -60.693        3.572       99.731       53.982       34.264     9946.316     2914.019     1174.028        2.070        0.702      165.425       40.091        0.059      344.695       21.694      860.373
05/20/2013  20:26:00     -114.938      -41.756        6.104       91.522       49.116       32.785     8376.336     2412.368     1074.825        1.343        0.593      122.288       40.163        0.108      344.624       21.574      860.392
05/20/2013  20:27:00     -104.430      -43.829        6.516       53.824       42.744       30.030     2896.992     1827.058      901.825        0.925        0.281      113.255       29.274        0.067      344.701       21.706      860.387
05/20/2013  20:28:00     -244.076      -66.443      -13.987       90.890       82.257       42.966     8260.975     6766.168     1846.053        4.052        0.844      252.957       47.019        0.035      344.841       21.942      860.377
05/20/2013  20:29:00     -101.730      -43.014        7.281       76.767       56.090       33.437     5893.185     3146.132     1118.046        1.120        0.508      110.450       30.844        0.078      344.746       21.783      860.367
05/20/2013  20:30:00     -156.963      -56.838       -3.874       72.869       86.729       49.288     5309.964     7522.006     2429.321        2.157        0.763      166.937       49.626        0.088      344.794       21.863      860.347
05/20/2013  20:31:00     -167.845      -82.910      -12.549      110.363       80.583       52.399    12180.084     6493.622     2745.641        2.831        1.071      187.206       54.809        0.086      344.869       21.992      860.332
05/20/2013  20:32:00     -155.956      -64.098       -4.147       89.048       69.508       34.713     7929.592     4831.370     1205.015        2.120        0.698      168.615       38.659        0.053      344.876       22.004      860.306
05/20/2013  20:33:00     -146.587      -77.651        5.130       92.310       55.925       41.596     8521.187     3127.563     1730.200        2.046        0.669      165.883       47.188        0.081      344.887       22.023      860.293
05/20/2013  20:34:00     -140.207       -3.220        5.550       59.016       85.774       38.584     3482.918     7357.204     1488.737        1.601        0.616      140.244       38.814        0.077      344.904       22.054      860.286
05/20/2013  20:35:00     -253.999      -68.324       -5.081      110.238       90.706       42.992    12152.332     8227.597     1848.340        4.571        1.111      263.028       42.481        0.026      344.852       21.961      860.271
05/20/2013  20:36:00     -227.946      -91.518       -6.679      108.381       90.960       50.603    11746.518     8273.665     2560.685        4.148        1.129      245.631       57.398        0.055      344.830       21.925      860.264
05/20/2013  20:37:00     -260.614      -22.822      -21.265       82.599       63.901       45.368     6822.600     4083.281     2058.213        4.093        0.648      261.611       46.342        0.031      344.805       21.879      860.270
05/20/2013  20:38:00     -256.271      -55.201      -13.599      109.464       90.314       49.856    11982.267     8156.541     2485.577        4.576        1.131      262.149       40.045        0.023      344.802       21.875      860.260
05/20/2013  20:39:00     -278.790       -5.423       -3.554      155.872      110.914       61.106    24296.035    12301.990     3733.972        5.904        2.017      278.843       69.819        0.063      344.758       21.801      860.252
05/20/2013  20:40:00     -153.313      -48.911        1.333      108.045       76.634       46.322    11673.666     5872.740     2145.688        2.279        0.985      160.926       47.498        0.087      344.693       21.690      860.250
05/20/2013  20:41:00     -157.895       -4.102        2.484      154.211       86.516       48.073    23781.006     7484.989     2311.008        2.926        1.679      157.948       43.155        0.075      344.693       21.691      860.247
05/20/2013  20:42:00     -179.184      -55.510        9.688      131.257      108.643       57.623    17228.381    11803.356     3320.375        3.381        1.618      187.585       62.977        0.113      344.661       21.636      860.243
05/20/2013  20:43:00     -270.822      -10.869       -8.822      125.686       99.245       62.401    15796.932     9849.605     3893.891        5.153        1.477      271.040       56.453        0.043      344.719       21.735      860.226
05/20/2013  20:44:00     -339.263      -94.025      -11.727      133.474      130.780       67.620    17815.280    17103.465     4572.401        8.178        1.975      352.051       72.329        0.042      344.703       21.707      860.225
05/20/2013  20:45:00     -230.544      -11.798      -11.243      141.684       76.679       54.170    20074.428     5879.593     2934.347        4.115        1.444      230.846       64.206        0.077      344.656       21.626      860.233
05/20/2013  20:46:00     -251.285        5.673        8.080      162.908       94.559       70.558    26538.946     8941.461     4978.410        5.184        2.023      251.349       77.812        0.096      344.619       21.563      860.222
05/20/2013  20:47:00     -218.754      -45.049        2.437      109.266       86.859       55.543    11939.132     7544.400     3085.077        3.622        1.128      223.344       52.932        0.056      344.611       21.549      860.237
05/20/2013  20:48:00     -280.643      -50.067       -2.486      128.900      107.685       62.593    16615.278    11595.996     3917.856        5.669        1.606      285.074       66.014        0.054      344.626       21.574      860.235
05/20/2013  20:49:00     -321.314      -66.412      -14.759      100.554       95.102       49.699    10111.032     9044.404     2470.037        6.474        1.081      328.105       55.544        0.029      344.641       21.598      860.232
05/20/2013  20:50:00     -205.511     -110.470       -6.520       87.228       74.555       40.802     7608.796     5558.414     1664.812        3.465        0.742      233.320       38.399        0.027      344.606       21.542      860.238
05/20/2013  20:51:00     -272.512     -115.136       -6.065      175.486      133.920       81.435    30795.212    17934.593     6631.613        7.145        2.768      295.836       91.553        0.096      344.587       21.507      860.223
05/20/2013  20:52:00     -159.360      -67.271       -2.172      140.186      133.556       64.662    19652.049    17837.230     4181.184        3.579        2.084      172.976       73.685        0.181      344.558       21.459      860.221
05/20/2013  20:53:00     -334.519     -128.069        0.886      199.771      170.398       74.255    39908.292    29035.525     5513.796       10.137        3.723      358.197       91.713        0.066      344.570       21.479      860.231
05/20/2013  20:54:00     -236.307     -102.551      -18.952      166.454      113.352       71.844    27706.934    12848.648     5161.510        5.621        2.286      257.600       84.158        0.107      344.569       21.477      860.217
05/20/2013  20:55:00     -201.039      -78.054      -11.489      172.254       68.061       50.815    29671.314     4632.259     2582.173        4.176        1.844      215.660       66.564        0.095      344.544       21.436      860.227
05/20/2013  20:56:00     -212.739      -74.465       -1.935      160.167      128.452       66.234    25653.559    16499.907     4386.982        4.866        2.327      225.395       62.508        0.077      344.535       21.419      860.199
05/20/2013  20:57:00     -236.433      -81.182       -7.540      131.196      136.275       56.457    17212.300    18570.758     3187.390        5.075        1.949      249.982       54.218        0.047      344.508       21.373      860.193
05/20/2013  20:58:00     -212.168      -60.296       -5.906      119.635      126.954       59.340    14312.539    16117.384     3521.263        4.131        1.698      220.569       60.349        0.075      344.512       21.381      860.182
05/20/2013  20:59:00     -347.858      -83.309       -8.989      127.094      114.344       59.253    16152.992    13074.658     3510.859        8.038        1.637      357.695       50.503        0.020      344.505       21.368      860.168
05/20/2013  21:00:00     -220.800      -87.077       -2.872      112.515       87.677       58.807    12659.655     7687.290     3458.316        4.007        1.190      237.350       64.360        0.074      344.468       21.305      860.159
05/20/2013  21:01:00     -108.051      -78.775       19.221      139.549      144.763       89.146    19473.939    20956.315     7947.063        3.330        2.419      133.718       88.054        0.434      344.440       21.258      860.140
05/20/2013  21:02:00     -256.323      -18.659      -16.945       96.780      101.012       45.792     9366.323    10203.375     2096.939        4.400        1.083      257.001       32.214        0.016      344.480       21.327      860.148
05/20/2013  21:03:00     -292.079      -50.845      -15.539      130.055      102.859       58.074    16914.432    10579.993     3372.555        5.950        1.543      296.471       69.829        0.055      344.428       21.237      860.161
05/20/2013  21:04:00     -139.326     -103.426       26.045      191.037      143.006       90.734    36495.284    20450.575     8232.658        4.797        3.259      173.518      112.011        0.417      344.421       21.225      860.141
05/20/2013  21:05:00     -246.588      -79.725        2.437      158.626      115.228       65.930    25162.210    13277.536     4346.747        5.497        2.139      259.155       66.932        0.067      344.381       21.158      860.171
05/20/2013  21:06:00     -407.282      -93.498      -21.958      212.041      116.879       74.136    44961.594    13660.680     5496.168       11.960        3.206      417.876       78.215        0.035      344.436       21.250      860.182
05/20/2013  21:07:00     -251.934       12.753        5.481      101.596       80.715       57.069    10321.733     6514.959     3256.927        4.187        1.005      252.256       57.414        0.052      344.370       21.138      860.219
05/20/2013  21:08:00     -289.411      -28.127      -34.679      104.599       70.158       51.665    10940.932     4922.108     2669.254        5.214        0.927      290.774       49.876        0.029      344.388       21.169      860.218
05/20/2013  21:09:00     -507.786      -31.553      -17.493      223.196      137.940       84.534    49816.532    19027.376     7146.066       16.755        3.799      508.765       96.450        0.036      344.381       21.158      860.225
05/20/2013  21:10:00     -351.586      -10.291      -26.141      154.704      126.950       62.871    23933.334    16116.237     3952.765        8.419        2.200      351.736       70.776        0.040      344.365       21.128      860.208
05/20/2013  21:11:00     -359.224      -91.001      -15.177      194.531      165.970       85.605    37842.190    27545.952     7328.176       10.512        3.636      370.571       93.189        0.063      344.390       21.173      860.199
05/20/2013  21:12:00     -365.883      -82.507       -2.901      188.539      133.731       76.315    35547.053    17884.042     5824.019        9.996        2.963      375.070       89.091        0.056      344.367       21.133      860.196
05/20/2013  21:13:00     -180.825     -129.193       -1.120      136.208      110.388       58.047    18552.594    12185.553     3369.426        4.174        1.705      222.235       54.096        0.059      344.403       21.195      860.214
05/20/2013  21:14:00     -193.456      -45.741       10.620      148.323      127.072       66.353    21999.572    16147.363     4402.736        4.108        2.127      198.790       79.651        0.161      344.347       21.100      860.235
05/20/2013  21:15:00     -321.674      -78.717      -25.340      128.428      126.922       59.283    16493.693    16109.232     3514.504        7.321        1.806      331.166       53.615        0.026      344.344       21.093      860.260
05/20/2013  21:16:00     -146.962      -44.168       15.926      148.569      102.657       63.525    22072.714    10538.397     4035.397        3.022        1.832      153.456       69.646        0.206      344.303       21.025      860.271
05/20/2013  21:17:00     -216.646     -139.456      -20.342      116.112      109.756       67.123    13482.061    12046.348     4505.476        4.841        1.502      257.650       60.507        0.055      344.327       21.063      860.299
05/20/2013  21:18:00     -216.851     -149.421       -4.008      126.205       91.126       67.883    15927.708     8303.928     4608.061        4.910        1.442      263.346       66.884        0.065      344.325       21.060      860.306
05/20/2013  21:19:00      -87.860      -70.959       10.395      128.565       90.263       47.700    16528.853     8147.347     2275.327        1.990        1.348      112.936       62.817        0.309      344.283       20.990      860.321
05/20/2013  21:20:00     -128.208      -57.851        4.763       91.453      105.633       52.661     8363.647    11158.377     2773.160        2.105        1.115      140.656       59.417        0.178      344.247       20.929      860.317
05/20/2013  21:21:00     -284.916      -26.217      -17.362      154.648      105.058       57.643    23915.945    11037.129     3322.765        6.021        1.914      286.120       64.870        0.051      344.226       20.892      860.322
05/20/2013  21:22:00     -338.677      -47.908      -11.448      100.116      103.461       50.146    10023.162    10704.156     2514.625        7.018        1.162      342.049       47.369        0.019      344.208       20.860      860.308
05/20/2013  21:23:00     -168.390      -41.067       28.037      197.012      101.587       72.636    38813.758    10319.918     5275.920        4.261        2.720      173.325       93.182        0.289      344.211       20.865      860.288
05/20/2013  21:24:00     -238.618      -33.784       -7.781      164.594       95.997       54.615    27091.040     9215.483     2982.827        4.871        1.964      240.998       62.059        0.066      344.186       20.823      860.281
05/20/2013  21:25:00     -337.572     -114.338      -24.295      157.957      129.375       66.765    24950.479    16737.920     4457.581        8.687        2.307      356.410       64.679        0.033      344.223       20.885      860.264
05/20/2013  21:26:00     -285.708      -38.959       -6.801      191.230      112.764       68.503    36568.979    12715.769     4692.726        6.857        2.699      288.352       87.206        0.091      344.189       20.828      860.271
05/20/2013  21:27:00     -177.357      -34.674        8.381      182.895      123.099       73.855    33450.747    15153.345     5454.605        4.338        2.703      180.714       85.672        0.225      344.172       20.801      860.262
05/20/2013  21:28:00     -145.691      -44.206        7.296      189.963      107.459       68.811    36086.102    11547.522     4734.890        3.779        2.618      152.250       94.052        0.382      344.166       20.790      860.279
05/20/2013  21:29:00     -262.676      -56.193        2.745      204.565      146.322       91.693    41846.651    21410.019     8407.546        7.190        3.583      268.619       99.948        0.138      344.180       20.812      860.259
05/20/2013  21:30:00     -259.658      -73.025       -6.934      136.266      139.641       74.089    18568.351    19499.630     5489.254        5.817        2.178      269.731       71.741        0.071      344.143       20.751      860.276
05/20/2013  21:31:00     -328.089      -99.694       -8.898      201.764      156.022       83.323    40708.842    24342.780     6942.765        9.481        3.600      342.901       91.849        0.072      344.154       20.768      860.303
05/20/2013  21:32:00     -288.155      -46.220        1.362      213.072      161.757       88.267    45399.767    26165.249     7791.076        8.225        3.968      291.838       97.260        0.111      344.136       20.738      860.315
05/20/2013  21:33:00     -474.430      -76.116      -21.174      163.149      152.656       79.920    26617.452    23303.957     6387.175       14.381        2.815      480.497       87.620        0.033      344.102       20.679      860.359
05/20/2013  21:34:00     -291.378      -51.089        3.982      196.724      130.440       73.995    38700.270    17014.701     5475.315        7.435        3.060      295.823       92.945        0.099      344.071       20.627      860.380
05/20/2013  21:35:00     -462.793      -58.172      -29.898      160.945      118.819       71.164    25903.292    14117.922     5064.379       13.176        2.254      466.435       74.084        0.025      344.083       20.648      860.398
05/20/2013  21:36:00     -415.715     -122.870        6.322      230.520      153.799       82.118    53139.394    23654.155     6743.294       13.573        4.177      433.493      105.290        0.059      344.072       20.627      860.399
05/20/2013  21:37:00     -350.643      -77.036        8.100      255.944      142.618       93.996    65507.569    20339.827     8835.160       11.180        4.734      359.006      127.177        0.125      344.053       20.596      860.419
05/20/2013  21:38:00     -351.984      -95.740       -4.416      220.252      115.240       69.765    48511.140    13280.231     4867.224        9.985        3.333      364.772       93.444        0.066      344.045       20.583      860.434
05/20/2013  21:39:00     -410.765      -66.422      -18.442      195.567      143.853       76.925    38246.299    20693.688     5917.474       11.916        3.243      416.101       83.529        0.040      344.074       20.631      860.433
05/20/2013  21:40:00     -490.827      -20.955      -37.442      204.342      130.082       86.136    41755.646    16921.419     7419.478       15.441        3.305      491.275       98.875        0.041      344.085       20.652      860.441
05/20/2013  21:41:00     -408.875      -25.604      -21.723      197.788      124.916       74.986    39120.134    15603.933     5622.867       11.431        3.017      409.676       80.241        0.038      344.053       20.596      860.442
05/20/2013  21:42:00     -451.942      -36.114      -21.356      196.289      152.862       95.751    38529.459    23366.837     9168.277       13.852        3.553      453.383      102.488        0.051      344.051       20.594      860.441
05/20/2013  21:43:00     -474.422        4.419      -31.029      169.750      162.264       77.473    28815.220    26329.691     6002.024       14.359        3.057      474.443       80.082        0.028      344.022       20.543      860.448
05/20/2013  21:44:00     -297.839      -62.802       -9.839      147.922       96.488       70.864    21880.974     9310.027     5021.669        6.447        1.811      304.388       65.333        0.046      344.023       20.544      860.464
05/20/2013  21:45:00     -371.423      -50.294      -23.767      145.473      116.410       75.036    21162.365    13551.270     5630.427        9.069        2.017      374.812       74.935        0.040      344.002       20.509      860.477
05/20/2013  21:46:00     -365.479      -97.697      -14.809      151.992      101.335       73.153    23101.517    10268.707     5351.405        9.102        1.936      378.312       80.983        0.046      344.006       20.516      860.486
05/20/2013  21:47:00     -257.044      -69.149      -15.381      186.899      107.923       70.609    34931.320    11647.291     4985.675        6.132        2.578      266.182       86.311        0.105      343.963       20.442      860.501
05/20/2013  21:48:00     -152.667      -77.100       -0.800      103.347       99.100       55.199    10680.545     9820.742     3046.886        2.640        1.177      171.031       61.229        0.128      343.940       20.404      860.499
05/20/2013  21:49:00     -143.352      -58.950        1.012      118.956       95.972       48.366    14150.549     9210.644     2339.262        2.486        1.285      155.000       63.354        0.167      343.910       20.352      860.467
05/20/2013  21:50:00     -210.521      -41.850       19.168      193.434      109.712       66.560    37416.521    12036.802     4430.296        5.015        2.694      214.641       82.571        0.148      343.904       20.342      860.463
05/20/2013  21:51:00     -351.057      -53.077       -5.921      215.937      118.987       82.111    46628.746    14157.801     6742.260        9.680        3.376      355.047      102.626        0.084      343.888       20.314      860.477
05/20/2013  21:52:00     -236.252      -91.634       -2.855      165.703      143.064       84.382    27457.566    20467.258     7120.392        5.962        2.752      253.400       73.601        0.084      343.936       20.396      860.470
05/20/2013  21:53:00     -305.250      -90.302        7.424      237.380      112.510       84.982    56349.061    12658.531     7221.982        8.879        3.811      318.327       98.642        0.096      343.933       20.391      860.488
05/20/2013  21:54:00     -193.108     -175.231        6.288      120.615      111.940       66.020    14547.954    12530.461     4358.596        4.973        1.572      260.762       67.307        0.067      343.935       20.393      860.519
05/20/2013  21:55:00     -212.116     -104.820        6.807      137.515      112.231       65.974    18910.316    12595.847     4352.594        4.594        1.793      236.602       73.221        0.096      343.923       20.374      860.521
05/20/2013  21:56:00     -253.168     -129.743       -8.292      168.315      101.209       68.127    28329.917    10243.171     4641.314        6.210        2.161      284.477       78.085        0.075      343.921       20.369      860.500
05/20/2013  21:57:00     -228.841     -111.682        3.298      129.715      120.375       62.016    16826.047    14490.036     3845.960        5.000        1.758      254.640       63.619        0.062      343.880       20.299      860.527
05/20/2013  21:58:00     -376.323       -3.086      -34.133      142.342      102.653       60.932    20261.378    10537.680     3712.765        8.865        1.726      376.336       66.391        0.031      343.903       20.340      860.525
05/20/2013  21:59:00     -344.528     -188.084      -12.948      180.328      106.691       67.425    32518.109    11382.900     4546.082       10.134        2.422      392.524       78.315        0.040      343.866       20.276      860.497
05/20/2013  22:00:00     -299.785     -153.258      -11.199      144.682      131.687       67.263    20932.740    17341.377     4524.342        7.813        2.140      336.689       74.479        0.049      343.846       20.242      860.505
05/20/2013  22:01:00     -175.426      -77.622       14.407      147.850      106.561       72.449    21859.757    11355.211     5248.881        3.773        1.923      191.832       84.104        0.192      343.823       20.203      860.498
05/20/2013  22:02:00     -385.309      -48.147      -29.518      236.616      140.512       88.272    55987.044    19743.563     7791.876       11.757        4.176      388.306      116.240        0.090      343.881       20.302      860.508
05/20/2013  22:03:00     -283.775      -54.630        1.576      183.223      113.371       70.761    33570.556    12853.076     5007.145        6.746        2.572      288.986       75.636        0.069      343.894       20.324      860.530
05/20/2013  22:04:00     -279.931      -56.169       -5.523      299.302      114.981       89.126    89581.943    13220.595     7943.495        9.612        5.537      285.511      114.413        0.161      343.884       20.308      860.518
05/20/2013  22:05:00     -304.390     -157.126      -17.241      144.094      151.149       84.566    20763.123    22845.948     7151.414        8.419        2.538      342.552       79.203        0.053      343.925       20.377      860.549
05/20/2013  22:06:00     -265.451     -127.748      -14.531      158.195      121.651       63.273    25025.701    14798.862     4003.457        6.540        2.191      294.590       60.422        0.042      343.925       20.377      860.548
05/20/2013  22:07:00     -117.922     -105.524        9.352      150.372      102.098       66.000    22611.758    10424.083     4355.946        3.125        1.870      158.243       77.437        0.239      343.875       20.292      860.558
05/20/2013  22:08:00     -303.713     -116.691      -25.284      144.431      126.927       70.353    20860.276    16110.462     4949.524        7.420        2.096      325.359       71.696        0.049      343.892       20.321      860.577
05/20/2013  22:09:00     -298.047     -102.571      -22.797      167.839      112.428       59.400    28169.805    12640.017     3528.376        7.210        2.217      315.203       64.549        0.042      343.863       20.272      860.582
05/20/2013  22:10:00     -152.196      -66.512       10.981      127.038       84.521       70.553    16138.617     7143.768     4977.780        2.798        1.413      166.095       60.515        0.133      343.847       20.245      860.582
05/20/2013  22:11:00     -264.626     -193.070       12.297      186.797      167.452       94.661    34892.953    28040.190     8960.635        8.966        3.595      327.571      103.830        0.100      343.875       20.291      860.581
05/20/2013  22:12:00     -255.543     -165.687      -10.685      168.290      153.854       84.389    28321.434    23671.154     7121.495        7.598        2.956      304.555       98.943        0.106      343.865       20.276      860.570
05/20/2013  22:13:00     -264.364     -116.694      -34.081      182.036      122.858       55.663    33136.925    15093.985     3098.358        6.799        2.566      288.973       55.709        0.037      343.880       20.301      860.591
05/20/2013  22:14:00     -213.255        3.033        0.246       92.236       87.705       60.197     8507.503     7692.242     3623.712        3.265        0.991      213.277       56.596        0.070      343.868       20.279      860.576
05/20/2013  22:15:00     -277.110      -68.059       -6.458      122.721      110.141       57.136    15060.454    12131.044     3264.487        5.595        1.523      285.345       46.731        0.027      343.843       20.237      860.566
05/20/2013  22:16:00     -253.081     -110.101       -8.823      136.368      106.968       64.105    18596.366    11442.251     4109.512        5.519        1.707      275.993       56.980        0.043      343.834       20.221      860.557
05/20/2013  22:17:00     -194.940        1.394      -15.276       93.053       89.417       55.188     8658.912     7995.438     3045.740        2.896        0.985      194.945       48.530        0.062      343.821       20.200      860.547
05/20/2013  22:18:00     -263.656     -146.801       -6.252      180.151      101.309       67.238    32454.259    10263.493     4521.013        6.916        2.362      301.770       81.303        0.073      343.824       20.205      860.551
05/20/2013  22:19:00     -284.757      -87.964       -4.838      168.678      108.245       66.287    28452.188    11717.053     4393.950        6.670        2.228      298.034       78.321        0.069      343.787       20.142      860.545
05/20/2013  22:20:00     -236.249     -115.863       -3.310      132.152      109.713       61.428    17464.178    12036.953     3773.441        5.125        1.664      263.131       68.521        0.068      343.796       20.157      860.562
05/20/2013  22:21:00     -186.650      -92.390       -5.364      154.979      101.181       67.663    24018.482    10237.500     4578.224        4.111        1.942      208.265       76.669        0.136      343.735       20.052      860.559
05/20/2013  22:22:00     -196.345     -128.469        9.595      138.750       89.429       56.732    19251.571     7997.578     3218.563        4.280        1.523      234.639       65.386        0.078      343.730       20.043      860.564
05/20/2013  22:23:00     -241.605     -160.572       -4.130      132.908       83.446       64.321    17664.657     6963.263     4137.249        5.646        1.438      290.097       63.923        0.049      343.679       19.956      860.564
05/20/2013  22:24:00      -99.842      -26.653       20.887      117.762       75.087       50.874    13867.826     5638.095     2588.187        1.660        1.105      103.338       58.837        0.324      343.606       19.836      860.560
05/20/2013  22:25:00     -197.804       -8.104        6.061      150.633       82.487       55.943    22690.440     6804.182     3129.648        3.592        1.631      197.970       61.964        0.098      343.582       19.792      860.548
05/20/2013  22:26:00     -178.755     -128.651       -1.965      117.334      124.653       73.916    13767.245    15538.350     5463.518        4.163        1.738      220.237       77.050        0.122      343.592       19.810      860.560
05/20/2013  22:27:00     -170.296     -109.752       -7.337      106.318       73.220       53.712    11303.568     5361.104     2884.966        3.032        0.977      202.599       48.599        0.058      343.579       19.789      860.562
05/20/2013  22:28:00     -317.762      -98.716      -16.248      122.534      125.595       63.946    15014.475    15774.115     4089.043        7.292        1.744      332.742       64.562        0.038      343.583       19.792      860.556
05/20/2013  22:29:00     -271.558     -124.809       -6.682       96.050       87.723       51.912     9225.512     7695.346     2694.900        5.449        0.981      298.866       51.783        0.030      343.558       19.751      860.569
05/20/2013  22:30:00     -174.644      -63.630      -18.742      115.634       70.343       47.894    13371.308     4948.176     2293.797        2.775        1.031      185.874       57.019        0.094      343.520       19.687      860.563
05/20/2013  22:31:00     -235.837      -74.673      -13.197       96.945       72.333       43.817     9398.382     5232.101     1919.939        3.896        0.828      247.376       45.725        0.034      343.522       19.688      860.561
05/20/2013  22:32:00     -200.871     -115.792        2.793      149.767       86.683       61.651    22430.178     7513.899     3800.794        4.375        1.687      231.855       61.148        0.070      343.512       19.672      860.557
05/20/2013  22:33:00      -79.158     -100.003       12.637      112.064       90.577       55.948    12558.413     8204.175     3130.193        2.015        1.195      127.541       53.941        0.179      343.480       19.620      860.562
05/20/2013  22:34:00     -266.823     -148.811      -20.902      149.049       96.400       60.827    22215.698     9292.904     3699.975        6.449        1.760      305.515       68.695        0.051      343.489       19.633      860.574
05/20/2013  22:35:00     -273.402      -52.746      -11.790      170.276       99.518       63.589    28994.052     9903.879     4043.518        6.030        2.147      278.443       63.718        0.052      343.463       19.590      860.561
05/20/2013  22:36:00     -168.009      -52.856       12.151      142.801       94.582       57.768    20392.204     8945.761     3337.121        3.191        1.634      176.127       62.695        0.127      343.446       19.561      860.579
05/20/2013  22:37:00     -236.040     -109.446       -8.627      102.706       90.482       51.313    10548.563     8186.908     2632.985        4.456        1.068      260.179       57.945        0.050      343.489       19.633      860.596
05/20/2013  22:38:00     -119.970      -17.386       17.503      119.010       81.501       46.416    14163.328     6642.424     2154.483        1.898        1.148      121.223       53.188        0.193      343.381       19.451      860.592
05/20/2013  22:39:00      -71.471      -73.877       10.095      108.567       85.920       44.056    11786.736     7382.324     1940.965        1.588        1.056      102.791       47.766        0.216      343.406       19.494      860.580
05/20/2013  22:40:00     -138.450     -145.480       -2.884       78.673       73.592       42.372     6189.506     5415.748     1795.361        2.687        0.670      200.830       43.242        0.046      343.454       19.575      860.579
05/20/2013  22:41:00     -109.744      -48.010       11.800       80.507       86.661       43.357     6481.317     7510.160     1879.870        1.518        0.794      119.786       41.069        0.118      343.369       19.431      860.594
05/20/2013  22:42:00     -179.233     -104.173       -4.218       85.729       68.602       36.354     7349.511     4706.257     1321.618        2.818        0.669      207.307       38.840        0.035      343.383       19.453      860.584
05/20/2013  22:43:00     -168.216     -106.134       -2.928       88.711       49.004       35.890     7869.561     2401.366     1288.125        2.556        0.578      198.900       33.798        0.029      343.392       19.468      860.564
05/20/2013  22:44:00      -83.003      -86.915        9.090       84.988       48.922       34.413     7223.041     2393.382     1184.267        1.266        0.540      120.182       35.225        0.086      343.337       19.377      860.555
05/20/2013  22:45:00      -71.877      -33.591        6.926      104.012       71.510       46.328    10818.446     5113.690     2146.268        1.221        0.904       79.338       64.060        0.652      343.313       19.336      860.536
05/20/2013  22:46:00     -155.347      -58.638        6.052      134.458       57.894       52.369    18078.842     3351.769     2742.541        2.589        1.209      166.045       62.882        0.143      343.315       19.339      860.524
05/20/2013  22:47:00     -240.051     -107.403      -11.074       85.310       85.661       45.773     7277.851     7337.809     2095.152        4.299        0.836      262.982       37.966        0.021      343.313       19.333      860.537
05/20/2013  22:48:00      -75.724      -63.786        9.071       87.117       55.480       39.653     7589.375     3078.034     1572.361        1.106        0.612       99.009       46.759        0.223      343.245       19.220      860.539
05/20/2013  22:49:00      -71.994      -78.752       13.176      107.677       73.031       43.614    11594.439     5333.553     1902.157        1.519        0.942      106.701       49.375        0.214      343.221       19.177      860.523
05/20/2013  22:50:00     -113.522      -78.590        2.880       91.670       93.705       48.220     8403.414     8780.622     2325.150        1.929        0.975      138.072       51.337        0.138      343.230       19.194      860.503
05/20/2013  22:51:00     -114.589      -54.744       -5.691       70.735       60.457       33.003     5003.440     3655.071     1089.215        1.295        0.487      126.995       29.989        0.056      343.198       19.140      860.503
05/20/2013  22:52:00     -192.507      -84.339        3.757      133.005       72.438       45.180    17690.437     5247.201     2041.223        3.458        1.249      210.171       52.237        0.062      343.166       19.084      860.479
05/20/2013  22:53:00     -189.428     -103.500       -1.907       70.040       80.602       43.538     4905.572     6496.704     1895.534        2.995        0.665      215.859       34.600        0.026      343.190       19.125      860.448
05/20/2013  22:54:00     -239.512      -24.084      -19.819       77.022       50.017       39.015     5932.429     2501.668     1522.134        3.415        0.498      240.720       38.078        0.025      343.180       19.107      860.447
05/20/2013  22:55:00     -246.327     -115.858      -16.106      156.065       76.020       59.813    24356.266     5778.987     3577.550        5.403        1.686      272.213       74.552        0.075      343.177       19.102      860.426
05/20/2013  22:56:00     -166.294      -79.775        0.661      116.074      101.167       55.785    13473.187    10234.858     3111.922        3.041        1.341      184.439       59.636        0.105      343.112       18.991      860.401
05/20/2013  22:57:00     -227.198      -69.529       -6.805      119.014       68.446       49.037    14164.274     4684.799     2404.582        3.887        1.063      237.599       53.401        0.051      343.149       19.054      860.400
05/20/2013  22:58:00     -231.750      -87.458      -16.825      112.928       95.859       49.887    12752.817     9188.953     2488.760        4.303        1.222      247.703       45.855        0.034      343.163       19.079      860.390
05/20/2013  22:59:00     -191.035     -106.847      -20.079      128.987       71.564       55.685    16637.749     5121.336     3100.839        3.658        1.243      218.885       64.876        0.088      343.138       19.034      860.373
05/20/2013  23:00:00     -183.554     -113.691       -4.449       95.536       79.284       48.641     9127.085     6285.920     2365.939        3.220        0.889      215.911       47.451        0.048      343.105       18.978      860.377
05/20/2013  23:01:00     -215.546     -104.832       -0.643      148.013      114.306       69.439    21907.915    13065.969     4821.712        4.861        1.990      239.687       65.211        0.074      343.058       18.899      860.359
05/20/2013  23:02:00     -334.554     -119.018        0.585      188.835      155.097       82.076    35658.820    24055.092     6736.525        9.626        3.323      355.094       99.007        0.078      343.083       18.941      860.344
05/20/2013  23:03:00     -240.556      -46.736       -5.082      153.465      131.308       56.037    23551.632    17241.910     3140.105        5.200        2.197      245.054       56.567        0.053      343.080       18.937      860.343
05/20/2013  23:04:00     -240.709      -40.304      -12.517      123.616       79.250       58.578    15280.967     6280.539     3431.379        4.235        1.250      244.060       59.562        0.060      343.063       18.906      860.350
05/20/2013  23:05:00     -296.575      -74.131      -16.232      136.818       97.210       53.697    18719.105     9449.689     2883.359        6.238        1.553      305.700       62.048        0.041      343.057       18.898      860.357
05/20/2013  23:06:00     -203.013      -45.971       -3.838      116.187       84.691       49.595    13499.467     7172.505     2459.655        3.323        1.157      208.153       48.670        0.055      343.034       18.859      860.327
05/20/2013  23:07:00     -215.146      -76.391       -7.129       98.957       67.863       42.409     9792.548     4605.362     1798.515        3.418        0.810      228.306       43.164        0.036      343.013       18.822      860.323
05/20/2013  23:08:00     -270.563      -96.746        0.304      147.402      122.666       68.436    21727.297    15046.931     4683.533        6.200        2.073      287.340       54.988        0.037      343.030       18.851      860.304
05/20/2013  23:09:00     -334.455      -98.966      -34.747      129.523      132.836       73.128    16776.129    17645.352     5347.647        8.131        1.988      348.790       50.791        0.021      343.078       18.933      860.314
05/20/2013  23:10:00     -134.917      -20.663        0.192      115.410      101.535       49.960    13319.436    10309.284     2495.998        2.237        1.306      136.491       58.411        0.183      342.995       18.793      860.303
05/20/2013  23:11:00     -172.232       -3.728      -13.196       76.388       58.479       41.383     5835.129     3419.757     1712.593        2.041        0.548      172.272       32.510        0.036      342.953       18.721      860.304
05/20/2013  23:12:00     -244.552      -39.198        0.164       89.851       80.210       50.060     8073.263     6433.588     2505.964        3.917        0.851      247.674       42.034        0.029      342.982       18.770      860.304
05/20/2013  23:13:00     -314.523      -37.746      -18.868      122.689       99.903       56.926    15052.475     9980.708     3240.582        6.448        1.414      316.780       61.609        0.038      342.977       18.761      860.305
05/20/2013  23:14:00     -200.062      -57.817        9.818      142.752       89.832       51.894    20378.079     8069.844     2692.980        3.730        1.557      208.250       63.202        0.092      342.964       18.739      860.322
05/20/2013  23:15:00     -270.269     -125.000      -10.794      135.546       94.548       50.839    18372.822     8939.299     2584.594        5.934        1.495      297.776       51.824        0.030      343.027       18.846      860.322
05/20/2013  23:16:00     -108.805     -124.544       -4.058      102.048       86.719       59.104    10413.706     7520.109     3493.256        2.439        1.071      165.378       53.378        0.104      343.032       18.855      860.300
05/20/2013  23:17:00     -183.425     -110.564       -6.532      108.430       71.473       49.252    11757.052     5108.434     2425.804        3.260        0.965      214.171       55.011        0.066      343.008       18.814      860.289
05/20/2013  23:18:00     -171.512     -100.328        4.864      118.552       74.600       57.942    14054.464     5565.208     3357.274        3.124        1.149      198.701       60.705        0.093      342.972       18.753      860.272
05/20/2013  23:19:00      -49.707      -38.643       13.687      111.596       67.709       67.502    12453.707     4584.485     4556.581        1.287        1.080       62.961       70.813        1.265      342.913       18.654      860.250
05/20/2013  23:20:00     -171.338      -29.543      -11.760      121.628       84.127       49.182    14793.354     7077.433     2418.912        2.732        1.214      173.866       56.320        0.105      342.920       18.665      860.270
05/20/2013  23:21:00     -320.431      -95.634      -20.030      103.449       84.799       53.622    10701.793     7190.913     2875.338        6.649        1.038      334.397       47.161        0.020      343.027       18.845      860.270
05/20/2013  23:22:00     -149.793      -84.088        0.616       76.468       95.384       43.532     5847.400     9098.121     1895.066        2.317        0.842      171.780       33.952        0.039      342.952       18.720      860.263
05/20/2013  23:23:00     -257.251     -120.802      -16.252      115.825       69.817       39.089    13415.512     4874.430     1527.938        5.042        0.991      284.202       38.836        0.019      342.940       18.700      860.280
05/20/2013  23:24:00     -100.428      -68.155       -3.514       73.764       57.713       39.751     5441.096     3330.756     1580.129        1.255        0.518      121.371       44.636        0.135      342.935       18.692      860.280
05/20/2013  23:25:00     -125.885      -94.704        1.056       77.710       61.254       40.780     6038.871     3752.042     1662.996        1.813        0.573      157.531       41.557        0.070      342.904       18.637      860.258
05/20/2013  23:26:00     -151.845     -135.850       -5.355       99.963       82.516       57.635     9992.585     6808.835     3321.846        3.083        1.006      203.745       56.773        0.078      342.907       18.644      860.243
05/20/2013  23:27:00     -190.661     -100.747       -2.204      107.677       80.011       47.915    11594.302     6401.707     2295.840        3.339        1.015      215.642       55.278        0.066      342.861       18.565      860.234
05/20/2013  23:28:00     -256.215     -100.741       -6.333      153.610       88.828       52.902    23596.179     7890.332     2798.643        5.505        1.714      275.309       68.254        0.061      342.861       18.564      860.221
05/20/2013  23:29:00     -105.084     -105.671        6.604      105.190       71.394       50.363    11064.972     5097.055     2536.433        2.047        0.935      149.027       58.112        0.152      342.857       18.558      860.216
05/20/2013  23:30:00      -24.096      -24.593       12.213       64.238       60.303       40.905     4126.541     3636.495     1673.189        0.538        0.472       34.430       43.462        1.593      342.746       18.370      860.213
05/20/2013  23:31:00     -161.007      -37.681        7.245      126.369       75.335       55.927    15969.230     5675.352     3127.805        2.608        1.239      165.358       69.867        0.179      342.775       18.417      860.195
05/20/2013  23:32:00     -181.307      -28.991      -12.912       95.113       68.762       32.781     9046.438     4728.275     1074.616        2.436        0.742      183.611       22.316        0.015      342.843       18.535      860.201
05/20/2013  23:33:00     -215.470      -86.295       -1.027      104.093      115.857       49.546    10835.367    13422.903     2454.855        4.029        1.336      232.108       39.478        0.029      342.877       18.590      860.201
05/20/2013  23:34:00     -182.263     -157.021       -5.957      141.207      105.180       72.091    19939.297    11062.895     5197.104        4.705        1.810      240.573       70.270        0.085      342.904       18.636      860.196
05/20/2013  23:35:00     -226.261      -79.819        0.724       94.522       83.335       41.772     8934.446     6944.714     1744.934        3.759        0.881      239.927       41.998        0.031      342.910       18.648      860.214
05/20/2013  23:36:00     -197.300     -111.869       -1.572      137.408       84.246       54.592    18881.096     7097.450     2980.315        4.020        1.448      226.808       51.867        0.052      342.874       18.587      860.218
05/20/2013  23:37:00     -208.921     -133.574      -10.473      122.529       83.304       56.235    15013.335     6939.567     3162.404        4.335        1.256      247.972       59.888        0.058      342.842       18.533      860.235
05/20/2013  23:38:00     -215.140      -72.698       -7.468      137.269       84.330       48.833    18842.674     7111.467     2384.694        3.998        1.417      227.091       67.844        0.089      342.824       18.502      860.238
05/20/2013  23:39:00     -230.421      -76.319      -16.255       81.043       93.120       43.889     6567.917     8671.323     1926.258        3.817        0.858      242.731       39.682        0.027      342.926       18.675      860.219
05/20/2013  23:40:00     -194.334      -60.191        2.781      122.841       90.482       53.149    15089.932     8187.029     2824.850        3.374        1.305      203.442       47.230        0.054      342.838       18.526      860.208
05/20/2013  23:41:00     -246.912      -45.016      -25.662      109.424      105.268       47.843    11973.667    11081.446     2288.938        4.449        1.267      250.982       44.449        0.031      342.798       18.456      860.198
05/20/2013  23:42:00     -252.319      -68.328      -11.807      107.134       97.413       47.579    11477.791     9489.355     2263.729        4.585        1.162      261.407       47.267        0.033      342.744       18.363      860.181
05/20/2013  23:43:00     -277.763      -29.939      -10.104      136.901       78.435       47.074    18741.847     6151.988     2215.963        5.262        1.355      279.372       52.696        0.036      342.890       18.614      860.184
05/20/2013  23:44:00     -217.314      -54.656      -14.293      127.205       97.580       47.324    16181.212     9521.794     2239.542        3.917        1.397      224.082       40.257        0.032      342.878       18.595      860.185
05/20/2013  23:45:00     -262.114      -51.219      -26.863       70.807       95.570       38.274     5013.646     9133.680     1464.876        4.383        0.781      267.072       18.063        0.005      342.876       18.588      860.173
05/20/2013  23:46:00     -245.096      -66.978       -3.632      124.550       96.040       58.406    15512.656     9223.663     3411.206        4.635        1.407      254.082       54.495        0.046      342.803       18.465      860.155
05/20/2013  23:47:00     -238.493      -31.636      -10.827      112.186       92.115       53.706    12585.762     8485.220     2884.382        4.097        1.198      240.582       54.866        0.052      342.840       18.528      860.171
05/20/2013  23:48:00     -325.500     -112.755      -20.508      130.099      117.537       64.581    16925.872    13814.841     4170.680        7.699        1.746      344.476       64.064        0.035      342.832       18.515      860.160
05/20/2013  23:49:00     -181.714      -60.107       -7.404      118.505      101.458       62.213    14043.375    10293.668     3870.425        3.244        1.410      191.397       60.224        0.099      342.765       18.400      860.148
05/20/2013  23:50:00     -304.524     -166.048       -5.263      134.915      154.277       79.246    18202.061    23801.270     6279.896        8.430        2.414      346.853       80.765        0.054      342.808       18.474      860.153
05/20/2013  23:51:00     -178.688      -94.483        8.512      148.344      136.073       77.903    22005.934    18515.899     6068.864        4.375        2.330      202.129       85.084        0.177      342.762       18.396      860.131
05/20/2013  23:52:00     -301.741     -120.086       -8.587      188.947      104.917       69.416    35700.787    11007.503     4818.541        7.852        2.576      324.759       75.994        0.055      342.730       18.341      860.141
05/20/2013  23:53:00     -375.836     -107.603      -21.798      126.897      137.135       72.152    16102.965    18806.065     5205.865        9.670        2.006      390.936       69.014        0.031      342.731       18.344      860.154
05/20/2013  23:54:00     -238.800     -221.397       -4.888      130.955      103.010       65.901    17149.242    10611.052     4342.993        6.908        1.605      325.641       67.662        0.043      342.755       18.383      860.144
05/20/2013  23:55:00     -173.282     -162.282       -2.139       98.870       77.590       56.057     9775.346     6020.271     3142.432        3.765        0.947      237.408       50.526        0.045      342.683       18.261      860.137
05/20/2013  23:56:00     -184.368     -119.293       -4.820       89.645       92.299       47.420     8036.137     8519.145     2248.648        3.352        0.940      219.595       50.166        0.052      342.711       18.308      860.151
05/20/2013  23:57:00      -81.181      -63.778       20.955      110.294      100.817       49.556    12164.731    10164.134     2455.749        1.794        1.239      103.237       68.525        0.441      342.598       18.119      860.156
05/20/2013  23:58:00     -287.847     -113.739      -25.630      113.122       96.433       52.998    12796.691     9299.359     2808.804        6.067        1.245      309.503       54.970        0.032      342.647       18.199      860.146
05/20/2013  23:59:00     -175.683      -84.591        3.541      122.925       65.245       49.763    15110.645     4256.961     2476.370        2.993        1.092      194.987       62.733        0.104      342.607       18.133      860.144
